Wetterdaten: Samstag, 06.07.2019
Datum Zeit Temp. A. Feuchte A. Luftdruck Regen Wind Richtung Richtung Sonnenschein ET UV Solar Taupunkt Windchill Windböen
06.07.2019 00:00 15,3 °C 71 % 1013,2 hPa 0,0 mm 6,8 km/h (2 Bft) S-SO 161 ° 0 min 0,000 mm 0,0 UV-I 0 W/m² 10,1 °C 15,3 °C 8,0 km/h (2 Bft)
06.07.2019 00:01 15,4 °C 70 % 1013,2 hPa 0,0 mm 2,7 km/h (1 Bft) S-SO 161 ° 0 min 0,000 mm 0,0 UV-I 0 W/m² 10,0 °C 15,4 °C 3,2 km/h (1 Bft)
06.07.2019 00:02 15,4 °C 70 % 1013,2 hPa 0,0 mm 4,7 km/h (1 Bft) S-SO 161 ° 0 min 0,000 mm 0,0 UV-I 0 W/m² 10,0 °C 15,4 °C 6,4 km/h (2 Bft)
06.07.2019 00:03 15,6 °C 69 % 1013,2 hPa 0,0 mm 4,7 km/h (1 Bft) S-SO 165 ° 0 min 0,000 mm 0,0 UV-I 0 W/m² 9,9 °C 15,6 °C 8,0 km/h (2 Bft)
06.07.2019 00:04 15,6 °C 69 % 1013,2 hPa 0,0 mm 2,0 km/h (1 Bft) S-SO 165 ° 0 min 0,000 mm 0,0 UV-I 0 W/m² 9,9 °C 15,6 °C 3,2 km/h (1 Bft)
06.07.2019 00:05 15,7 °C 69 % 1013,2 hPa 0,0 mm 1,3 km/h (1 Bft) S-SO 165 ° 0 min 0,000 mm 0,0 UV-I 0 W/m² 10,0 °C 15,7 °C 3,2 km/h (1 Bft)
06.07.2019 00:06 15,6 °C 70 % 1013,2 hPa 0,0 mm 0,0 km/h (0 Bft) S-SO 165 ° 0 min 0,000 mm 0,0 UV-I 0 W/m² 10,1 °C 15,6 °C 0,0 km/h (0 Bft)
06.07.2019 00:07 15,6 °C 70 % 1013,2 hPa 0,0 mm 0,0 km/h (0 Bft) S-SO 165 ° 0 min 0,000 mm 0,0 UV-I 0 W/m² 10,1 °C 15,6 °C 0,0 km/h (0 Bft)
06.07.2019 00:08 15,6 °C 69 % 1013,2 hPa 0,0 mm 0,7 km/h (0 Bft) S-SO 165 ° 0 min 0,000 mm 0,0 UV-I 0 W/m² 9,9 °C 15,6 °C 1,6 km/h (1 Bft)
06.07.2019 00:09 15,6 °C 69 % 1013,2 hPa 0,0 mm 1,6 km/h (1 Bft) S-SO 165 ° 0 min 0,000 mm 0,0 UV-I 0 W/m² 9,9 °C 15,6 °C 3,2 km/h (1 Bft)
06.07.2019 00:10 15,6 °C 69 % 1013,2 hPa 0,0 mm 3,6 km/h (1 Bft) S-SO 165 ° 0 min 0,000 mm 0,0 UV-I 0 W/m² 9,9 °C 15,6 °C 6,4 km/h (2 Bft)
06.07.2019 00:11 15,6 °C 69 % 1013,2 hPa 0,0 mm 1,6 km/h (1 Bft) S-SO 165 ° 0 min 0,000 mm 0,0 UV-I 0 W/m² 9,9 °C 15,6 °C 3,2 km/h (1 Bft)
06.07.2019 00:12 15,6 °C 69 % 1013,2 hPa 0,0 mm 0,0 km/h (0 Bft) S-SO 165 ° 0 min 0,000 mm 0,0 UV-I 0 W/m² 9,9 °C 15,6 °C 0,0 km/h (0 Bft)
06.07.2019 00:13 15,6 °C 69 % 1013,2 hPa 0,0 mm 0,0 km/h (0 Bft) S-SO 165 ° 0 min 0,000 mm 0,0 UV-I 0 W/m² 9,9 °C 15,6 °C 0,0 km/h (0 Bft)
06.07.2019 00:14 15,4 °C 70 % 1013,2 hPa 0,0 mm 0,0 km/h (0 Bft) S-SO 165 ° 0 min 0,000 mm 0,0 UV-I 0 W/m² 10,0 °C 15,4 °C 0,0 km/h (0 Bft)
06.07.2019 00:15 15,3 °C 71 % 1013,2 hPa 0,0 mm 0,0 km/h (0 Bft) S-SO 165 ° 0 min 0,000 mm 0,0 UV-I 0 W/m² 10,1 °C 15,3 °C 0,0 km/h (0 Bft)
06.07.2019 00:16 15,1 °C 71 % 1013,2 hPa 0,0 mm 0,8 km/h (0 Bft) S-SO 165 ° 0 min 0,000 mm 0,0 UV-I 0 W/m² 9,9 °C 15,1 °C 3,2 km/h (1 Bft)
06.07.2019 00:17 15,1 °C 71 % 1013,2 hPa 0,0 mm 5,8 km/h (2 Bft) S-SO 165 ° 0 min 0,000 mm 0,0 UV-I 0 W/m² 9,9 °C 15,1 °C 8,0 km/h (2 Bft)
06.07.2019 00:18 15,0 °C 71 % 1013,2 hPa 0,0 mm 4,5 km/h (1 Bft) S 180 ° 0 min 0,000 mm 0,0 UV-I 0 W/m² 9,8 °C 15,0 °C 8,0 km/h (2 Bft)
06.07.2019 00:19 15,0 °C 71 % 1013,1 hPa 0,0 mm 3,9 km/h (1 Bft) S 180 ° 0 min 0,000 mm 0,0 UV-I 0 W/m² 9,8 °C 15,0 °C 6,4 km/h (2 Bft)
06.07.2019 00:20 15,1 °C 70 % 1013,1 hPa 0,0 mm 4,1 km/h (1 Bft) S-SW 193 ° 0 min 0,000 mm 0,0 UV-I 0 W/m² 9,7 °C 15,1 °C 4,8 km/h (1 Bft)
06.07.2019 00:21 15,1 °C 70 % 1013,0 hPa 0,0 mm 3,6 km/h (1 Bft) S-SW 193 ° 0 min 0,000 mm 0,0 UV-I 0 W/m² 9,7 °C 15,1 °C 6,4 km/h (2 Bft)
06.07.2019 00:22 15,1 °C 71 % 1013,0 hPa 0,0 mm 3,4 km/h (1 Bft) S 191 ° 0 min 0,000 mm 0,0 UV-I 0 W/m² 9,9 °C 15,1 °C 4,8 km/h (1 Bft)
06.07.2019 00:23 15,1 °C 71 % 1013,1 hPa 0,0 mm 1,6 km/h (1 Bft) S 191 ° 0 min 0,000 mm 0,0 UV-I 0 W/m² 9,9 °C 15,1 °C 3,2 km/h (1 Bft)
06.07.2019 00:24 15,1 °C 70 % 1013,0 hPa 0,0 mm 0,5 km/h (0 Bft) S 191 ° 0 min 0,000 mm 0,0 UV-I 0 W/m² 9,7 °C 15,1 °C 3,2 km/h (1 Bft)
06.07.2019 00:25 15,2 °C 69 % 1013,0 hPa 0,0 mm 0,2 km/h (0 Bft) S 191 ° 0 min 0,000 mm 0,0 UV-I 0 W/m² 9,6 °C 15,2 °C 1,6 km/h (1 Bft)
06.07.2019 00:26 15,3 °C 69 % 1013,0 hPa 0,0 mm 0,6 km/h (0 Bft) S 191 ° 0 min 0,000 mm 0,0 UV-I 0 W/m² 9,6 °C 15,3 °C 1,6 km/h (1 Bft)
06.07.2019 00:27 15,4 °C 69 % 1013,0 hPa 0,0 mm 0,0 km/h (0 Bft) S 191 ° 0 min 0,000 mm 0,0 UV-I 0 W/m² 9,7 °C 15,4 °C 0,0 km/h (0 Bft)
06.07.2019 00:28 15,4 °C 68 % 1013,0 hPa 0,0 mm 0,0 km/h (0 Bft) S 191 ° 0 min 0,000 mm 0,0 UV-I 0 W/m² 9,5 °C 15,4 °C 0,0 km/h (0 Bft)
06.07.2019 00:29 15,4 °C 69 % 1012,9 hPa 0,0 mm 0,0 km/h (0 Bft) S 191 ° 0 min 0,000 mm 0,0 UV-I 0 W/m² 9,7 °C 15,4 °C 0,0 km/h (0 Bft)
06.07.2019 00:30 15,3 °C 69 % 1012,9 hPa 0,0 mm 0,0 km/h (0 Bft) S 191 ° 0 min 0,000 mm 0,0 UV-I 0 W/m² 9,6 °C 15,3 °C 0,0 km/h (0 Bft)
06.07.2019 00:31 15,3 °C 69 % 1013,0 hPa 0,0 mm 1,1 km/h (1 Bft) S 191 ° 0 min 0,000 mm 0,0 UV-I 0 W/m² 9,6 °C 15,3 °C 3,2 km/h (1 Bft)
06.07.2019 00:32 15,3 °C 69 % 1012,9 hPa 0,0 mm 0,0 km/h (0 Bft) S 191 ° 0 min 0,000 mm 0,0 UV-I 0 W/m² 9,6 °C 15,3 °C 0,0 km/h (0 Bft)
06.07.2019 00:33 15,3 °C 69 % 1012,9 hPa 0,0 mm 0,3 km/h (0 Bft) S 191 ° 0 min 0,000 mm 0,0 UV-I 0 W/m² 9,6 °C 15,3 °C 1,6 km/h (1 Bft)
06.07.2019 00:34 15,3 °C 69 % 1013,0 hPa 0,0 mm 0,0 km/h (0 Bft) S 191 ° 0 min 0,000 mm 0,0 UV-I 0 W/m² 9,6 °C 15,3 °C 0,0 km/h (0 Bft)
06.07.2019 00:35 15,3 °C 69 % 1012,9 hPa 0,0 mm 0,0 km/h (0 Bft) S 191 ° 0 min 0,000 mm 0,0 UV-I 0 W/m² 9,6 °C 15,3 °C 0,0 km/h (0 Bft)
06.07.2019 00:36 15,4 °C 69 % 1012,9 hPa 0,0 mm 0,0 km/h (0 Bft) S 191 ° 0 min 0,000 mm 0,0 UV-I 0 W/m² 9,7 °C 15,4 °C 0,0 km/h (0 Bft)
06.07.2019 00:37 15,3 °C 70 % 1012,9 hPa 0,0 mm 0,0 km/h (0 Bft) S 191 ° 0 min 0,000 mm 0,0 UV-I 0 W/m² 9,9 °C 15,3 °C 0,0 km/h (0 Bft)
06.07.2019 00:38 15,2 °C 70 % 1013,0 hPa 0,0 mm 0,0 km/h (0 Bft) S 191 ° 0 min 0,000 mm 0,0 UV-I 0 W/m² 9,8 °C 15,2 °C 0,0 km/h (0 Bft)
06.07.2019 00:39 15,1 °C 71 % 1012,9 hPa 0,0 mm 0,0 km/h (0 Bft) S 191 ° 0 min 0,000 mm 0,0 UV-I 0 W/m² 9,9 °C 15,1 °C 0,0 km/h (0 Bft)
06.07.2019 00:40 15,1 °C 72 % 1012,9 hPa 0,0 mm 0,0 km/h (0 Bft) S 191 ° 0 min 0,000 mm 0,0 UV-I 0 W/m² 10,1 °C 15,1 °C 0,0 km/h (0 Bft)
06.07.2019 00:41 14,9 °C 72 % 1013,0 hPa 0,0 mm 0,0 km/h (0 Bft) S 191 ° 0 min 0,000 mm 0,0 UV-I 0 W/m² 9,9 °C 14,9 °C 0,0 km/h (0 Bft)
06.07.2019 00:42 14,9 °C 72 % 1012,9 hPa 0,0 mm 0,0 km/h (0 Bft) S 191 ° 0 min 0,000 mm 0,0 UV-I 0 W/m² 9,9 °C 14,9 °C 0,0 km/h (0 Bft)
06.07.2019 00:43 14,8 °C 72 % 1013,0 hPa 0,0 mm 0,0 km/h (0 Bft) S 191 ° 0 min 0,000 mm 0,0 UV-I 0 W/m² 9,8 °C 14,8 °C 0,0 km/h (0 Bft)
06.07.2019 00:44 14,8 °C 72 % 1013,0 hPa 0,0 mm 0,0 km/h (0 Bft) S 191 ° 0 min 0,000 mm 0,0 UV-I 0 W/m² 9,8 °C 14,8 °C 0,0 km/h (0 Bft)
06.07.2019 00:45 14,7 °C 72 % 1013,0 hPa 0,0 mm 0,0 km/h (0 Bft) S 191 ° 0 min 0,000 mm 0,0 UV-I 0 W/m² 9,7 °C 14,7 °C 0,0 km/h (0 Bft)
06.07.2019 00:46 14,7 °C 72 % 1013,0 hPa 0,0 mm 0,0 km/h (0 Bft) S 191 ° 0 min 0,000 mm 0,0 UV-I 0 W/m² 9,7 °C 14,7 °C 0,0 km/h (0 Bft)
06.07.2019 00:47 14,7 °C 72 % 1012,9 hPa 0,0 mm 0,0 km/h (0 Bft) S 191 ° 0 min 0,000 mm 0,0 UV-I 0 W/m² 9,7 °C 14,7 °C 0,0 km/h (0 Bft)
06.07.2019 00:48 14,6 °C 72 % 1012,9 hPa 0,0 mm 0,0 km/h (0 Bft) S 191 ° 0 min 0,000 mm 0,0 UV-I 0 W/m² 9,6 °C 14,6 °C 0,0 km/h (0 Bft)
06.07.2019 00:49 14,6 °C 72 % 1012,9 hPa 0,0 mm 0,0 km/h (0 Bft) S 191 ° 0 min 0,000 mm 0,0 UV-I 0 W/m² 9,6 °C 14,6 °C 0,0 km/h (0 Bft)
06.07.2019 00:50 14,6 °C 72 % 1012,9 hPa 0,0 mm 0,0 km/h (0 Bft) S 191 ° 0 min 0,000 mm 0,0 UV-I 0 W/m² 9,6 °C 14,6 °C 0,0 km/h (0 Bft)
06.07.2019 00:51 14,7 °C 72 % 1012,9 hPa 0,0 mm 0,0 km/h (0 Bft) S 191 ° 0 min 0,000 mm 0,0 UV-I 0 W/m² 9,7 °C 14,7 °C 0,0 km/h (0 Bft)
06.07.2019 00:52 14,7 °C 72 % 1012,9 hPa 0,0 mm 0,0 km/h (0 Bft) S 191 ° 0 min 0,000 mm 0,0 UV-I 0 W/m² 9,7 °C 14,7 °C 0,0 km/h (0 Bft)
06.07.2019 00:53 14,6 °C 72 % 1012,9 hPa 0,0 mm 0,0 km/h (0 Bft) S 191 ° 0 min 0,000 mm 0,0 UV-I 0 W/m² 9,6 °C 14,6 °C 0,0 km/h (0 Bft)
06.07.2019 00:54 14,6 °C 73 % 1012,9 hPa 0,0 mm 0,0 km/h (0 Bft) S 191 ° 0 min 0,000 mm 0,0 UV-I 0 W/m² 9,8 °C 14,6 °C 0,0 km/h (0 Bft)
06.07.2019 00:55 14,6 °C 74 % 1012,9 hPa 0,0 mm 0,0 km/h (0 Bft) S 191 ° 0 min 0,000 mm 0,0 UV-I 0 W/m² 10,0 °C 14,6 °C 0,0 km/h (0 Bft)
06.07.2019 00:56 14,6 °C 74 % 1012,9 hPa 0,0 mm 0,0 km/h (0 Bft) S 191 ° 0 min 0,000 mm 0,0 UV-I 0 W/m² 10,0 °C 14,6 °C 0,0 km/h (0 Bft)
06.07.2019 00:57 14,4 °C 74 % 1013,0 hPa 0,0 mm 0,0 km/h (0 Bft) S 191 ° 0 min 0,000 mm 0,0 UV-I 0 W/m² 9,8 °C 14,4 °C 0,0 km/h (0 Bft)
06.07.2019 00:58 14,4 °C 74 % 1012,9 hPa 0,0 mm 0,0 km/h (0 Bft) S 191 ° 0 min 0,000 mm 0,0 UV-I 0 W/m² 9,8 °C 14,4 °C 0,0 km/h (0 Bft)
06.07.2019 00:59 14,3 °C 74 % 1012,9 hPa 0,0 mm 0,0 km/h (0 Bft) S 191 ° 0 min 0,000 mm 0,0 UV-I 0 W/m² 9,7 °C 14,3 °C 0,0 km/h (0 Bft)
06.07.2019 01:00 14,2 °C 74 % 1012,9 hPa 0,0 mm 0,0 km/h (0 Bft) S 191 ° 0 min 0,025 mm 0,0 UV-I 0 W/m² 9,6 °C 14,2 °C 0,0 km/h (0 Bft)
06.07.2019 01:01 14,2 °C 74 % 1012,9 hPa 0,0 mm 0,0 km/h (0 Bft) S 191 ° 0 min 0,000 mm 0,0 UV-I 0 W/m² 9,6 °C 14,2 °C 0,0 km/h (0 Bft)
06.07.2019 01:02 14,2 °C 74 % 1012,9 hPa 0,0 mm 0,0 km/h (0 Bft) S 191 ° 0 min 0,000 mm 0,0 UV-I 0 W/m² 9,6 °C 14,2 °C 0,0 km/h (0 Bft)
06.07.2019 01:03 14,3 °C 74 % 1012,9 hPa 0,0 mm 0,0 km/h (0 Bft) S 191 ° 0 min 0,000 mm 0,0 UV-I 0 W/m² 9,7 °C 14,3 °C 0,0 km/h (0 Bft)
06.07.2019 01:04 14,3 °C 74 % 1013,0 hPa 0,0 mm 0,0 km/h (0 Bft) S 191 ° 0 min 0,000 mm 0,0 UV-I 0 W/m² 9,7 °C 14,3 °C 0,0 km/h (0 Bft)
06.07.2019 01:05 14,3 °C 74 % 1012,9 hPa 0,0 mm 0,0 km/h (0 Bft) S 191 ° 0 min 0,000 mm 0,0 UV-I 0 W/m² 9,7 °C 14,3 °C 0,0 km/h (0 Bft)
06.07.2019 01:06 14,2 °C 74 % 1012,9 hPa 0,0 mm 0,0 km/h (0 Bft) S 191 ° 0 min 0,000 mm 0,0 UV-I 0 W/m² 9,6 °C 14,2 °C 0,0 km/h (0 Bft)
06.07.2019 01:07 14,1 °C 74 % 1012,9 hPa 0,0 mm 0,0 km/h (0 Bft) S 191 ° 0 min 0,000 mm 0,0 UV-I 0 W/m² 9,5 °C 14,1 °C 0,0 km/h (0 Bft)
06.07.2019 01:08 14,1 °C 74 % 1013,0 hPa 0,0 mm 0,0 km/h (0 Bft) S 191 ° 0 min 0,000 mm 0,0 UV-I 0 W/m² 9,5 °C 14,1 °C 0,0 km/h (0 Bft)
06.07.2019 01:09 14,0 °C 75 % 1013,0 hPa 0,0 mm 0,0 km/h (0 Bft) S 191 ° 0 min 0,000 mm 0,0 UV-I 0 W/m² 9,6 °C 14,0 °C 0,0 km/h (0 Bft)
06.07.2019 01:10 13,9 °C 75 % 1013,0 hPa 0,0 mm 0,0 km/h (0 Bft) S 191 ° 0 min 0,000 mm 0,0 UV-I 0 W/m² 9,5 °C 13,9 °C 0,0 km/h (0 Bft)
06.07.2019 01:11 13,9 °C 75 % 1013,0 hPa 0,0 mm 0,0 km/h (0 Bft) S 191 ° 0 min 0,000 mm 0,0 UV-I 0 W/m² 9,5 °C 13,9 °C 0,0 km/h (0 Bft)
06.07.2019 01:12 13,9 °C 75 % 1013,0 hPa 0,0 mm 0,0 km/h (0 Bft) S 191 ° 0 min 0,000 mm 0,0 UV-I 0 W/m² 9,5 °C 13,9 °C 0,0 km/h (0 Bft)
06.07.2019 01:13 13,9 °C 75 % 1013,0 hPa 0,0 mm 0,0 km/h (0 Bft) S 191 ° 0 min 0,000 mm 0,0 UV-I 0 W/m² 9,5 °C 13,9 °C 0,0 km/h (0 Bft)
06.07.2019 01:14 13,8 °C 75 % 1013,0 hPa 0,0 mm 0,0 km/h (0 Bft) S 191 ° 0 min 0,000 mm 0,0 UV-I 0 W/m² 9,4 °C 13,8 °C 0,0 km/h (0 Bft)
06.07.2019 01:15 13,8 °C 76 % 1013,0 hPa 0,0 mm 0,0 km/h (0 Bft) S 191 ° 0 min 0,000 mm 0,0 UV-I 0 W/m² 9,6 °C 13,8 °C 0,0 km/h (0 Bft)
06.07.2019 01:16 13,8 °C 76 % 1013,0 hPa 0,0 mm 0,0 km/h (0 Bft) S 191 ° 0 min 0,000 mm 0,0 UV-I 0 W/m² 9,6 °C 13,8 °C 0,0 km/h (0 Bft)
06.07.2019 01:17 13,7 °C 76 % 1013,0 hPa 0,0 mm 0,0 km/h (0 Bft) S 191 ° 0 min 0,000 mm 0,0 UV-I 0 W/m² 9,5 °C 13,7 °C 0,0 km/h (0 Bft)
06.07.2019 01:18 13,7 °C 76 % 1013,0 hPa 0,0 mm 0,0 km/h (0 Bft) S 191 ° 0 min 0,000 mm 0,0 UV-I 0 W/m² 9,5 °C 13,7 °C 0,0 km/h (0 Bft)
06.07.2019 01:19 13,6 °C 76 % 1013,0 hPa 0,0 mm 0,0 km/h (0 Bft) S 191 ° 0 min 0,000 mm 0,0 UV-I 0 W/m² 9,4 °C 13,6 °C 0,0 km/h (0 Bft)
06.07.2019 01:20 13,5 °C 76 % 1013,0 hPa 0,0 mm 0,0 km/h (0 Bft) S 191 ° 0 min 0,000 mm 0,0 UV-I 0 W/m² 9,4 °C 13,5 °C 0,0 km/h (0 Bft)
06.07.2019 01:21 13,5 °C 76 % 1013,0 hPa 0,0 mm 0,0 km/h (0 Bft) S 191 ° 0 min 0,000 mm 0,0 UV-I 0 W/m² 9,4 °C 13,5 °C 0,0 km/h (0 Bft)
06.07.2019 01:22 13,6 °C 76 % 1013,0 hPa 0,0 mm 0,0 km/h (0 Bft) S 191 ° 0 min 0,000 mm 0,0 UV-I 0 W/m² 9,4 °C 13,6 °C 0,0 km/h (0 Bft)
06.07.2019 01:23 13,5 °C 76 % 1013,0 hPa 0,0 mm 0,0 km/h (0 Bft) S 191 ° 0 min 0,000 mm 0,0 UV-I 0 W/m² 9,4 °C 13,5 °C 0,0 km/h (0 Bft)
06.07.2019 01:24 13,6 °C 76 % 1013,0 hPa 0,0 mm 0,0 km/h (0 Bft) S 191 ° 0 min 0,000 mm 0,0 UV-I 0 W/m² 9,4 °C 13,6 °C 0,0 km/h (0 Bft)
06.07.2019 01:25 13,6 °C 76 % 1013,0 hPa 0,0 mm 0,0 km/h (0 Bft) S 191 ° 0 min 0,000 mm 0,0 UV-I 0 W/m² 9,4 °C 13,6 °C 0,0 km/h (0 Bft)
06.07.2019 01:26 13,5 °C 76 % 1013,0 hPa 0,0 mm 0,0 km/h (0 Bft) S 191 ° 0 min 0,000 mm 0,0 UV-I 0 W/m² 9,4 °C 13,5 °C 0,0 km/h (0 Bft)
06.07.2019 01:27 13,5 °C 76 % 1013,0 hPa 0,0 mm 0,0 km/h (0 Bft) S 191 ° 0 min 0,000 mm 0,0 UV-I 0 W/m² 9,4 °C 13,5 °C 0,0 km/h (0 Bft)
06.07.2019 01:28 13,5 °C 77 % 1013,0 hPa 0,0 mm 0,0 km/h (0 Bft) S 191 ° 0 min 0,000 mm 0,0 UV-I 0 W/m² 9,5 °C 13,5 °C 0,0 km/h (0 Bft)
06.07.2019 01:29 13,5 °C 77 % 1013,0 hPa 0,0 mm 0,0 km/h (0 Bft) S 191 ° 0 min 0,000 mm 0,0 UV-I 0 W/m² 9,5 °C 13,5 °C 0,0 km/h (0 Bft)
06.07.2019 01:30 13,5 °C 77 % 1013,0 hPa 0,0 mm 0,0 km/h (0 Bft) S 191 ° 0 min 0,000 mm 0,0 UV-I 0 W/m² 9,5 °C 13,5 °C 0,0 km/h (0 Bft)
06.07.2019 01:31 13,5 °C 76 % 1013,0 hPa 0,0 mm 0,0 km/h (0 Bft) S 191 ° 0 min 0,000 mm 0,0 UV-I 0 W/m² 9,4 °C 13,5 °C 0,0 km/h (0 Bft)
06.07.2019 01:32 13,5 °C 76 % 1013,0 hPa 0,0 mm 0,0 km/h (0 Bft) S 191 ° 0 min 0,000 mm 0,0 UV-I 0 W/m² 9,4 °C 13,5 °C 0,0 km/h (0 Bft)
06.07.2019 01:33 13,5 °C 76 % 1013,0 hPa 0,0 mm 0,0 km/h (0 Bft) S 191 ° 0 min 0,000 mm 0,0 UV-I 0 W/m² 9,4 °C 13,5 °C 0,0 km/h (0 Bft)
06.07.2019 01:34 13,4 °C 76 % 1013,0 hPa 0,0 mm 0,0 km/h (0 Bft) S 191 ° 0 min 0,000 mm 0,0 UV-I 0 W/m² 9,3 °C 13,4 °C 0,0 km/h (0 Bft)
06.07.2019 01:35 13,4 °C 76 % 1013,0 hPa 0,0 mm 0,0 km/h (0 Bft) S 191 ° 0 min 0,000 mm 0,0 UV-I 0 W/m² 9,3 °C 13,4 °C 0,0 km/h (0 Bft)
06.07.2019 01:36 13,4 °C 76 % 1013,0 hPa 0,0 mm 0,0 km/h (0 Bft) S 191 ° 0 min 0,000 mm 0,0 UV-I 0 W/m² 9,3 °C 13,4 °C 0,0 km/h (0 Bft)
06.07.2019 01:37 13,4 °C 76 % 1013,0 hPa 0,0 mm 0,0 km/h (0 Bft) S 191 ° 0 min 0,000 mm 0,0 UV-I 0 W/m² 9,3 °C 13,4 °C 0,0 km/h (0 Bft)
06.07.2019 01:38 13,5 °C 76 % 1013,0 hPa 0,0 mm 0,0 km/h (0 Bft) S 191 ° 0 min 0,000 mm 0,0 UV-I 0 W/m² 9,4 °C 13,5 °C 0,0 km/h (0 Bft)
06.07.2019 01:39 13,5 °C 76 % 1013,0 hPa 0,0 mm 0,0 km/h (0 Bft) S 191 ° 0 min 0,000 mm 0,0 UV-I 0 W/m² 9,4 °C 13,5 °C 0,0 km/h (0 Bft)
06.07.2019 01:40 13,5 °C 76 % 1013,0 hPa 0,0 mm 0,0 km/h (0 Bft) S 191 ° 0 min 0,000 mm 0,0 UV-I 0 W/m² 9,4 °C 13,5 °C 0,0 km/h (0 Bft)
06.07.2019 01:41 13,4 °C 77 % 1013,0 hPa 0,0 mm 0,0 km/h (0 Bft) S 191 ° 0 min 0,000 mm 0,0 UV-I 0 W/m² 9,5 °C 13,4 °C 0,0 km/h (0 Bft)
06.07.2019 01:42 13,4 °C 77 % 1013,0 hPa 0,0 mm 0,0 km/h (0 Bft) S 191 ° 0 min 0,000 mm 0,0 UV-I 0 W/m² 9,5 °C 13,4 °C 0,0 km/h (0 Bft)
06.07.2019 01:43 13,3 °C 77 % 1013,0 hPa 0,0 mm 0,0 km/h (0 Bft) S 191 ° 0 min 0,000 mm 0,0 UV-I 0 W/m² 9,4 °C 13,3 °C 0,0 km/h (0 Bft)
06.07.2019 01:44 13,3 °C 77 % 1013,0 hPa 0,0 mm 0,0 km/h (0 Bft) S 191 ° 0 min 0,000 mm 0,0 UV-I 0 W/m² 9,4 °C 13,3 °C 0,0 km/h (0 Bft)
06.07.2019 01:45 13,3 °C 77 % 1013,0 hPa 0,0 mm 0,0 km/h (0 Bft) S 191 ° 0 min 0,000 mm 0,0 UV-I 0 W/m² 9,4 °C 13,3 °C 0,0 km/h (0 Bft)
06.07.2019 01:46 13,3 °C 77 % 1013,0 hPa 0,0 mm 0,0 km/h (0 Bft) S 191 ° 0 min 0,000 mm 0,0 UV-I 0 W/m² 9,4 °C 13,3 °C 0,0 km/h (0 Bft)
06.07.2019 01:47 13,3 °C 77 % 1013,0 hPa 0,0 mm 0,0 km/h (0 Bft) S 191 ° 0 min 0,000 mm 0,0 UV-I 0 W/m² 9,4 °C 13,3 °C 0,0 km/h (0 Bft)
06.07.2019 01:48 13,3 °C 77 % 1013,0 hPa 0,0 mm 0,0 km/h (0 Bft) S 191 ° 0 min 0,000 mm 0,0 UV-I 0 W/m² 9,4 °C 13,3 °C 0,0 km/h (0 Bft)
06.07.2019 01:49 13,3 °C 77 % 1013,0 hPa 0,0 mm 0,0 km/h (0 Bft) S 191 ° 0 min 0,000 mm 0,0 UV-I 0 W/m² 9,4 °C 13,3 °C 0,0 km/h (0 Bft)
06.07.2019 01:50 13,2 °C 78 % 1013,0 hPa 0,0 mm 0,0 km/h (0 Bft) S 191 ° 0 min 0,000 mm 0,0 UV-I 0 W/m² 9,4 °C 13,2 °C 0,0 km/h (0 Bft)
06.07.2019 01:51 13,2 °C 78 % 1013,0 hPa 0,0 mm 0,0 km/h (0 Bft) S 191 ° 0 min 0,000 mm 0,0 UV-I 0 W/m² 9,4 °C 13,2 °C 0,0 km/h (0 Bft)
06.07.2019 01:52 13,2 °C 78 % 1013,0 hPa 0,0 mm 0,0 km/h (0 Bft) S 191 ° 0 min 0,000 mm 0,0 UV-I 0 W/m² 9,4 °C 13,2 °C 0,0 km/h (0 Bft)
06.07.2019 01:53 13,1 °C 78 % 1013,0 hPa 0,0 mm 0,0 km/h (0 Bft) S 191 ° 0 min 0,000 mm 0,0 UV-I 0 W/m² 9,4 °C 13,1 °C 0,0 km/h (0 Bft)
06.07.2019 01:54 13,1 °C 79 % 1012,9 hPa 0,0 mm 0,0 km/h (0 Bft) S 191 ° 0 min 0,000 mm 0,0 UV-I 0 W/m² 9,5 °C 13,1 °C 0,0 km/h (0 Bft)
06.07.2019 01:55 13,1 °C 79 % 1012,9 hPa 0,0 mm 0,0 km/h (0 Bft) S 191 ° 0 min 0,000 mm 0,0 UV-I 0 W/m² 9,5 °C 13,1 °C 0,0 km/h (0 Bft)
06.07.2019 01:56 13,1 °C 79 % 1012,9 hPa 0,0 mm 0,0 km/h (0 Bft) S 191 ° 0 min 0,000 mm 0,0 UV-I 0 W/m² 9,5 °C 13,1 °C 0,0 km/h (0 Bft)
06.07.2019 01:57 13,1 °C 79 % 1012,9 hPa 0,0 mm 0,0 km/h (0 Bft) S 191 ° 0 min 0,000 mm 0,0 UV-I 0 W/m² 9,5 °C 13,1 °C 0,0 km/h (0 Bft)
06.07.2019 01:58 13,0 °C 79 % 1013,0 hPa 0,0 mm 0,0 km/h (0 Bft) S 191 ° 0 min 0,000 mm 0,0 UV-I 0 W/m² 9,4 °C 13,0 °C 0,0 km/h (0 Bft)
06.07.2019 01:59 13,1 °C 79 % 1013,0 hPa 0,0 mm 0,0 km/h (0 Bft) S 191 ° 0 min 0,000 mm 0,0 UV-I 0 W/m² 9,5 °C 13,1 °C 0,0 km/h (0 Bft)
06.07.2019 02:00 13,1 °C 79 % 1013,0 hPa 0,0 mm 0,0 km/h (0 Bft) S 191 ° 0 min 0,026 mm 0,0 UV-I 0 W/m² 9,5 °C 13,1 °C 0,0 km/h (0 Bft)
06.07.2019 02:01 13,1 °C 79 % 1013,0 hPa 0,0 mm 0,0 km/h (0 Bft) S 191 ° 0 min 0,000 mm 0,0 UV-I 0 W/m² 9,5 °C 13,1 °C 0,0 km/h (0 Bft)
06.07.2019 02:02 13,1 °C 78 % 1013,0 hPa 0,0 mm 0,0 km/h (0 Bft) S 191 ° 0 min 0,000 mm 0,0 UV-I 0 W/m² 9,4 °C 13,1 °C 0,0 km/h (0 Bft)
06.07.2019 02:03 13,1 °C 78 % 1013,0 hPa 0,0 mm 0,0 km/h (0 Bft) S 191 ° 0 min 0,000 mm 0,0 UV-I 0 W/m² 9,4 °C 13,1 °C 0,0 km/h (0 Bft)
06.07.2019 02:04 13,2 °C 77 % 1013,0 hPa 0,0 mm 0,0 km/h (0 Bft) S 191 ° 0 min 0,000 mm 0,0 UV-I 0 W/m² 9,3 °C 13,2 °C 0,0 km/h (0 Bft)
06.07.2019 02:05 13,3 °C 77 % 1013,0 hPa 0,0 mm 0,0 km/h (0 Bft) S 191 ° 0 min 0,000 mm 0,0 UV-I 0 W/m² 9,4 °C 13,3 °C 0,0 km/h (0 Bft)
06.07.2019 02:06 13,3 °C 77 % 1012,9 hPa 0,0 mm 0,0 km/h (0 Bft) S 191 ° 0 min 0,000 mm 0,0 UV-I 0 W/m² 9,4 °C 13,3 °C 0,0 km/h (0 Bft)
06.07.2019 02:07 13,3 °C 78 % 1012,9 hPa 0,0 mm 0,0 km/h (0 Bft) S 191 ° 0 min 0,000 mm 0,0 UV-I 0 W/m² 9,5 °C 13,3 °C 0,0 km/h (0 Bft)
06.07.2019 02:08 13,3 °C 78 % 1013,0 hPa 0,0 mm 0,0 km/h (0 Bft) S 191 ° 0 min 0,000 mm 0,0 UV-I 0 W/m² 9,5 °C 13,3 °C 0,0 km/h (0 Bft)
06.07.2019 02:09 13,3 °C 78 % 1012,9 hPa 0,0 mm 0,0 km/h (0 Bft) S 191 ° 0 min 0,000 mm 0,0 UV-I 0 W/m² 9,5 °C 13,3 °C 0,0 km/h (0 Bft)
06.07.2019 02:10 13,3 °C 78 % 1012,9 hPa 0,0 mm 0,0 km/h (0 Bft) S 191 ° 0 min 0,000 mm 0,0 UV-I 0 W/m² 9,5 °C 13,3 °C 0,0 km/h (0 Bft)
06.07.2019 02:11 13,2 °C 78 % 1012,9 hPa 0,0 mm 0,0 km/h (0 Bft) S 191 ° 0 min 0,000 mm 0,0 UV-I 0 W/m² 9,4 °C 13,2 °C 0,0 km/h (0 Bft)
06.07.2019 02:12 13,2 °C 78 % 1012,9 hPa 0,0 mm 0,0 km/h (0 Bft) S 191 ° 0 min 0,000 mm 0,0 UV-I 0 W/m² 9,4 °C 13,2 °C 0,0 km/h (0 Bft)
06.07.2019 02:13 13,2 °C 78 % 1012,9 hPa 0,0 mm 0,0 km/h (0 Bft) S 191 ° 0 min 0,000 mm 0,0 UV-I 0 W/m² 9,4 °C 13,2 °C 0,0 km/h (0 Bft)
06.07.2019 02:14 13,2 °C 78 % 1012,9 hPa 0,0 mm 0,0 km/h (0 Bft) S 191 ° 0 min 0,000 mm 0,0 UV-I 0 W/m² 9,4 °C 13,2 °C 0,0 km/h (0 Bft)
06.07.2019 02:15 13,2 °C 78 % 1012,9 hPa 0,0 mm 0,0 km/h (0 Bft) S 191 ° 0 min 0,000 mm 0,0 UV-I 0 W/m² 9,4 °C 13,2 °C 0,0 km/h (0 Bft)
06.07.2019 02:16 13,2 °C 78 % 1012,9 hPa 0,0 mm 0,0 km/h (0 Bft) S 191 ° 0 min 0,000 mm 0,0 UV-I 0 W/m² 9,4 °C 13,2 °C 0,0 km/h (0 Bft)
06.07.2019 02:17 13,2 °C 78 % 1012,9 hPa 0,0 mm 0,0 km/h (0 Bft) S 191 ° 0 min 0,000 mm 0,0 UV-I 0 W/m² 9,4 °C 13,2 °C 0,0 km/h (0 Bft)
06.07.2019 02:18 13,2 °C 78 % 1012,8 hPa 0,0 mm 0,0 km/h (0 Bft) S 191 ° 0 min 0,000 mm 0,0 UV-I 0 W/m² 9,4 °C 13,2 °C 0,0 km/h (0 Bft)
06.07.2019 02:19 13,2 °C 78 % 1012,8 hPa 0,0 mm 0,0 km/h (0 Bft) S 191 ° 0 min 0,000 mm 0,0 UV-I 0 W/m² 9,4 °C 13,2 °C 0,0 km/h (0 Bft)
06.07.2019 02:20 13,2 °C 78 % 1012,9 hPa 0,0 mm 0,0 km/h (0 Bft) S 191 ° 0 min 0,000 mm 0,0 UV-I 0 W/m² 9,4 °C 13,2 °C 0,0 km/h (0 Bft)
06.07.2019 02:21 13,2 °C 78 % 1012,9 hPa 0,0 mm 0,0 km/h (0 Bft) S 191 ° 0 min 0,000 mm 0,0 UV-I 0 W/m² 9,4 °C 13,2 °C 0,0 km/h (0 Bft)
06.07.2019 02:22 13,2 °C 78 % 1012,8 hPa 0,0 mm 0,0 km/h (0 Bft) S 191 ° 0 min 0,000 mm 0,0 UV-I 0 W/m² 9,4 °C 13,2 °C 0,0 km/h (0 Bft)
06.07.2019 02:23 13,2 °C 78 % 1012,8 hPa 0,0 mm 0,0 km/h (0 Bft) S 191 ° 0 min 0,000 mm 0,0 UV-I 0 W/m² 9,4 °C 13,2 °C 0,0 km/h (0 Bft)
06.07.2019 02:24 13,2 °C 78 % 1012,8 hPa 0,0 mm 0,0 km/h (0 Bft) S 191 ° 0 min 0,000 mm 0,0 UV-I 0 W/m² 9,4 °C 13,2 °C 0,0 km/h (0 Bft)
06.07.2019 02:25 13,2 °C 78 % 1012,8 hPa 0,0 mm 0,0 km/h (0 Bft) S 191 ° 0 min 0,000 mm 0,0 UV-I 0 W/m² 9,4 °C 13,2 °C 0,0 km/h (0 Bft)
06.07.2019 02:26 13,2 °C 78 % 1012,8 hPa 0,0 mm 0,0 km/h (0 Bft) S 191 ° 0 min 0,000 mm 0,0 UV-I 0 W/m² 9,4 °C 13,2 °C 0,0 km/h (0 Bft)
06.07.2019 02:27 13,2 °C 78 % 1012,8 hPa 0,0 mm 0,0 km/h (0 Bft) S 191 ° 0 min 0,000 mm 0,0 UV-I 0 W/m² 9,4 °C 13,2 °C 0,0 km/h (0 Bft)
06.07.2019 02:28 13,2 °C 78 % 1012,8 hPa 0,0 mm 0,0 km/h (0 Bft) S 191 ° 0 min 0,000 mm 0,0 UV-I 0 W/m² 9,4 °C 13,2 °C 0,0 km/h (0 Bft)
06.07.2019 02:29 13,2 °C 78 % 1012,8 hPa 0,0 mm 0,0 km/h (0 Bft) S 191 ° 0 min 0,000 mm 0,0 UV-I 0 W/m² 9,4 °C 13,2 °C 0,0 km/h (0 Bft)
06.07.2019 02:30 13,2 °C 78 % 1012,8 hPa 0,0 mm 0,0 km/h (0 Bft) S 191 ° 0 min 0,000 mm 0,0 UV-I 0 W/m² 9,4 °C 13,2 °C 0,0 km/h (0 Bft)
06.07.2019 02:31 13,2 °C 78 % 1012,8 hPa 0,0 mm 0,0 km/h (0 Bft) S 191 ° 0 min 0,000 mm 0,0 UV-I 0 W/m² 9,4 °C 13,2 °C 0,0 km/h (0 Bft)
06.07.2019 02:32 13,1 °C 78 % 1012,8 hPa 0,0 mm 0,0 km/h (0 Bft) S 191 ° 0 min 0,000 mm 0,0 UV-I 0 W/m² 9,4 °C 13,1 °C 0,0 km/h (0 Bft)
06.07.2019 02:33 13,1 °C 78 % 1012,8 hPa 0,0 mm 0,0 km/h (0 Bft) S 191 ° 0 min 0,000 mm 0,0 UV-I 0 W/m² 9,4 °C 13,1 °C 0,0 km/h (0 Bft)
06.07.2019 02:34 12,9 °C 79 % 1012,8 hPa 0,0 mm 0,0 km/h (0 Bft) S 191 ° 0 min 0,000 mm 0,0 UV-I 0 W/m² 9,3 °C 12,9 °C 0,0 km/h (0 Bft)
06.07.2019 02:35 12,9 °C 79 % 1012,8 hPa 0,0 mm 0,0 km/h (0 Bft) S 191 ° 0 min 0,000 mm 0,0 UV-I 0 W/m² 9,3 °C 12,9 °C 0,0 km/h (0 Bft)
06.07.2019 02:36 12,9 °C 79 % 1012,8 hPa 0,0 mm 0,0 km/h (0 Bft) S 191 ° 0 min 0,000 mm 0,0 UV-I 0 W/m² 9,3 °C 12,9 °C 0,0 km/h (0 Bft)
06.07.2019 02:37 12,8 °C 78 % 1012,7 hPa 0,0 mm 0,0 km/h (0 Bft) S 191 ° 0 min 0,000 mm 0,0 UV-I 0 W/m² 9,1 °C 12,8 °C 0,0 km/h (0 Bft)
06.07.2019 02:38 12,8 °C 78 % 1012,7 hPa 0,0 mm 0,0 km/h (0 Bft) S 191 ° 0 min 0,000 mm 0,0 UV-I 0 W/m² 9,1 °C 12,8 °C 0,0 km/h (0 Bft)
06.07.2019 02:39 12,8 °C 78 % 1012,7 hPa 0,0 mm 0,0 km/h (0 Bft) S 191 ° 0 min 0,000 mm 0,0 UV-I 0 W/m² 9,1 °C 12,8 °C 0,0 km/h (0 Bft)
06.07.2019 02:40 12,8 °C 78 % 1012,7 hPa 0,0 mm 0,0 km/h (0 Bft) S 191 ° 0 min 0,000 mm 0,0 UV-I 0 W/m² 9,1 °C 12,8 °C 0,0 km/h (0 Bft)
06.07.2019 02:41 12,8 °C 79 % 1012,7 hPa 0,0 mm 0,0 km/h (0 Bft) S 191 ° 0 min 0,000 mm 0,0 UV-I 0 W/m² 9,2 °C 12,8 °C 0,0 km/h (0 Bft)
06.07.2019 02:42 12,8 °C 79 % 1012,7 hPa 0,0 mm 0,0 km/h (0 Bft) S 191 ° 0 min 0,000 mm 0,0 UV-I 0 W/m² 9,2 °C 12,8 °C 0,0 km/h (0 Bft)
06.07.2019 02:43 12,9 °C 79 % 1012,6 hPa 0,0 mm 0,0 km/h (0 Bft) S 191 ° 0 min 0,000 mm 0,0 UV-I 0 W/m² 9,3 °C 12,9 °C 0,0 km/h (0 Bft)
06.07.2019 02:44 12,9 °C 79 % 1012,6 hPa 0,0 mm 0,0 km/h (0 Bft) S 191 ° 0 min 0,000 mm 0,0 UV-I 0 W/m² 9,3 °C 12,9 °C 0,0 km/h (0 Bft)
06.07.2019 02:45 13,0 °C 77 % 1012,6 hPa 0,0 mm 0,0 km/h (0 Bft) S 191 ° 0 min 0,000 mm 0,0 UV-I 0 W/m² 9,1 °C 13,0 °C 0,0 km/h (0 Bft)
06.07.2019 02:46 12,9 °C 78 % 1012,6 hPa 0,0 mm 0,0 km/h (0 Bft) S 191 ° 0 min 0,000 mm 0,0 UV-I 0 W/m² 9,2 °C 12,9 °C 0,0 km/h (0 Bft)
06.07.2019 02:47 12,9 °C 78 % 1012,6 hPa 0,0 mm 0,0 km/h (0 Bft) S 191 ° 0 min 0,000 mm 0,0 UV-I 0 W/m² 9,2 °C 12,9 °C 0,0 km/h (0 Bft)
06.07.2019 02:48 12,8 °C 78 % 1012,6 hPa 0,0 mm 0,0 km/h (0 Bft) S 191 ° 0 min 0,000 mm 0,0 UV-I 0 W/m² 9,1 °C 12,8 °C 0,0 km/h (0 Bft)
06.07.2019 02:49 12,8 °C 78 % 1012,6 hPa 0,0 mm 0,0 km/h (0 Bft) S 191 ° 0 min 0,000 mm 0,0 UV-I 0 W/m² 9,1 °C 12,8 °C 0,0 km/h (0 Bft)
06.07.2019 02:50 12,7 °C 78 % 1012,6 hPa 0,0 mm 0,0 km/h (0 Bft) S 191 ° 0 min 0,000 mm 0,0 UV-I 0 W/m² 9,0 °C 12,7 °C 0,0 km/h (0 Bft)
06.07.2019 02:51 12,6 °C 80 % 1012,6 hPa 0,0 mm 0,0 km/h (0 Bft) S 191 ° 0 min 0,000 mm 0,0 UV-I 0 W/m² 9,2 °C 12,6 °C 0,0 km/h (0 Bft)
06.07.2019 02:52 12,5 °C 80 % 1012,6 hPa 0,0 mm 0,0 km/h (0 Bft) S 191 ° 0 min 0,000 mm 0,0 UV-I 0 W/m² 9,1 °C 12,5 °C 0,0 km/h (0 Bft)
06.07.2019 02:53 12,4 °C 81 % 1012,5 hPa 0,0 mm 0,0 km/h (0 Bft) S 191 ° 0 min 0,000 mm 0,0 UV-I 0 W/m² 9,2 °C 12,4 °C 0,0 km/h (0 Bft)
06.07.2019 02:54 12,4 °C 81 % 1012,5 hPa 0,0 mm 0,0 km/h (0 Bft) S 191 ° 0 min 0,000 mm 0,0 UV-I 0 W/m² 9,2 °C 12,4 °C 0,0 km/h (0 Bft)
06.07.2019 02:55 12,4 °C 81 % 1012,5 hPa 0,0 mm 0,0 km/h (0 Bft) S 191 ° 0 min 0,000 mm 0,0 UV-I 0 W/m² 9,2 °C 12,4 °C 0,0 km/h (0 Bft)
06.07.2019 02:56 12,4 °C 81 % 1012,5 hPa 0,0 mm 0,0 km/h (0 Bft) S 191 ° 0 min 0,000 mm 0,0 UV-I 0 W/m² 9,2 °C 12,4 °C 0,0 km/h (0 Bft)
06.07.2019 02:57 12,4 °C 81 % 1012,5 hPa 0,0 mm 0,0 km/h (0 Bft) S 191 ° 0 min 0,000 mm 0,0 UV-I 0 W/m² 9,2 °C 12,4 °C 0,0 km/h (0 Bft)
06.07.2019 02:58 12,4 °C 80 % 1012,5 hPa 0,0 mm 0,0 km/h (0 Bft) S 191 ° 0 min 0,000 mm 0,0 UV-I 0 W/m² 9,0 °C 12,4 °C 0,0 km/h (0 Bft)
06.07.2019 02:59 12,4 °C 80 % 1012,5 hPa 0,0 mm 0,0 km/h (0 Bft) S 191 ° 0 min 0,000 mm 0,0 UV-I 0 W/m² 9,0 °C 12,4 °C 0,0 km/h (0 Bft)
06.07.2019 03:00 12,4 °C 80 % 1012,5 hPa 0,0 mm 0,0 km/h (0 Bft) S 191 ° 0 min 0,025 mm 0,0 UV-I 0 W/m² 9,0 °C 12,4 °C 0,0 km/h (0 Bft)
06.07.2019 03:01 12,3 °C 80 % 1012,4 hPa 0,0 mm 0,0 km/h (0 Bft) S 191 ° 0 min 0,000 mm 0,0 UV-I 0 W/m² 8,9 °C 12,3 °C 0,0 km/h (0 Bft)
06.07.2019 03:02 12,3 °C 81 % 1012,4 hPa 0,0 mm 0,0 km/h (0 Bft) S 191 ° 0 min 0,000 mm 0,0 UV-I 0 W/m² 9,1 °C 12,3 °C 0,0 km/h (0 Bft)
06.07.2019 03:03 12,3 °C 81 % 1012,3 hPa 0,0 mm 0,0 km/h (0 Bft) S 191 ° 0 min 0,000 mm 0,0 UV-I 0 W/m² 9,1 °C 12,3 °C 0,0 km/h (0 Bft)
06.07.2019 03:04 12,3 °C 81 % 1012,3 hPa 0,0 mm 0,0 km/h (0 Bft) S 191 ° 0 min 0,000 mm 0,0 UV-I 0 W/m² 9,1 °C 12,3 °C 0,0 km/h (0 Bft)
06.07.2019 03:05 12,3 °C 81 % 1012,3 hPa 0,0 mm 0,0 km/h (0 Bft) S 191 ° 0 min 0,000 mm 0,0 UV-I 0 W/m² 9,1 °C 12,3 °C 0,0 km/h (0 Bft)
06.07.2019 03:06 12,2 °C 81 % 1012,3 hPa 0,0 mm 0,0 km/h (0 Bft) S 191 ° 0 min 0,000 mm 0,0 UV-I 0 W/m² 9,0 °C 12,2 °C 0,0 km/h (0 Bft)
06.07.2019 03:07 12,2 °C 81 % 1012,3 hPa 0,0 mm 0,0 km/h (0 Bft) S 191 ° 0 min 0,000 mm 0,0 UV-I 0 W/m² 9,0 °C 12,2 °C 0,0 km/h (0 Bft)
06.07.2019 03:08 12,2 °C 81 % 1012,3 hPa 0,0 mm 0,0 km/h (0 Bft) S 191 ° 0 min 0,000 mm 0,0 UV-I 0 W/m² 9,0 °C 12,2 °C 0,0 km/h (0 Bft)
06.07.2019 03:09 12,2 °C 81 % 1012,3 hPa 0,0 mm 0,0 km/h (0 Bft) S 191 ° 0 min 0,000 mm 0,0 UV-I 0 W/m² 9,0 °C 12,2 °C 0,0 km/h (0 Bft)
06.07.2019 03:10 12,2 °C 81 % 1012,2 hPa 0,0 mm 0,0 km/h (0 Bft) S 191 ° 0 min 0,000 mm 0,0 UV-I 0 W/m² 9,0 °C 12,2 °C 0,0 km/h (0 Bft)
06.07.2019 03:11 12,2 °C 81 % 1012,2 hPa 0,0 mm 0,0 km/h (0 Bft) S 191 ° 0 min 0,000 mm 0,0 UV-I 0 W/m² 9,0 °C 12,2 °C 0,0 km/h (0 Bft)
06.07.2019 03:12 12,1 °C 81 % 1012,2 hPa 0,0 mm 0,0 km/h (0 Bft) S 191 ° 0 min 0,000 mm 0,0 UV-I 0 W/m² 8,9 °C 12,1 °C 0,0 km/h (0 Bft)
06.07.2019 03:13 12,2 °C 81 % 1012,2 hPa 0,0 mm 0,0 km/h (0 Bft) S 191 ° 0 min 0,000 mm 0,0 UV-I 0 W/m² 9,0 °C 12,2 °C 0,0 km/h (0 Bft)
06.07.2019 03:14 12,1 °C 80 % 1012,2 hPa 0,0 mm 0,0 km/h (0 Bft) S 191 ° 0 min 0,000 mm 0,0 UV-I 0 W/m² 8,8 °C 12,1 °C 0,0 km/h (0 Bft)
06.07.2019 03:15 12,2 °C 81 % 1012,2 hPa 0,0 mm 0,0 km/h (0 Bft) S 191 ° 0 min 0,000 mm 0,0 UV-I 0 W/m² 9,0 °C 12,2 °C 0,0 km/h (0 Bft)
06.07.2019 03:16 12,2 °C 80 % 1012,2 hPa 0,0 mm 0,0 km/h (0 Bft) S 191 ° 0 min 0,000 mm 0,0 UV-I 0 W/m² 8,9 °C 12,2 °C 0,0 km/h (0 Bft)
06.07.2019 03:17 12,2 °C 80 % 1012,2 hPa 0,0 mm 0,0 km/h (0 Bft) S 191 ° 0 min 0,000 mm 0,0 UV-I 0 W/m² 8,9 °C 12,2 °C 0,0 km/h (0 Bft)
06.07.2019 03:18 12,2 °C 80 % 1012,2 hPa 0,0 mm 0,0 km/h (0 Bft) S 191 ° 0 min 0,000 mm 0,0 UV-I 0 W/m² 8,9 °C 12,2 °C 0,0 km/h (0 Bft)
06.07.2019 03:19 12,2 °C 80 % 1012,1 hPa 0,0 mm 0,0 km/h (0 Bft) S 191 ° 0 min 0,000 mm 0,0 UV-I 0 W/m² 8,9 °C 12,2 °C 0,0 km/h (0 Bft)
06.07.2019 03:20 12,1 °C 81 % 1012,1 hPa 0,0 mm 0,0 km/h (0 Bft) S 191 ° 0 min 0,000 mm 0,0 UV-I 0 W/m² 8,9 °C 12,1 °C 0,0 km/h (0 Bft)
06.07.2019 03:21 12,1 °C 81 % 1012,1 hPa 0,0 mm 0,0 km/h (0 Bft) S 191 ° 0 min 0,000 mm 0,0 UV-I 0 W/m² 8,9 °C 12,1 °C 0,0 km/h (0 Bft)
06.07.2019 03:22 12,1 °C 81 % 1012,1 hPa 0,0 mm 0,0 km/h (0 Bft) S 191 ° 0 min 0,000 mm 0,0 UV-I 0 W/m² 8,9 °C 12,1 °C 0,0 km/h (0 Bft)
06.07.2019 03:23 12,1 °C 81 % 1012,1 hPa 0,0 mm 0,0 km/h (0 Bft) S 191 ° 0 min 0,000 mm 0,0 UV-I 0 W/m² 8,9 °C 12,1 °C 0,0 km/h (0 Bft)
06.07.2019 03:24 12,1 °C 81 % 1012,1 hPa 0,0 mm 0,0 km/h (0 Bft) S 191 ° 0 min 0,000 mm 0,0 UV-I 0 W/m² 8,9 °C 12,1 °C 0,0 km/h (0 Bft)
06.07.2019 03:25 12,1 °C 80 % 1012,1 hPa 0,0 mm 0,0 km/h (0 Bft) S 191 ° 0 min 0,000 mm 0,0 UV-I 0 W/m² 8,8 °C 12,1 °C 0,0 km/h (0 Bft)
06.07.2019 03:26 12,1 °C 81 % 1012,1 hPa 0,0 mm 0,0 km/h (0 Bft) S 191 ° 0 min 0,000 mm 0,0 UV-I 0 W/m² 8,9 °C 12,1 °C 0,0 km/h (0 Bft)
06.07.2019 03:27 12,1 °C 81 % 1012,1 hPa 0,0 mm 0,0 km/h (0 Bft) S 191 ° 0 min 0,000 mm 0,0 UV-I 0 W/m² 8,9 °C 12,1 °C 0,0 km/h (0 Bft)
06.07.2019 03:28 12,0 °C 81 % 1012,1 hPa 0,0 mm 0,0 km/h (0 Bft) S 191 ° 0 min 0,000 mm 0,0 UV-I 0 W/m² 8,8 °C 12,0 °C 0,0 km/h (0 Bft)
06.07.2019 03:29 12,0 °C 81 % 1012,1 hPa 0,0 mm 0,0 km/h (0 Bft) S 191 ° 0 min 0,000 mm 0,0 UV-I 0 W/m² 8,8 °C 12,0 °C 0,0 km/h (0 Bft)
06.07.2019 03:30 11,9 °C 81 % 1012,1 hPa 0,0 mm 0,0 km/h (0 Bft) S 191 ° 0 min 0,000 mm 0,0 UV-I 0 W/m² 8,7 °C 11,9 °C 0,0 km/h (0 Bft)
06.07.2019 03:31 11,9 °C 81 % 1012,1 hPa 0,0 mm 0,0 km/h (0 Bft) S 191 ° 0 min 0,000 mm 0,0 UV-I 0 W/m² 8,7 °C 11,9 °C 0,0 km/h (0 Bft)
06.07.2019 03:32 12,0 °C 81 % 1012,1 hPa 0,0 mm 0,0 km/h (0 Bft) S 191 ° 0 min 0,000 mm 0,0 UV-I 0 W/m² 8,8 °C 12,0 °C 0,0 km/h (0 Bft)
06.07.2019 03:33 12,0 °C 81 % 1012,0 hPa 0,0 mm 0,0 km/h (0 Bft) S 191 ° 0 min 0,000 mm 0,0 UV-I 0 W/m² 8,8 °C 12,0 °C 0,0 km/h (0 Bft)
06.07.2019 03:34 12,1 °C 81 % 1012,0 hPa 0,0 mm 0,0 km/h (0 Bft) S 191 ° 0 min 0,000 mm 0,0 UV-I 0 W/m² 8,9 °C 12,1 °C 0,0 km/h (0 Bft)
06.07.2019 03:35 11,9 °C 80 % 1012,0 hPa 0,0 mm 0,0 km/h (0 Bft) S 191 ° 0 min 0,000 mm 0,0 UV-I 0 W/m² 8,6 °C 11,9 °C 0,0 km/h (0 Bft)
06.07.2019 03:36 11,9 °C 80 % 1012,0 hPa 0,0 mm 0,0 km/h (0 Bft) S 191 ° 0 min 0,000 mm 0,0 UV-I 0 W/m² 8,6 °C 11,9 °C 0,0 km/h (0 Bft)
06.07.2019 03:37 12,0 °C 81 % 1012,0 hPa 0,0 mm 0,0 km/h (0 Bft) S 191 ° 0 min 0,000 mm 0,0 UV-I 0 W/m² 8,8 °C 12,0 °C 0,0 km/h (0 Bft)
06.07.2019 03:38 12,0 °C 81 % 1012,0 hPa 0,0 mm 0,0 km/h (0 Bft) S 191 ° 0 min 0,000 mm 0,0 UV-I 0 W/m² 8,8 °C 12,0 °C 0,0 km/h (0 Bft)
06.07.2019 03:39 12,1 °C 80 % 1012,0 hPa 0,0 mm 0,0 km/h (0 Bft) S 191 ° 0 min 0,000 mm 0,0 UV-I 0 W/m² 8,8 °C 12,1 °C 0,0 km/h (0 Bft)
06.07.2019 03:40 12,1 °C 80 % 1012,0 hPa 0,0 mm 0,0 km/h (0 Bft) S 191 ° 0 min 0,000 mm 0,0 UV-I 0 W/m² 8,8 °C 12,1 °C 0,0 km/h (0 Bft)
06.07.2019 03:41 12,1 °C 80 % 1012,0 hPa 0,0 mm 0,0 km/h (0 Bft) S 191 ° 0 min 0,000 mm 0,0 UV-I 0 W/m² 8,8 °C 12,1 °C 0,0 km/h (0 Bft)
06.07.2019 03:42 12,1 °C 80 % 1012,0 hPa 0,0 mm 0,0 km/h (0 Bft) S 191 ° 0 min 0,000 mm 0,0 UV-I 0 W/m² 8,8 °C 12,1 °C 0,0 km/h (0 Bft)
06.07.2019 03:43 12,1 °C 80 % 1012,0 hPa 0,0 mm 0,0 km/h (0 Bft) S 191 ° 0 min 0,000 mm 0,0 UV-I 0 W/m² 8,8 °C 12,1 °C 0,0 km/h (0 Bft)
06.07.2019 03:44 12,1 °C 80 % 1012,0 hPa 0,0 mm 0,0 km/h (0 Bft) S 191 ° 0 min 0,000 mm 0,0 UV-I 0 W/m² 8,8 °C 12,1 °C 0,0 km/h (0 Bft)
06.07.2019 03:45 12,1 °C 80 % 1011,9 hPa 0,0 mm 0,0 km/h (0 Bft) S 191 ° 0 min 0,000 mm 0,0 UV-I 0 W/m² 8,8 °C 12,1 °C 0,0 km/h (0 Bft)
06.07.2019 03:46 12,2 °C 80 % 1011,9 hPa 0,0 mm 0,0 km/h (0 Bft) S 191 ° 0 min 0,000 mm 0,0 UV-I 0 W/m² 8,9 °C 12,2 °C 0,0 km/h (0 Bft)
06.07.2019 03:47 12,1 °C 80 % 1011,9 hPa 0,0 mm 0,0 km/h (0 Bft) S 191 ° 0 min 0,000 mm 0,0 UV-I 0 W/m² 8,8 °C 12,1 °C 0,0 km/h (0 Bft)
06.07.2019 03:48 12,1 °C 79 % 1011,9 hPa 0,0 mm 0,0 km/h (0 Bft) S 191 ° 0 min 0,000 mm 0,0 UV-I 0 W/m² 8,6 °C 12,1 °C 0,0 km/h (0 Bft)
06.07.2019 03:49 12,1 °C 80 % 1011,9 hPa 0,0 mm 0,0 km/h (0 Bft) S 191 ° 0 min 0,000 mm 0,0 UV-I 0 W/m² 8,8 °C 12,1 °C 0,0 km/h (0 Bft)
06.07.2019 03:50 12,1 °C 80 % 1011,9 hPa 0,0 mm 0,0 km/h (0 Bft) S 191 ° 0 min 0,000 mm 0,0 UV-I 0 W/m² 8,8 °C 12,1 °C 0,0 km/h (0 Bft)
06.07.2019 03:51 12,0 °C 80 % 1011,9 hPa 0,0 mm 0,0 km/h (0 Bft) S 191 ° 0 min 0,000 mm 0,0 UV-I 0 W/m² 8,7 °C 12,0 °C 0,0 km/h (0 Bft)
06.07.2019 03:52 12,1 °C 80 % 1011,8 hPa 0,0 mm 0,0 km/h (0 Bft) S 191 ° 0 min 0,000 mm 0,0 UV-I 0 W/m² 8,8 °C 12,1 °C 0,0 km/h (0 Bft)
06.07.2019 03:53 12,1 °C 80 % 1011,8 hPa 0,0 mm 0,0 km/h (0 Bft) S 191 ° 0 min 0,000 mm 0,0 UV-I 0 W/m² 8,8 °C 12,1 °C 0,0 km/h (0 Bft)
06.07.2019 03:54 12,1 °C 80 % 1011,8 hPa 0,0 mm 0,0 km/h (0 Bft) S 191 ° 0 min 0,000 mm 0,0 UV-I 0 W/m² 8,8 °C 12,1 °C 0,0 km/h (0 Bft)
06.07.2019 03:55 12,1 °C 80 % 1011,8 hPa 0,0 mm 0,0 km/h (0 Bft) S 191 ° 0 min 0,000 mm 0,0 UV-I 0 W/m² 8,8 °C 12,1 °C 0,0 km/h (0 Bft)
06.07.2019 03:56 12,1 °C 80 % 1011,9 hPa 0,0 mm 0,0 km/h (0 Bft) S 191 ° 0 min 0,000 mm 0,0 UV-I 0 W/m² 8,8 °C 12,1 °C 0,0 km/h (0 Bft)
06.07.2019 03:57 12,1 °C 80 % 1011,8 hPa 0,0 mm 0,0 km/h (0 Bft) S 191 ° 0 min 0,000 mm 0,0 UV-I 0 W/m² 8,8 °C 12,1 °C 0,0 km/h (0 Bft)
06.07.2019 03:58 12,0 °C 80 % 1011,8 hPa 0,0 mm 0,0 km/h (0 Bft) S 191 ° 0 min 0,000 mm 0,0 UV-I 0 W/m² 8,7 °C 12,0 °C 0,0 km/h (0 Bft)
06.07.2019 03:59 12,0 °C 81 % 1011,8 hPa 0,0 mm 0,0 km/h (0 Bft) S 191 ° 0 min 0,000 mm 0,0 UV-I 0 W/m² 8,8 °C 12,0 °C 0,0 km/h (0 Bft)
06.07.2019 04:00 12,0 °C 81 % 1011,8 hPa 0,0 mm 0,0 km/h (0 Bft) S 191 ° 0 min 0,026 mm 0,0 UV-I 0 W/m² 8,8 °C 12,0 °C 0,0 km/h (0 Bft)
06.07.2019 04:01 12,1 °C 80 % 1011,8 hPa 0,0 mm 0,0 km/h (0 Bft) S 191 ° 0 min 0,000 mm 0,0 UV-I 0 W/m² 8,8 °C 12,1 °C 0,0 km/h (0 Bft)
06.07.2019 04:02 12,1 °C 80 % 1011,7 hPa 0,0 mm 0,0 km/h (0 Bft) S 191 ° 0 min 0,000 mm 0,0 UV-I 0 W/m² 8,8 °C 12,1 °C 0,0 km/h (0 Bft)
06.07.2019 04:03 12,1 °C 80 % 1011,7 hPa 0,0 mm 0,0 km/h (0 Bft) S 191 ° 0 min 0,000 mm 0,0 UV-I 0 W/m² 8,8 °C 12,1 °C 0,0 km/h (0 Bft)
06.07.2019 04:04 12,1 °C 80 % 1011,8 hPa 0,0 mm 0,0 km/h (0 Bft) S 191 ° 0 min 0,000 mm 0,0 UV-I 0 W/m² 8,8 °C 12,1 °C 0,0 km/h (0 Bft)
06.07.2019 04:05 12,1 °C 80 % 1011,7 hPa 0,0 mm 0,0 km/h (0 Bft) S 191 ° 0 min 0,000 mm 0,0 UV-I 0 W/m² 8,8 °C 12,1 °C 0,0 km/h (0 Bft)
06.07.2019 04:06 12,0 °C 80 % 1011,7 hPa 0,0 mm 0,0 km/h (0 Bft) S 191 ° 0 min 0,000 mm 0,0 UV-I 0 W/m² 8,7 °C 12,0 °C 0,0 km/h (0 Bft)
06.07.2019 04:07 11,9 °C 80 % 1011,6 hPa 0,0 mm 0,0 km/h (0 Bft) S 191 ° 0 min 0,000 mm 0,0 UV-I 0 W/m² 8,6 °C 11,9 °C 0,0 km/h (0 Bft)
06.07.2019 04:08 11,9 °C 80 % 1011,6 hPa 0,0 mm 0,0 km/h (0 Bft) S 191 ° 0 min 0,000 mm 0,0 UV-I 0 W/m² 8,6 °C 11,9 °C 0,0 km/h (0 Bft)
06.07.2019 04:09 12,0 °C 80 % 1011,6 hPa 0,0 mm 0,0 km/h (0 Bft) S 191 ° 0 min 0,000 mm 0,0 UV-I 0 W/m² 8,7 °C 12,0 °C 0,0 km/h (0 Bft)
06.07.2019 04:10 12,0 °C 80 % 1011,6 hPa 0,0 mm 0,0 km/h (0 Bft) S 191 ° 0 min 0,000 mm 0,0 UV-I 0 W/m² 8,7 °C 12,0 °C 0,0 km/h (0 Bft)
06.07.2019 04:11 11,9 °C 80 % 1011,6 hPa 0,0 mm 0,0 km/h (0 Bft) S 191 ° 0 min 0,000 mm 0,0 UV-I 0 W/m² 8,6 °C 11,9 °C 0,0 km/h (0 Bft)
06.07.2019 04:12 11,9 °C 80 % 1011,6 hPa 0,0 mm 0,0 km/h (0 Bft) S 191 ° 0 min 0,000 mm 0,0 UV-I 0 W/m² 8,6 °C 11,9 °C 0,0 km/h (0 Bft)
06.07.2019 04:13 12,0 °C 79 % 1011,6 hPa 0,0 mm 0,0 km/h (0 Bft) S 191 ° 0 min 0,000 mm 0,0 UV-I 0 W/m² 8,5 °C 12,0 °C 0,0 km/h (0 Bft)
06.07.2019 04:14 12,0 °C 79 % 1011,6 hPa 0,0 mm 0,0 km/h (0 Bft) S 191 ° 0 min 0,000 mm 0,0 UV-I 0 W/m² 8,5 °C 12,0 °C 0,0 km/h (0 Bft)
06.07.2019 04:15 12,0 °C 80 % 1011,6 hPa 0,0 mm 0,0 km/h (0 Bft) S 191 ° 0 min 0,000 mm 0,0 UV-I 0 W/m² 8,7 °C 12,0 °C 0,0 km/h (0 Bft)
06.07.2019 04:16 11,9 °C 80 % 1011,6 hPa 0,0 mm 0,0 km/h (0 Bft) S 191 ° 0 min 0,000 mm 0,0 UV-I 0 W/m² 8,6 °C 11,9 °C 0,0 km/h (0 Bft)
06.07.2019 04:17 11,9 °C 80 % 1011,6 hPa 0,0 mm 0,0 km/h (0 Bft) S 191 ° 0 min 0,000 mm 0,0 UV-I 0 W/m² 8,6 °C 11,9 °C 0,0 km/h (0 Bft)
06.07.2019 04:18 11,9 °C 80 % 1011,6 hPa 0,0 mm 0,0 km/h (0 Bft) S 191 ° 0 min 0,000 mm 0,0 UV-I 0 W/m² 8,6 °C 11,9 °C 0,0 km/h (0 Bft)
06.07.2019 04:19 11,9 °C 80 % 1011,6 hPa 0,0 mm 0,0 km/h (0 Bft) S 191 ° 0 min 0,000 mm 0,0 UV-I 0 W/m² 8,6 °C 11,9 °C 0,0 km/h (0 Bft)
06.07.2019 04:20 11,9 °C 80 % 1011,5 hPa 0,0 mm 0,0 km/h (0 Bft) S 191 ° 0 min 0,000 mm 0,0 UV-I 0 W/m² 8,6 °C 11,9 °C 0,0 km/h (0 Bft)
06.07.2019 04:21 11,9 °C 80 % 1011,5 hPa 0,0 mm 0,0 km/h (0 Bft) S 191 ° 0 min 0,000 mm 0,0 UV-I 0 W/m² 8,6 °C 11,9 °C 0,0 km/h (0 Bft)
06.07.2019 04:22 11,8 °C 80 % 1011,6 hPa 0,0 mm 0,0 km/h (0 Bft) S 191 ° 0 min 0,000 mm 0,0 UV-I 0 W/m² 8,5 °C 11,8 °C 0,0 km/h (0 Bft)
06.07.2019 04:23 11,8 °C 80 % 1011,6 hPa 0,0 mm 0,0 km/h (0 Bft) S 191 ° 0 min 0,000 mm 0,0 UV-I 0 W/m² 8,5 °C 11,8 °C 0,0 km/h (0 Bft)
06.07.2019 04:24 11,8 °C 80 % 1011,6 hPa 0,0 mm 0,0 km/h (0 Bft) S 191 ° 0 min 0,000 mm 0,0 UV-I 0 W/m² 8,5 °C 11,8 °C 0,0 km/h (0 Bft)
06.07.2019 04:25 11,8 °C 80 % 1011,6 hPa 0,0 mm 0,0 km/h (0 Bft) S 191 ° 0 min 0,000 mm 0,0 UV-I 0 W/m² 8,5 °C 11,8 °C 0,0 km/h (0 Bft)
06.07.2019 04:26 11,8 °C 80 % 1011,6 hPa 0,0 mm 0,0 km/h (0 Bft) S 191 ° 0 min 0,000 mm 0,0 UV-I 0 W/m² 8,5 °C 11,8 °C 0,0 km/h (0 Bft)
06.07.2019 04:27 11,8 °C 80 % 1011,5 hPa 0,0 mm 0,0 km/h (0 Bft) S 191 ° 0 min 0,000 mm 0,0 UV-I 0 W/m² 8,5 °C 11,8 °C 0,0 km/h (0 Bft)
06.07.2019 04:28 11,8 °C 80 % 1011,6 hPa 0,0 mm 0,0 km/h (0 Bft) S 191 ° 0 min 0,000 mm 0,0 UV-I 0 W/m² 8,5 °C 11,8 °C 0,0 km/h (0 Bft)
06.07.2019 04:29 11,8 °C 80 % 1011,6 hPa 0,0 mm 0,0 km/h (0 Bft) S 191 ° 0 min 0,000 mm 0,0 UV-I 0 W/m² 8,5 °C 11,8 °C 0,0 km/h (0 Bft)
06.07.2019 04:30 11,8 °C 80 % 1011,5 hPa 0,0 mm 0,0 km/h (0 Bft) S 191 ° 0 min 0,000 mm 0,0 UV-I 0 W/m² 8,5 °C 11,8 °C 0,0 km/h (0 Bft)
06.07.2019 04:31 11,8 °C 80 % 1011,5 hPa 0,0 mm 0,0 km/h (0 Bft) S 191 ° 0 min 0,000 mm 0,0 UV-I 0 W/m² 8,5 °C 11,8 °C 0,0 km/h (0 Bft)
06.07.2019 04:32 11,8 °C 80 % 1011,5 hPa 0,0 mm 0,0 km/h (0 Bft) S 191 ° 0 min 0,000 mm 0,0 UV-I 0 W/m² 8,5 °C 11,8 °C 0,0 km/h (0 Bft)
06.07.2019 04:33 11,8 °C 80 % 1011,6 hPa 0,0 mm 0,0 km/h (0 Bft) S 191 ° 0 min 0,000 mm 0,0 UV-I 0 W/m² 8,5 °C 11,8 °C 0,0 km/h (0 Bft)
06.07.2019 04:34 11,8 °C 80 % 1011,6 hPa 0,0 mm 0,0 km/h (0 Bft) S 191 ° 0 min 0,000 mm 0,0 UV-I 0 W/m² 8,5 °C 11,8 °C 0,0 km/h (0 Bft)
06.07.2019 04:35 11,8 °C 80 % 1011,6 hPa 0,0 mm 0,0 km/h (0 Bft) S 191 ° 0 min 0,000 mm 0,0 UV-I 0 W/m² 8,5 °C 11,8 °C 0,0 km/h (0 Bft)
06.07.2019 04:36 11,8 °C 80 % 1011,6 hPa 0,0 mm 0,0 km/h (0 Bft) S 191 ° 0 min 0,000 mm 0,0 UV-I 0 W/m² 8,5 °C 11,8 °C 0,0 km/h (0 Bft)
06.07.2019 04:37 11,9 °C 80 % 1011,6 hPa 0,0 mm 0,0 km/h (0 Bft) S 191 ° 0 min 0,000 mm 0,0 UV-I 0 W/m² 8,6 °C 11,9 °C 0,0 km/h (0 Bft)
06.07.2019 04:38 11,8 °C 80 % 1011,6 hPa 0,0 mm 0,0 km/h (0 Bft) S 191 ° 0 min 0,000 mm 0,0 UV-I 0 W/m² 8,5 °C 11,8 °C 0,0 km/h (0 Bft)
06.07.2019 04:39 11,9 °C 80 % 1011,6 hPa 0,0 mm 0,0 km/h (0 Bft) S 191 ° 0 min 0,000 mm 0,0 UV-I 0 W/m² 8,6 °C 11,9 °C 0,0 km/h (0 Bft)
06.07.2019 04:40 11,9 °C 79 % 1011,6 hPa 0,0 mm 0,0 km/h (0 Bft) S 191 ° 0 min 0,000 mm 0,0 UV-I 0 W/m² 8,4 °C 11,9 °C 0,0 km/h (0 Bft)
06.07.2019 04:41 11,9 °C 79 % 1011,6 hPa 0,0 mm 0,0 km/h (0 Bft) S 191 ° 0 min 0,000 mm 0,0 UV-I 0 W/m² 8,4 °C 11,9 °C 0,0 km/h (0 Bft)
06.07.2019 04:42 11,9 °C 79 % 1011,6 hPa 0,0 mm 0,0 km/h (0 Bft) S 191 ° 0 min 0,000 mm 0,0 UV-I 0 W/m² 8,4 °C 11,9 °C 0,0 km/h (0 Bft)
06.07.2019 04:43 11,9 °C 79 % 1011,6 hPa 0,0 mm 0,0 km/h (0 Bft) S 191 ° 0 min 0,000 mm 0,0 UV-I 0 W/m² 8,4 °C 11,9 °C 0,0 km/h (0 Bft)
06.07.2019 04:44 11,9 °C 79 % 1011,6 hPa 0,0 mm 0,0 km/h (0 Bft) S 191 ° 0 min 0,000 mm 0,0 UV-I 0 W/m² 8,4 °C 11,9 °C 0,0 km/h (0 Bft)
06.07.2019 04:45 11,8 °C 79 % 1011,6 hPa 0,0 mm 0,0 km/h (0 Bft) S 191 ° 0 min 0,000 mm 0,0 UV-I 0 W/m² 8,3 °C 11,8 °C 0,0 km/h (0 Bft)
06.07.2019 04:46 11,9 °C 79 % 1011,6 hPa 0,0 mm 0,0 km/h (0 Bft) S 191 ° 0 min 0,000 mm 0,0 UV-I 0 W/m² 8,4 °C 11,9 °C 0,0 km/h (0 Bft)
06.07.2019 04:47 11,8 °C 79 % 1011,6 hPa 0,0 mm 0,0 km/h (0 Bft) S 191 ° 0 min 0,000 mm 0,0 UV-I 0 W/m² 8,3 °C 11,8 °C 0,0 km/h (0 Bft)
06.07.2019 04:48 11,8 °C 79 % 1011,6 hPa 0,0 mm 0,0 km/h (0 Bft) S 191 ° 0 min 0,000 mm 0,0 UV-I 0 W/m² 8,3 °C 11,8 °C 0,0 km/h (0 Bft)
06.07.2019 04:49 11,8 °C 79 % 1011,5 hPa 0,0 mm 0,0 km/h (0 Bft) S 191 ° 0 min 0,000 mm 0,0 UV-I 0 W/m² 8,3 °C 11,8 °C 0,0 km/h (0 Bft)
06.07.2019 04:50 11,7 °C 80 % 1011,5 hPa 0,0 mm 0,0 km/h (0 Bft) S 191 ° 0 min 0,000 mm 0,0 UV-I 0 W/m² 8,4 °C 11,7 °C 0,0 km/h (0 Bft)
06.07.2019 04:51 11,7 °C 80 % 1011,5 hPa 0,0 mm 0,0 km/h (0 Bft) S 191 ° 0 min 0,000 mm 0,0 UV-I 0 W/m² 8,4 °C 11,7 °C 0,0 km/h (0 Bft)
06.07.2019 04:52 11,7 °C 79 % 1011,5 hPa 0,0 mm 0,0 km/h (0 Bft) S 191 ° 0 min 0,000 mm 0,0 UV-I 0 W/m² 8,2 °C 11,7 °C 0,0 km/h (0 Bft)
06.07.2019 04:53 11,7 °C 79 % 1011,5 hPa 0,0 mm 0,0 km/h (0 Bft) S 191 ° 0 min 0,000 mm 0,0 UV-I 0 W/m² 8,2 °C 11,7 °C 0,0 km/h (0 Bft)
06.07.2019 04:54 11,7 °C 79 % 1011,5 hPa 0,0 mm 0,0 km/h (0 Bft) S 191 ° 0 min 0,000 mm 0,0 UV-I 0 W/m² 8,2 °C 11,7 °C 0,0 km/h (0 Bft)
06.07.2019 04:55 11,7 °C 80 % 1011,5 hPa 0,0 mm 0,0 km/h (0 Bft) S 191 ° 0 min 0,000 mm 0,0 UV-I 0 W/m² 8,4 °C 11,7 °C 0,0 km/h (0 Bft)
06.07.2019 04:56 11,6 °C 80 % 1011,6 hPa 0,0 mm 0,0 km/h (0 Bft) S 191 ° 0 min 0,000 mm 0,0 UV-I 0 W/m² 8,3 °C 11,6 °C 0,0 km/h (0 Bft)
06.07.2019 04:57 11,6 °C 80 % 1011,5 hPa 0,0 mm 0,0 km/h (0 Bft) S 191 ° 0 min 0,000 mm 0,0 UV-I 0 W/m² 8,3 °C 11,6 °C 0,0 km/h (0 Bft)
06.07.2019 04:58 11,6 °C 80 % 1011,5 hPa 0,0 mm 0,0 km/h (0 Bft) S 191 ° 0 min 0,000 mm 0,0 UV-I 0 W/m² 8,3 °C 11,6 °C 0,0 km/h (0 Bft)
06.07.2019 04:59 11,7 °C 80 % 1011,5 hPa 0,0 mm 0,0 km/h (0 Bft) S 191 ° 0 min 0,000 mm 0,0 UV-I 0 W/m² 8,4 °C 11,7 °C 0,0 km/h (0 Bft)
06.07.2019 05:00 11,7 °C 80 % 1011,5 hPa 0,0 mm 0,0 km/h (0 Bft) S 191 ° 0 min 0,025 mm 0,0 UV-I 0 W/m² 8,4 °C 11,7 °C 0,0 km/h (0 Bft)
06.07.2019 05:01 11,6 °C 80 % 1011,5 hPa 0,0 mm 0,0 km/h (0 Bft) S 191 ° 0 min 0,000 mm 0,0 UV-I 0 W/m² 8,3 °C 11,6 °C 0,0 km/h (0 Bft)
06.07.2019 05:02 11,6 °C 81 % 1011,5 hPa 0,0 mm 0,0 km/h (0 Bft) S 191 ° 0 min 0,000 mm 0,0 UV-I 0 W/m² 8,5 °C 11,6 °C 0,0 km/h (0 Bft)
06.07.2019 05:03 11,6 °C 81 % 1011,4 hPa 0,0 mm 0,0 km/h (0 Bft) S 191 ° 0 min 0,000 mm 0,0 UV-I 0 W/m² 8,5 °C 11,6 °C 0,0 km/h (0 Bft)
06.07.2019 05:04 11,7 °C 81 % 1011,4 hPa 0,0 mm 0,0 km/h (0 Bft) S 191 ° 0 min 0,000 mm 0,0 UV-I 0 W/m² 8,5 °C 11,7 °C 0,0 km/h (0 Bft)
06.07.2019 05:05 11,8 °C 80 % 1011,4 hPa 0,0 mm 0,0 km/h (0 Bft) S 191 ° 0 min 0,000 mm 0,0 UV-I 0 W/m² 8,5 °C 11,8 °C 0,0 km/h (0 Bft)
06.07.2019 05:06 11,9 °C 79 % 1011,4 hPa 0,0 mm 0,0 km/h (0 Bft) S 191 ° 0 min 0,000 mm 0,0 UV-I 0 W/m² 8,4 °C 11,9 °C 0,0 km/h (0 Bft)
06.07.2019 05:07 11,9 °C 79 % 1011,4 hPa 0,0 mm 0,0 km/h (0 Bft) S 191 ° 0 min 0,000 mm 0,0 UV-I 0 W/m² 8,4 °C 11,9 °C 0,0 km/h (0 Bft)
06.07.2019 05:08 11,9 °C 79 % 1011,5 hPa 0,0 mm 0,0 km/h (0 Bft) S 191 ° 0 min 0,000 mm 0,0 UV-I 0 W/m² 8,4 °C 11,9 °C 0,0 km/h (0 Bft)
06.07.2019 05:09 11,9 °C 79 % 1011,5 hPa 0,0 mm 0,0 km/h (0 Bft) S 191 ° 0 min 0,000 mm 0,0 UV-I 0 W/m² 8,4 °C 11,9 °C 0,0 km/h (0 Bft)
06.07.2019 05:10 11,8 °C 80 % 1011,5 hPa 0,0 mm 0,0 km/h (0 Bft) S 191 ° 0 min 0,000 mm 0,0 UV-I 0 W/m² 8,5 °C 11,8 °C 0,0 km/h (0 Bft)
06.07.2019 05:11 11,8 °C 80 % 1011,5 hPa 0,0 mm 0,0 km/h (0 Bft) S 191 ° 0 min 0,000 mm 0,0 UV-I 0 W/m² 8,5 °C 11,8 °C 0,0 km/h (0 Bft)
06.07.2019 05:12 11,7 °C 80 % 1011,4 hPa 0,0 mm 0,0 km/h (0 Bft) S 191 ° 0 min 0,000 mm 0,0 UV-I 0 W/m² 8,4 °C 11,7 °C 0,0 km/h (0 Bft)
06.07.2019 05:13 11,7 °C 80 % 1011,4 hPa 0,0 mm 0,0 km/h (0 Bft) S 191 ° 0 min 0,000 mm 0,0 UV-I 0 W/m² 8,4 °C 11,7 °C 0,0 km/h (0 Bft)
06.07.2019 05:14 11,8 °C 80 % 1011,4 hPa 0,0 mm 0,0 km/h (0 Bft) S 191 ° 0 min 0,000 mm 0,0 UV-I 0 W/m² 8,5 °C 11,8 °C 0,0 km/h (0 Bft)
06.07.2019 05:15 11,8 °C 80 % 1011,4 hPa 0,0 mm 0,0 km/h (0 Bft) S 191 ° 0 min 0,000 mm 0,0 UV-I 0 W/m² 8,5 °C 11,8 °C 0,0 km/h (0 Bft)
06.07.2019 05:16 11,8 °C 79 % 1011,4 hPa 0,0 mm 0,0 km/h (0 Bft) S 191 ° 0 min 0,000 mm 0,0 UV-I 0 W/m² 8,3 °C 11,8 °C 0,0 km/h (0 Bft)
06.07.2019 05:17 11,7 °C 80 % 1011,4 hPa 0,0 mm 0,0 km/h (0 Bft) S 191 ° 0 min 0,000 mm 0,0 UV-I 0 W/m² 8,4 °C 11,7 °C 0,0 km/h (0 Bft)
06.07.2019 05:18 11,6 °C 80 % 1011,3 hPa 0,0 mm 0,0 km/h (0 Bft) S 191 ° 0 min 0,000 mm 0,0 UV-I 0 W/m² 8,3 °C 11,6 °C 0,0 km/h (0 Bft)
06.07.2019 05:19 11,6 °C 80 % 1011,4 hPa 0,0 mm 0,0 km/h (0 Bft) S 191 ° 0 min 0,000 mm 0,0 UV-I 0 W/m² 8,3 °C 11,6 °C 0,0 km/h (0 Bft)
06.07.2019 05:20 11,5 °C 81 % 1011,3 hPa 0,0 mm 0,0 km/h (0 Bft) S 191 ° 0 min 0,000 mm 0,0 UV-I 0 W/m² 8,4 °C 11,5 °C 0,0 km/h (0 Bft)
06.07.2019 05:21 11,5 °C 81 % 1011,4 hPa 0,0 mm 0,0 km/h (0 Bft) S 191 ° 0 min 0,000 mm 0,0 UV-I 5 W/m² 8,4 °C 11,5 °C 0,0 km/h (0 Bft)
06.07.2019 05:22 11,5 °C 81 % 1011,4 hPa 0,0 mm 0,0 km/h (0 Bft) S 191 ° 0 min 0,000 mm 0,0 UV-I 5 W/m² 8,4 °C 11,5 °C 0,0 km/h (0 Bft)
06.07.2019 05:23 11,4 °C 81 % 1011,4 hPa 0,0 mm 0,0 km/h (0 Bft) S 191 ° 0 min 0,000 mm 0,0 UV-I 5 W/m² 8,3 °C 11,4 °C 0,0 km/h (0 Bft)
06.07.2019 05:24 11,4 °C 81 % 1011,3 hPa 0,0 mm 0,0 km/h (0 Bft) S 191 ° 0 min 0,000 mm 0,0 UV-I 5 W/m² 8,3 °C 11,4 °C 0,0 km/h (0 Bft)
06.07.2019 05:25 11,4 °C 82 % 1011,3 hPa 0,0 mm 0,0 km/h (0 Bft) S 191 ° 0 min 0,000 mm 0,0 UV-I 5 W/m² 8,4 °C 11,4 °C 0,0 km/h (0 Bft)
06.07.2019 05:26 11,5 °C 81 % 1011,3 hPa 0,0 mm 0,0 km/h (0 Bft) S 191 ° 0 min 0,000 mm 0,0 UV-I 5 W/m² 8,4 °C 11,5 °C 0,0 km/h (0 Bft)
06.07.2019 05:27 11,5 °C 81 % 1011,3 hPa 0,0 mm 0,0 km/h (0 Bft) S 191 ° 0 min 0,000 mm 0,0 UV-I 5 W/m² 8,4 °C 11,5 °C 0,0 km/h (0 Bft)
06.07.2019 05:28 11,6 °C 81 % 1011,3 hPa 0,0 mm 0,0 km/h (0 Bft) S 191 ° 0 min 0,000 mm 0,0 UV-I 5 W/m² 8,5 °C 11,6 °C 0,0 km/h (0 Bft)
06.07.2019 05:29 11,6 °C 81 % 1011,2 hPa 0,0 mm 0,0 km/h (0 Bft) S 191 ° 0 min 0,000 mm 0,0 UV-I 5 W/m² 8,5 °C 11,6 °C 0,0 km/h (0 Bft)
06.07.2019 05:30 11,6 °C 81 % 1011,2 hPa 0,0 mm 0,0 km/h (0 Bft) S 191 ° 0 min 0,000 mm 0,0 UV-I 5 W/m² 8,5 °C 11,6 °C 0,0 km/h (0 Bft)
06.07.2019 05:31 11,6 °C 81 % 1011,3 hPa 0,0 mm 0,0 km/h (0 Bft) S 191 ° 0 min 0,000 mm 0,0 UV-I 7 W/m² 8,5 °C 11,6 °C 0,0 km/h (0 Bft)
06.07.2019 05:32 11,6 °C 81 % 1011,3 hPa 0,0 mm 0,0 km/h (0 Bft) S 191 ° 0 min 0,000 mm 0,0 UV-I 7 W/m² 8,5 °C 11,6 °C 0,0 km/h (0 Bft)
06.07.2019 05:33 11,6 °C 81 % 1011,3 hPa 0,0 mm 0,0 km/h (0 Bft) S 191 ° 0 min 0,000 mm 0,0 UV-I 7 W/m² 8,5 °C 11,6 °C 0,0 km/h (0 Bft)
06.07.2019 05:34 11,5 °C 81 % 1011,3 hPa 0,0 mm 0,0 km/h (0 Bft) S 191 ° 0 min 0,000 mm 0,0 UV-I 7 W/m² 8,4 °C 11,5 °C 0,0 km/h (0 Bft)
06.07.2019 05:35 11,4 °C 82 % 1011,3 hPa 0,0 mm 0,0 km/h (0 Bft) S 191 ° 0 min 0,000 mm 0,0 UV-I 9 W/m² 8,4 °C 11,4 °C 0,0 km/h (0 Bft)
06.07.2019 05:36 11,4 °C 82 % 1011,3 hPa 0,0 mm 0,0 km/h (0 Bft) S 191 ° 0 min 0,000 mm 0,0 UV-I 9 W/m² 8,4 °C 11,4 °C 0,0 km/h (0 Bft)
06.07.2019 05:37 11,4 °C 82 % 1011,2 hPa 0,0 mm 0,0 km/h (0 Bft) S 191 ° 0 min 0,000 mm 0,0 UV-I 9 W/m² 8,4 °C 11,4 °C 0,0 km/h (0 Bft)
06.07.2019 05:38 11,5 °C 81 % 1011,2 hPa 0,0 mm 0,0 km/h (0 Bft) S 191 ° 0 min 0,000 mm 0,0 UV-I 11 W/m² 8,4 °C 11,5 °C 0,0 km/h (0 Bft)
06.07.2019 05:39 11,5 °C 81 % 1011,2 hPa 0,0 mm 0,0 km/h (0 Bft) S 191 ° 0 min 0,000 mm 0,0 UV-I 11 W/m² 8,4 °C 11,5 °C 0,0 km/h (0 Bft)
06.07.2019 05:40 11,5 °C 81 % 1011,3 hPa 0,0 mm 0,0 km/h (0 Bft) S 191 ° 0 min 0,000 mm 0,0 UV-I 11 W/m² 8,4 °C 11,5 °C 0,0 km/h (0 Bft)
06.07.2019 05:41 11,6 °C 81 % 1011,2 hPa 0,0 mm 0,0 km/h (0 Bft) S 191 ° 0 min 0,000 mm 0,0 UV-I 11 W/m² 8,5 °C 11,6 °C 0,0 km/h (0 Bft)
06.07.2019 05:42 11,6 °C 81 % 1011,2 hPa 0,0 mm 0,0 km/h (0 Bft) S 191 ° 0 min 0,000 mm 0,0 UV-I 12 W/m² 8,5 °C 11,6 °C 0,0 km/h (0 Bft)
06.07.2019 05:43 11,6 °C 81 % 1011,3 hPa 0,0 mm 0,0 km/h (0 Bft) S 191 ° 0 min 0,000 mm 0,0 UV-I 12 W/m² 8,5 °C 11,6 °C 0,0 km/h (0 Bft)
06.07.2019 05:44 11,5 °C 81 % 1011,3 hPa 0,0 mm 0,0 km/h (0 Bft) S 191 ° 0 min 0,000 mm 0,0 UV-I 14 W/m² 8,4 °C 11,5 °C 0,0 km/h (0 Bft)
06.07.2019 05:45 11,4 °C 82 % 1011,2 hPa 0,0 mm 0,0 km/h (0 Bft) S 191 ° 0 min 0,000 mm 0,0 UV-I 14 W/m² 8,4 °C 11,4 °C 0,0 km/h (0 Bft)
06.07.2019 05:46 11,4 °C 82 % 1011,2 hPa 0,0 mm 0,0 km/h (0 Bft) S 191 ° 0 min 0,000 mm 0,0 UV-I 14 W/m² 8,4 °C 11,4 °C 0,0 km/h (0 Bft)
06.07.2019 05:47 11,4 °C 82 % 1011,2 hPa 0,0 mm 0,0 km/h (0 Bft) S 191 ° 0 min 0,000 mm 0,0 UV-I 16 W/m² 8,4 °C 11,4 °C 0,0 km/h (0 Bft)
06.07.2019 05:48 11,4 °C 82 % 1011,2 hPa 0,0 mm 0,0 km/h (0 Bft) S 191 ° 0 min 0,000 mm 0,0 UV-I 16 W/m² 8,4 °C 11,4 °C 0,0 km/h (0 Bft)
06.07.2019 05:49 11,4 °C 82 % 1011,2 hPa 0,0 mm 0,0 km/h (0 Bft) S 191 ° 0 min 0,000 mm 0,0 UV-I 19 W/m² 8,4 °C 11,4 °C 0,0 km/h (0 Bft)
06.07.2019 05:50 11,4 °C 82 % 1011,2 hPa 0,0 mm 0,0 km/h (0 Bft) S 191 ° 0 min 0,000 mm 0,0 UV-I 21 W/m² 8,4 °C 11,4 °C 0,0 km/h (0 Bft)
06.07.2019 05:51 11,4 °C 82 % 1011,2 hPa 0,0 mm 0,0 km/h (0 Bft) S 191 ° 0 min 0,000 mm 0,0 UV-I 21 W/m² 8,4 °C 11,4 °C 0,0 km/h (0 Bft)
06.07.2019 05:52 11,3 °C 82 % 1011,2 hPa 0,0 mm 0,0 km/h (0 Bft) S 191 ° 0 min 0,000 mm 0,0 UV-I 21 W/m² 8,3 °C 11,3 °C 0,0 km/h (0 Bft)
06.07.2019 05:53 11,3 °C 82 % 1011,1 hPa 0,0 mm 0,0 km/h (0 Bft) S 191 ° 0 min 0,000 mm 0,0 UV-I 21 W/m² 8,3 °C 11,3 °C 0,0 km/h (0 Bft)
06.07.2019 05:54 11,3 °C 82 % 1011,1 hPa 0,0 mm 0,9 km/h (0 Bft) S 191 ° 0 min 0,000 mm 0,0 UV-I 23 W/m² 8,3 °C 11,3 °C 3,2 km/h (1 Bft)
06.07.2019 05:55 11,4 °C 83 % 1011,1 hPa 0,0 mm 0,0 km/h (0 Bft) S 191 ° 0 min 0,000 mm 0,0 UV-I 23 W/m² 8,6 °C 11,4 °C 0,0 km/h (0 Bft)
06.07.2019 05:56 11,5 °C 83 % 1011,1 hPa 0,0 mm 0,8 km/h (0 Bft) S-SW 192 ° 0 min 0,000 mm 0,0 UV-I 23 W/m² 8,7 °C 11,5 °C 3,2 km/h (1 Bft)
06.07.2019 05:57 11,4 °C 83 % 1011,1 hPa 0,0 mm 0,6 km/h (0 Bft) S 186 ° 0 min 0,000 mm 0,0 UV-I 25 W/m² 8,6 °C 11,4 °C 1,6 km/h (1 Bft)
06.07.2019 05:58 11,4 °C 82 % 1011,1 hPa 0,0 mm 0,0 km/h (0 Bft) S 186 ° 0 min 0,000 mm 0,0 UV-I 25 W/m² 8,4 °C 11,4 °C 0,0 km/h (0 Bft)
06.07.2019 05:59 11,3 °C 83 % 1011,1 hPa 0,0 mm 0,0 km/h (0 Bft) S 186 ° 0 min 0,000 mm 0,0 UV-I 25 W/m² 8,5 °C 11,3 °C 0,0 km/h (0 Bft)
06.07.2019 06:00 11,3 °C 83 % 1011,1 hPa 0,0 mm 0,0 km/h (0 Bft) S 186 ° 0 min 0,000 mm 0,0 UV-I 25 W/m² 8,5 °C 11,3 °C 0,0 km/h (0 Bft)
06.07.2019 06:01 11,3 °C 83 % 1011,0 hPa 0,0 mm 0,0 km/h (0 Bft) S 186 ° 0 min 0,000 mm 0,0 UV-I 25 W/m² 8,5 °C 11,3 °C 0,0 km/h (0 Bft)
06.07.2019 06:02 11,3 °C 83 % 1011,0 hPa 0,0 mm 0,0 km/h (0 Bft) S 186 ° 0 min 0,000 mm 0,0 UV-I 26 W/m² 8,5 °C 11,3 °C 0,0 km/h (0 Bft)
06.07.2019 06:03 11,3 °C 83 % 1011,1 hPa 0,0 mm 0,0 km/h (0 Bft) S 186 ° 0 min 0,000 mm 0,0 UV-I 26 W/m² 8,5 °C 11,3 °C 0,0 km/h (0 Bft)
06.07.2019 06:04 11,4 °C 83 % 1011,1 hPa 0,0 mm 0,0 km/h (0 Bft) S 186 ° 0 min 0,000 mm 0,0 UV-I 26 W/m² 8,6 °C 11,4 °C 0,0 km/h (0 Bft)
06.07.2019 06:05 11,4 °C 83 % 1011,1 hPa 0,0 mm 0,0 km/h (0 Bft) S 186 ° 0 min 0,000 mm 0,0 UV-I 28 W/m² 8,6 °C 11,4 °C 0,0 km/h (0 Bft)
06.07.2019 06:06 11,5 °C 83 % 1011,1 hPa 0,0 mm 0,0 km/h (0 Bft) S 186 ° 0 min 0,000 mm 0,0 UV-I 30 W/m² 8,7 °C 11,5 °C 0,0 km/h (0 Bft)
06.07.2019 06:07 11,4 °C 83 % 1011,1 hPa 0,0 mm 0,0 km/h (0 Bft) S 186 ° 0 min 0,000 mm 0,0 UV-I 33 W/m² 8,6 °C 11,4 °C 0,0 km/h (0 Bft)
06.07.2019 06:08 11,5 °C 83 % 1011,1 hPa 0,0 mm 0,0 km/h (0 Bft) S 186 ° 0 min 0,000 mm 0,0 UV-I 35 W/m² 8,7 °C 11,5 °C 0,0 km/h (0 Bft)
06.07.2019 06:09 11,5 °C 83 % 1011,1 hPa 0,0 mm 0,0 km/h (0 Bft) S 186 ° 0 min 0,000 mm 0,0 UV-I 35 W/m² 8,7 °C 11,5 °C 0,0 km/h (0 Bft)
06.07.2019 06:10 11,6 °C 83 % 1011,1 hPa 0,0 mm 0,1 km/h (0 Bft) S-SW 212 ° 0 min 0,000 mm 0,0 UV-I 37 W/m² 8,8 °C 11,6 °C 1,6 km/h (1 Bft)
06.07.2019 06:11 11,6 °C 83 % 1011,0 hPa 0,0 mm 0,0 km/h (0 Bft) S-SW 212 ° 0 min 0,000 mm 0,0 UV-I 39 W/m² 8,8 °C 11,6 °C 0,0 km/h (0 Bft)
06.07.2019 06:12 11,7 °C 82 % 1011,1 hPa 0,0 mm 0,0 km/h (0 Bft) S-SW 212 ° 0 min 0,000 mm 0,0 UV-I 40 W/m² 8,7 °C 11,7 °C 0,0 km/h (0 Bft)
06.07.2019 06:13 11,8 °C 82 % 1011,1 hPa 0,0 mm 0,0 km/h (0 Bft) S-SW 212 ° 0 min 0,000 mm 0,0 UV-I 42 W/m² 8,8 °C 11,8 °C 0,0 km/h (0 Bft)
06.07.2019 06:14 11,9 °C 82 % 1011,0 hPa 0,0 mm 0,0 km/h (0 Bft) S-SW 212 ° 0 min 0,000 mm 0,0 UV-I 42 W/m² 8,9 °C 11,9 °C 0,0 km/h (0 Bft)
06.07.2019 06:15 11,9 °C 82 % 1011,0 hPa 0,0 mm 0,0 km/h (0 Bft) S-SW 212 ° 0 min 0,000 mm 0,0 UV-I 44 W/m² 8,9 °C 11,9 °C 0,0 km/h (0 Bft)
06.07.2019 06:16 12,1 °C 81 % 1011,0 hPa 0,0 mm 0,0 km/h (0 Bft) S-SW 212 ° 0 min 0,000 mm 0,0 UV-I 44 W/m² 8,9 °C 12,1 °C 0,0 km/h (0 Bft)
06.07.2019 06:17 12,1 °C 81 % 1011,1 hPa 0,0 mm 0,0 km/h (0 Bft) S-SW 212 ° 0 min 0,000 mm 0,0 UV-I 47 W/m² 8,9 °C 12,1 °C 0,0 km/h (0 Bft)
06.07.2019 06:18 12,1 °C 81 % 1011,1 hPa 0,0 mm 0,0 km/h (0 Bft) S-SW 212 ° 0 min 0,000 mm 0,0 UV-I 49 W/m² 8,9 °C 12,1 °C 0,0 km/h (0 Bft)
06.07.2019 06:19 12,2 °C 80 % 1011,0 hPa 0,0 mm 0,0 km/h (0 Bft) S-SW 212 ° 0 min 0,000 mm 0,0 UV-I 51 W/m² 8,9 °C 12,2 °C 0,0 km/h (0 Bft)
06.07.2019 06:20 12,2 °C 81 % 1011,1 hPa 0,0 mm 0,0 km/h (0 Bft) S-SW 212 ° 0 min 0,000 mm 0,0 UV-I 53 W/m² 9,0 °C 12,2 °C 0,0 km/h (0 Bft)
06.07.2019 06:21 12,2 °C 81 % 1011,1 hPa 0,0 mm 0,0 km/h (0 Bft) S-SW 212 ° 0 min 0,000 mm 0,0 UV-I 54 W/m² 9,0 °C 12,2 °C 0,0 km/h (0 Bft)
06.07.2019 06:22 12,3 °C 80 % 1011,1 hPa 0,0 mm 0,0 km/h (0 Bft) S-SW 212 ° 0 min 0,000 mm 0,0 UV-I 56 W/m² 8,9 °C 12,3 °C 0,0 km/h (0 Bft)
06.07.2019 06:23 12,3 °C 80 % 1011,1 hPa 0,0 mm 0,0 km/h (0 Bft) S-SW 212 ° 0 min 0,000 mm 0,0 UV-I 58 W/m² 8,9 °C 12,3 °C 0,0 km/h (0 Bft)
06.07.2019 06:24 12,3 °C 81 % 1011,1 hPa 0,0 mm 0,0 km/h (0 Bft) S-SW 213 ° 0 min 0,000 mm 0,0 UV-I 62 W/m² 9,1 °C 12,3 °C 0,0 km/h (0 Bft)
06.07.2019 06:25 12,3 °C 81 % 1011,1 hPa 0,0 mm 0,0 km/h (0 Bft) S-SW 213 ° 0 min 0,000 mm 0,0 UV-I 63 W/m² 9,1 °C 12,3 °C 0,0 km/h (0 Bft)
06.07.2019 06:26 12,3 °C 81 % 1011,1 hPa 0,0 mm 0,0 km/h (0 Bft) S-SW 213 ° 0 min 0,000 mm 0,0 UV-I 63 W/m² 9,1 °C 12,3 °C 0,0 km/h (0 Bft)
06.07.2019 06:27 12,3 °C 81 % 1011,1 hPa 0,0 mm 0,0 km/h (0 Bft) S-SW 213 ° 0 min 0,000 mm 0,0 UV-I 67 W/m² 9,1 °C 12,3 °C 0,0 km/h (0 Bft)
06.07.2019 06:28 12,3 °C 82 % 1011,1 hPa 0,0 mm 0,0 km/h (0 Bft) S-SW 213 ° 0 min 0,000 mm 0,0 UV-I 67 W/m² 9,3 °C 12,3 °C 0,0 km/h (0 Bft)
06.07.2019 06:29 12,2 °C 82 % 1011,1 hPa 0,0 mm 0,0 km/h (0 Bft) S-SW 213 ° 0 min 0,000 mm 0,0 UV-I 69 W/m² 9,2 °C 12,2 °C 0,0 km/h (0 Bft)
06.07.2019 06:30 12,2 °C 82 % 1011,1 hPa 0,0 mm 0,0 km/h (0 Bft) S-SW 213 ° 0 min 0,000 mm 0,0 UV-I 72 W/m² 9,2 °C 12,2 °C 0,0 km/h (0 Bft)
06.07.2019 06:31 12,2 °C 82 % 1011,0 hPa 0,0 mm 0,0 km/h (0 Bft) S-SW 213 ° 0 min 0,000 mm 0,0 UV-I 74 W/m² 9,2 °C 12,2 °C 0,0 km/h (0 Bft)
06.07.2019 06:32 12,2 °C 82 % 1011,1 hPa 0,0 mm 0,0 km/h (0 Bft) S-SW 213 ° 0 min 0,000 mm 0,0 UV-I 76 W/m² 9,2 °C 12,2 °C 0,0 km/h (0 Bft)
06.07.2019 06:33 12,2 °C 82 % 1011,1 hPa 0,0 mm 0,0 km/h (0 Bft) S-SW 213 ° 0 min 0,000 mm 0,0 UV-I 77 W/m² 9,2 °C 12,2 °C 0,0 km/h (0 Bft)
06.07.2019 06:34 12,3 °C 82 % 1011,1 hPa 0,0 mm 0,0 km/h (0 Bft) S-SW 213 ° 0 min 0,000 mm 0,0 UV-I 79 W/m² 9,3 °C 12,3 °C 0,0 km/h (0 Bft)
06.07.2019 06:35 12,3 °C 82 % 1011,1 hPa 0,0 mm 0,0 km/h (0 Bft) S-SW 213 ° 0 min 0,000 mm 0,0 UV-I 83 W/m² 9,3 °C 12,3 °C 0,0 km/h (0 Bft)
06.07.2019 06:36 12,3 °C 82 % 1011,1 hPa 0,0 mm 0,0 km/h (0 Bft) S-SW 213 ° 0 min 0,000 mm 0,0 UV-I 84 W/m² 9,3 °C 12,3 °C 0,0 km/h (0 Bft)
06.07.2019 06:37 12,3 °C 82 % 1011,1 hPa 0,0 mm 0,0 km/h (0 Bft) S-SW 213 ° 0 min 0,000 mm 0,0 UV-I 86 W/m² 9,3 °C 12,3 °C 0,0 km/h (0 Bft)
06.07.2019 06:38 12,5 °C 83 % 1011,1 hPa 0,0 mm 0,0 km/h (0 Bft) S-SW 213 ° 0 min 0,000 mm 0,0 UV-I 88 W/m² 9,7 °C 12,5 °C 0,0 km/h (0 Bft)
06.07.2019 06:39 12,7 °C 84 % 1011,0 hPa 0,0 mm 0,0 km/h (0 Bft) S-SW 213 ° 0 min 0,000 mm 0,0 UV-I 90 W/m² 10,1 °C 12,7 °C 0,0 km/h (0 Bft)
06.07.2019 06:40 13,1 °C 83 % 1011,0 hPa 0,0 mm 2,5 km/h (1 Bft) S-SW 202 ° 0 min 0,000 mm 0,0 UV-I 91 W/m² 10,3 °C 13,1 °C 4,8 km/h (1 Bft)
06.07.2019 06:41 13,4 °C 82 % 1011,0 hPa 0,0 mm 4,1 km/h (1 Bft) S-SW 202 ° 0 min 0,000 mm 0,0 UV-I 93 W/m² 10,4 °C 13,4 °C 6,4 km/h (2 Bft)
06.07.2019 06:42 13,7 °C 81 % 1011,0 hPa 0,0 mm 4,4 km/h (1 Bft) S-SW 194 ° 0 min 0,000 mm 0,0 UV-I 97 W/m² 10,5 °C 13,7 °C 6,4 km/h (2 Bft)
06.07.2019 06:43 13,9 °C 80 % 1011,0 hPa 0,0 mm 4,0 km/h (1 Bft) S 189 ° 0 min 0,000 mm 0,0 UV-I 100 W/m² 10,5 °C 13,9 °C 6,4 km/h (2 Bft)
06.07.2019 06:44 14,1 °C 79 % 1011,0 hPa 0,0 mm 3,8 km/h (1 Bft) S 188 ° 0 min 0,000 mm 0,0 UV-I 102 W/m² 10,5 °C 14,1 °C 4,8 km/h (1 Bft)
06.07.2019 06:45 14,2 °C 77 % 1011,0 hPa 0,0 mm 2,4 km/h (1 Bft) S 188 ° 0 min 0,000 mm 0,0 UV-I 104 W/m² 10,2 °C 14,2 °C 3,2 km/h (1 Bft)
06.07.2019 06:46 14,4 °C 78 % 1011,0 hPa 0,0 mm 0,1 km/h (0 Bft) S 188 ° 0 min 0,000 mm 0,5 UV-I 105 W/m² 10,6 °C 14,4 °C 1,6 km/h (1 Bft)
06.07.2019 06:47 14,5 °C 79 % 1011,0 hPa 0,0 mm 2,8 km/h (1 Bft) W-NW 299 ° 0 min 0,000 mm 0,5 UV-I 111 W/m² 10,9 °C 14,5 °C 4,8 km/h (1 Bft)
06.07.2019 06:48 14,4 °C 78 % 1011,0 hPa 0,0 mm 0,1 km/h (0 Bft) W-NW 299 ° 0 min 0,000 mm 0,5 UV-I 113 W/m² 10,6 °C 14,4 °C 1,6 km/h (1 Bft)
06.07.2019 06:49 14,3 °C 77 % 1011,0 hPa 0,0 mm 0,0 km/h (0 Bft) W-NW 299 ° 0 min 0,000 mm 0,5 UV-I 114 W/m² 10,3 °C 14,3 °C 0,0 km/h (0 Bft)
06.07.2019 06:50 14,3 °C 78 % 1010,9 hPa 0,0 mm 0,0 km/h (0 Bft) W-NW 299 ° 0 min 0,000 mm 0,5 UV-I 116 W/m² 10,5 °C 14,3 °C 0,0 km/h (0 Bft)
06.07.2019 06:51 14,3 °C 79 % 1010,9 hPa 0,0 mm 2,7 km/h (1 Bft) S-SO 147 ° 0 min 0,000 mm 0,5 UV-I 120 W/m² 10,7 °C 14,3 °C 4,8 km/h (1 Bft)
06.07.2019 06:52 14,4 °C 79 % 1010,9 hPa 0,0 mm 0,6 km/h (0 Bft) S-SO 147 ° 0 min 0,000 mm 0,5 UV-I 121 W/m² 10,8 °C 14,4 °C 4,8 km/h (1 Bft)
06.07.2019 06:53 14,4 °C 79 % 1010,9 hPa 0,0 mm 0,0 km/h (0 Bft) S-SO 147 ° 0 min 0,000 mm 0,5 UV-I 127 W/m² 10,8 °C 14,4 °C 0,0 km/h (0 Bft)
06.07.2019 06:54 14,6 °C 81 % 1010,9 hPa 0,0 mm 0,0 km/h (0 Bft) S-SO 147 ° 0 min 0,000 mm 0,5 UV-I 128 W/m² 11,4 °C 14,6 °C 0,0 km/h (0 Bft)
06.07.2019 06:55 14,6 °C 80 % 1011,0 hPa 0,0 mm 0,0 km/h (0 Bft) S-SO 147 ° 0 min 0,000 mm 0,5 UV-I 132 W/m² 11,2 °C 14,6 °C 0,0 km/h (0 Bft)
06.07.2019 06:56 14,6 °C 80 % 1010,9 hPa 0,0 mm 0,0 km/h (0 Bft) S-SO 147 ° 0 min 0,000 mm 0,6 UV-I 134 W/m² 11,2 °C 14,6 °C 0,0 km/h (0 Bft)
06.07.2019 06:57 14,4 °C 80 % 1011,0 hPa 0,0 mm 0,0 km/h (0 Bft) S-SO 147 ° 0 min 0,000 mm 0,6 UV-I 135 W/m² 11,0 °C 14,4 °C 0,0 km/h (0 Bft)
06.07.2019 06:58 14,4 °C 80 % 1010,9 hPa 0,0 mm 0,0 km/h (0 Bft) S-SO 147 ° 0 min 0,000 mm 0,6 UV-I 139 W/m² 11,0 °C 14,4 °C 0,0 km/h (0 Bft)
06.07.2019 06:59 14,4 °C 81 % 1011,0 hPa 0,0 mm 0,0 km/h (0 Bft) S-SO 147 ° 0 min 0,000 mm 0,6 UV-I 144 W/m² 11,2 °C 14,4 °C 0,0 km/h (0 Bft)
06.07.2019 07:00 14,6 °C 81 % 1011,0 hPa 0,0 mm 0,0 km/h (0 Bft) S-SO 147 ° 0 min 0,000 mm 0,6 UV-I 148 W/m² 11,4 °C 14,6 °C 0,0 km/h (0 Bft)
06.07.2019 07:01 14,7 °C 81 % 1011,0 hPa 0,0 mm 0,0 km/h (0 Bft) S-SO 147 ° 0 min 0,051 mm 0,6 UV-I 151 W/m² 11,5 °C 14,7 °C 0,0 km/h (0 Bft)
06.07.2019 07:02 14,7 °C 81 % 1010,9 hPa 0,0 mm 0,0 km/h (0 Bft) S-SO 147 ° 0 min 0,000 mm 0,6 UV-I 153 W/m² 11,5 °C 14,7 °C 0,0 km/h (0 Bft)
06.07.2019 07:03 14,7 °C 80 % 1010,9 hPa 0,0 mm 0,0 km/h (0 Bft) S-SO 147 ° 0 min 0,000 mm 0,6 UV-I 155 W/m² 11,3 °C 14,7 °C 0,0 km/h (0 Bft)
06.07.2019 07:04 14,8 °C 81 % 1010,8 hPa 0,0 mm 0,0 km/h (0 Bft) S-SO 147 ° 0 min 0,000 mm 0,7 UV-I 156 W/m² 11,6 °C 14,8 °C 0,0 km/h (0 Bft)
06.07.2019 07:05 14,9 °C 81 % 1010,9 hPa 0,0 mm 0,0 km/h (0 Bft) S-SO 147 ° 0 min 0,000 mm 0,7 UV-I 162 W/m² 11,7 °C 14,9 °C 0,0 km/h (0 Bft)
06.07.2019 07:06 15,0 °C 81 % 1010,9 hPa 0,0 mm 0,0 km/h (0 Bft) S-SO 147 ° 0 min 0,000 mm 0,7 UV-I 165 W/m² 11,8 °C 15,0 °C 0,0 km/h (0 Bft)
06.07.2019 07:07 15,0 °C 81 % 1010,8 hPa 0,0 mm 0,0 km/h (0 Bft) S-SO 147 ° 0 min 0,000 mm 0,7 UV-I 169 W/m² 11,8 °C 15,0 °C 0,0 km/h (0 Bft)
06.07.2019 07:08 15,0 °C 80 % 1010,9 hPa 0,0 mm 0,0 km/h (0 Bft) S-SO 147 ° 0 min 0,000 mm 0,7 UV-I 172 W/m² 11,6 °C 15,0 °C 0,0 km/h (0 Bft)
06.07.2019 07:09 15,0 °C 80 % 1010,9 hPa 0,0 mm 0,0 km/h (0 Bft) S-SO 147 ° 0 min 0,000 mm 0,7 UV-I 174 W/m² 11,6 °C 15,0 °C 0,0 km/h (0 Bft)
06.07.2019 07:10 14,9 °C 81 % 1010,9 hPa 0,0 mm 0,0 km/h (0 Bft) S-SO 147 ° 0 min 0,000 mm 0,7 UV-I 176 W/m² 11,7 °C 14,9 °C 0,0 km/h (0 Bft)
06.07.2019 07:11 14,9 °C 80 % 1010,9 hPa 0,0 mm 0,0 km/h (0 Bft) S-SO 147 ° 0 min 0,000 mm 0,8 UV-I 179 W/m² 11,5 °C 14,9 °C 0,0 km/h (0 Bft)
06.07.2019 07:12 15,0 °C 79 % 1010,9 hPa 0,0 mm 0,0 km/h (0 Bft) S-SO 147 ° 0 min 0,000 mm 0,8 UV-I 183 W/m² 11,4 °C 15,0 °C 0,0 km/h (0 Bft)
06.07.2019 07:13 15,0 °C 79 % 1010,8 hPa 0,0 mm 0,0 km/h (0 Bft) S-SO 147 ° 0 min 0,000 mm 0,8 UV-I 185 W/m² 11,4 °C 15,0 °C 0,0 km/h (0 Bft)
06.07.2019 07:14 15,1 °C 80 % 1010,8 hPa 0,0 mm 0,0 km/h (0 Bft) S-SO 147 ° 0 min 0,000 mm 0,8 UV-I 186 W/m² 11,7 °C 15,1 °C 0,0 km/h (0 Bft)
06.07.2019 07:15 15,2 °C 80 % 1010,8 hPa 0,0 mm 0,0 km/h (0 Bft) S-SO 147 ° 0 min 0,000 mm 0,8 UV-I 190 W/m² 11,8 °C 15,2 °C 0,0 km/h (0 Bft)
06.07.2019 07:16 15,3 °C 79 % 1010,8 hPa 0,0 mm 0,0 km/h (0 Bft) S-SO 147 ° 0 min 0,000 mm 0,8 UV-I 192 W/m² 11,7 °C 15,3 °C 0,0 km/h (0 Bft)
06.07.2019 07:17 15,4 °C 80 % 1010,8 hPa 0,0 mm 0,0 km/h (0 Bft) S-SO 147 ° 0 min 0,000 mm 0,8 UV-I 195 W/m² 12,0 °C 15,4 °C 0,0 km/h (0 Bft)
06.07.2019 07:18 15,4 °C 78 % 1010,8 hPa 0,0 mm 0,0 km/h (0 Bft) S-SO 147 ° 0 min 0,000 mm 0,9 UV-I 197 W/m² 11,6 °C 15,4 °C 0,0 km/h (0 Bft)
06.07.2019 07:19 15,5 °C 78 % 1010,8 hPa 0,0 mm 0,0 km/h (0 Bft) S-SO 147 ° 0 min 0,000 mm 0,9 UV-I 200 W/m² 11,7 °C 15,5 °C 0,0 km/h (0 Bft)
06.07.2019 07:20 15,4 °C 78 % 1010,8 hPa 0,0 mm 0,0 km/h (0 Bft) S-SO 147 ° 0 min 0,000 mm 0,9 UV-I 204 W/m² 11,6 °C 15,4 °C 0,0 km/h (0 Bft)
06.07.2019 07:21 15,4 °C 77 % 1010,8 hPa 0,0 mm 0,0 km/h (0 Bft) S-SO 147 ° 0 min 0,000 mm 0,9 UV-I 206 W/m² 11,4 °C 15,4 °C 0,0 km/h (0 Bft)
06.07.2019 07:22 15,6 °C 77 % 1010,7 hPa 0,0 mm 0,0 km/h (0 Bft) S-SO 147 ° 0 min 0,000 mm 0,9 UV-I 209 W/m² 11,6 °C 15,6 °C 0,0 km/h (0 Bft)
06.07.2019 07:23 15,7 °C 77 % 1010,7 hPa 0,0 mm 0,0 km/h (0 Bft) S-SO 147 ° 0 min 0,000 mm 0,9 UV-I 213 W/m² 11,7 °C 15,7 °C 0,0 km/h (0 Bft)
06.07.2019 07:24 15,8 °C 80 % 1010,8 hPa 0,0 mm 0,0 km/h (0 Bft) S-SO 147 ° 0 min 0,000 mm 0,9 UV-I 216 W/m² 12,4 °C 15,8 °C 0,0 km/h (0 Bft)
06.07.2019 07:25 16,0 °C 80 % 1010,8 hPa 0,0 mm 0,0 km/h (0 Bft) S-SO 147 ° 0 min 0,000 mm 1,0 UV-I 218 W/m² 12,5 °C 16,0 °C 0,0 km/h (0 Bft)
06.07.2019 07:26 16,1 °C 80 % 1010,7 hPa 0,0 mm 0,0 km/h (0 Bft) S-SO 147 ° 0 min 0,000 mm 1,0 UV-I 221 W/m² 12,6 °C 16,1 °C 0,0 km/h (0 Bft)
06.07.2019 07:27 16,1 °C 78 % 1010,8 hPa 0,0 mm 0,0 km/h (0 Bft) S-SO 147 ° 0 min 0,000 mm 1,0 UV-I 221 W/m² 12,3 °C 16,1 °C 0,0 km/h (0 Bft)
06.07.2019 07:28 15,9 °C 78 % 1010,8 hPa 0,0 mm 0,0 km/h (0 Bft) S-SO 147 ° 0 min 0,000 mm 1,0 UV-I 227 W/m² 12,1 °C 15,9 °C 0,0 km/h (0 Bft)
06.07.2019 07:29 15,9 °C 78 % 1010,8 hPa 0,0 mm 0,0 km/h (0 Bft) S-SO 147 ° 0 min 0,000 mm 1,0 UV-I 229 W/m² 12,1 °C 15,9 °C 0,0 km/h (0 Bft)
06.07.2019 07:30 15,9 °C 78 % 1010,8 hPa 0,0 mm 0,0 km/h (0 Bft) S-SO 147 ° 0 min 0,000 mm 1,0 UV-I 230 W/m² 12,1 °C 15,9 °C 0,0 km/h (0 Bft)
06.07.2019 07:31 16,0 °C 78 % 1010,8 hPa 0,0 mm 0,0 km/h (0 Bft) S-SO 147 ° 0 min 0,000 mm 1,0 UV-I 232 W/m² 12,2 °C 16,0 °C 0,0 km/h (0 Bft)
06.07.2019 07:32 16,1 °C 79 % 1010,7 hPa 0,0 mm 0,0 km/h (0 Bft) S-SO 147 ° 0 min 0,000 mm 1,1 UV-I 234 W/m² 12,5 °C 16,1 °C 0,0 km/h (0 Bft)
06.07.2019 07:33 16,3 °C 79 % 1010,7 hPa 0,0 mm 0,0 km/h (0 Bft) S-SO 147 ° 0 min 0,000 mm 1,1 UV-I 239 W/m² 12,6 °C 16,3 °C 0,0 km/h (0 Bft)
06.07.2019 07:34 16,3 °C 78 % 1010,7 hPa 0,0 mm 0,0 km/h (0 Bft) S-SO 147 ° 0 min 0,000 mm 1,1 UV-I 246 W/m² 12,5 °C 16,3 °C 0,0 km/h (0 Bft)
06.07.2019 07:35 16,4 °C 80 % 1010,8 hPa 0,0 mm 0,0 km/h (0 Bft) S-SO 147 ° 0 min 0,000 mm 1,1 UV-I 248 W/m² 12,9 °C 16,4 °C 0,0 km/h (0 Bft)
06.07.2019 07:36 16,4 °C 79 % 1010,8 hPa 0,0 mm 0,0 km/h (0 Bft) S-SO 147 ° 0 min 0,000 mm 1,1 UV-I 250 W/m² 12,7 °C 16,4 °C 0,0 km/h (0 Bft)
06.07.2019 07:37 16,3 °C 78 % 1010,8 hPa 0,0 mm 0,0 km/h (0 Bft) S-SO 147 ° 0 min 0,000 mm 1,1 UV-I 251 W/m² 12,5 °C 16,3 °C 0,0 km/h (0 Bft)
06.07.2019 07:38 16,3 °C 79 % 1010,8 hPa 0,0 mm 0,0 km/h (0 Bft) S-SO 147 ° 0 min 0,000 mm 1,2 UV-I 253 W/m² 12,6 °C 16,3 °C 0,0 km/h (0 Bft)
06.07.2019 07:39 16,5 °C 79 % 1010,8 hPa 0,0 mm 0,0 km/h (0 Bft) S-SO 147 ° 0 min 0,000 mm 1,2 UV-I 253 W/m² 12,8 °C 16,5 °C 0,0 km/h (0 Bft)
06.07.2019 07:40 16,6 °C 78 % 1010,8 hPa 0,0 mm 0,0 km/h (0 Bft) S-SO 147 ° 0 min 0,000 mm 1,2 UV-I 258 W/m² 12,7 °C 16,6 °C 0,0 km/h (0 Bft)
06.07.2019 07:41 16,8 °C 78 % 1010,8 hPa 0,0 mm 0,0 km/h (0 Bft) S-SO 147 ° 0 min 0,000 mm 1,2 UV-I 262 W/m² 12,9 °C 16,8 °C 0,0 km/h (0 Bft)
06.07.2019 07:42 16,9 °C 77 % 1010,8 hPa 0,0 mm 0,0 km/h (0 Bft) S-SO 147 ° 0 min 0,000 mm 1,2 UV-I 264 W/m² 12,8 °C 16,9 °C 0,0 km/h (0 Bft)
06.07.2019 07:43 17,0 °C 77 % 1010,8 hPa 0,0 mm 0,0 km/h (0 Bft) S-SO 147 ° 0 min 0,000 mm 1,3 UV-I 269 W/m² 12,9 °C 17,0 °C 0,0 km/h (0 Bft)
06.07.2019 07:44 17,1 °C 76 % 1010,8 hPa 0,0 mm 0,0 km/h (0 Bft) S-SO 147 ° 0 min 0,000 mm 1,3 UV-I 272 W/m² 12,8 °C 17,1 °C 0,0 km/h (0 Bft)
06.07.2019 07:45 17,2 °C 75 % 1010,8 hPa 0,0 mm 0,0 km/h (0 Bft) S-SO 147 ° 0 min 0,000 mm 1,3 UV-I 272 W/m² 12,7 °C 17,2 °C 0,0 km/h (0 Bft)
06.07.2019 07:46 17,2 °C 78 % 1010,7 hPa 0,0 mm 0,0 km/h (0 Bft) S-SO 147 ° 0 min 0,000 mm 1,3 UV-I 278 W/m² 13,3 °C 17,2 °C 0,0 km/h (0 Bft)
06.07.2019 07:47 17,1 °C 77 % 1010,7 hPa 0,0 mm 0,0 km/h (0 Bft) S-SO 147 ° 0 min 0,000 mm 1,3 UV-I 279 W/m² 13,0 °C 17,1 °C 0,0 km/h (0 Bft)
06.07.2019 07:48 17,1 °C 79 % 1010,7 hPa 0,0 mm 0,0 km/h (0 Bft) S-SO 147 ° 0 min 0,000 mm 1,3 UV-I 281 W/m² 13,4 °C 17,1 °C 0,0 km/h (0 Bft)
06.07.2019 07:49 17,1 °C 79 % 1010,7 hPa 0,0 mm 0,0 km/h (0 Bft) S-SO 147 ° 0 min 0,000 mm 1,3 UV-I 287 W/m² 13,4 °C 17,1 °C 0,0 km/h (0 Bft)
06.07.2019 07:50 17,2 °C 78 % 1010,8 hPa 0,0 mm 0,0 km/h (0 Bft) S-SO 147 ° 0 min 0,000 mm 1,4 UV-I 292 W/m² 13,3 °C 17,2 °C 0,0 km/h (0 Bft)
06.07.2019 07:51 17,2 °C 79 % 1010,8 hPa 0,0 mm 0,0 km/h (0 Bft) S-SO 147 ° 0 min 0,000 mm 1,4 UV-I 294 W/m² 13,5 °C 17,2 °C 0,0 km/h (0 Bft)
06.07.2019 07:52 17,3 °C 79 % 1010,8 hPa 0,0 mm 0,0 km/h (0 Bft) S-SO 147 ° 0 min 0,000 mm 1,4 UV-I 294 W/m² 13,6 °C 17,3 °C 0,0 km/h (0 Bft)
06.07.2019 07:53 17,3 °C 77 % 1010,7 hPa 0,0 mm 0,0 km/h (0 Bft) S-SO 147 ° 0 min 0,000 mm 1,4 UV-I 299 W/m² 13,2 °C 17,3 °C 0,0 km/h (0 Bft)
06.07.2019 07:54 17,4 °C 78 % 1010,8 hPa 0,0 mm 0,0 km/h (0 Bft) S-SO 147 ° 0 min 0,000 mm 1,4 UV-I 301 W/m² 13,5 °C 17,4 °C 0,0 km/h (0 Bft)
06.07.2019 07:55 17,4 °C 77 % 1010,7 hPa 0,0 mm 0,0 km/h (0 Bft) S-SO 147 ° 0 min 0,000 mm 1,5 UV-I 302 W/m² 13,3 °C 17,4 °C 0,0 km/h (0 Bft)
06.07.2019 07:56 17,5 °C 79 % 1010,7 hPa 0,0 mm 0,0 km/h (0 Bft) S-SO 147 ° 0 min 0,000 mm 1,5 UV-I 306 W/m² 13,8 °C 17,5 °C 0,0 km/h (0 Bft)
06.07.2019 07:57 17,6 °C 78 % 1010,7 hPa 0,0 mm 0,0 km/h (0 Bft) S-SO 147 ° 0 min 0,000 mm 1,5 UV-I 306 W/m² 13,7 °C 17,6 °C 0,0 km/h (0 Bft)
06.07.2019 07:58 17,7 °C 80 % 1010,7 hPa 0,0 mm 0,0 km/h (0 Bft) S-SO 147 ° 0 min 0,000 mm 1,5 UV-I 311 W/m² 14,2 °C 17,7 °C 0,0 km/h (0 Bft)
06.07.2019 07:59 17,8 °C 80 % 1010,7 hPa 0,0 mm 0,0 km/h (0 Bft) S-SO 147 ° 0 min 0,000 mm 1,5 UV-I 313 W/m² 14,3 °C 17,8 °C 0,0 km/h (0 Bft)
06.07.2019 08:00 17,8 °C 80 % 1010,7 hPa 0,0 mm 0,0 km/h (0 Bft) S-SO 147 ° 0 min 0,127 mm 1,5 UV-I 315 W/m² 14,3 °C 17,8 °C 0,0 km/h (0 Bft)
06.07.2019 08:01 17,9 °C 78 % 1010,7 hPa 0,0 mm 0,0 km/h (0 Bft) S-SO 147 ° 0 min 0,000 mm 1,6 UV-I 316 W/m² 14,0 °C 17,9 °C 0,0 km/h (0 Bft)
06.07.2019 08:02 18,1 °C 77 % 1010,7 hPa 0,0 mm 0,0 km/h (0 Bft) S-SO 147 ° 0 min 0,000 mm 1,6 UV-I 320 W/m² 14,0 °C 18,1 °C 0,0 km/h (0 Bft)
06.07.2019 08:03 18,1 °C 77 % 1010,7 hPa 0,0 mm 0,0 km/h (0 Bft) S-SO 147 ° 0 min 0,000 mm 1,6 UV-I 320 W/m² 14,0 °C 18,1 °C 0,0 km/h (0 Bft)
06.07.2019 08:04 18,2 °C 76 % 1010,6 hPa 0,0 mm 0,0 km/h (0 Bft) S-SO 147 ° 0 min 0,000 mm 1,6 UV-I 325 W/m² 13,9 °C 18,2 °C 0,0 km/h (0 Bft)
06.07.2019 08:05 18,3 °C 79 % 1010,7 hPa 0,0 mm 0,0 km/h (0 Bft) S-SO 147 ° 0 min 0,000 mm 1,6 UV-I 330 W/m² 14,6 °C 18,3 °C 0,0 km/h (0 Bft)
06.07.2019 08:06 18,4 °C 79 % 1010,6 hPa 0,0 mm 0,0 km/h (0 Bft) S-SO 147 ° 0 min 0,000 mm 1,7 UV-I 330 W/m² 14,7 °C 18,4 °C 0,0 km/h (0 Bft)
06.07.2019 08:07 18,5 °C 77 % 1010,6 hPa 0,0 mm 0,0 km/h (0 Bft) S-SO 147 ° 0 min 0,000 mm 1,7 UV-I 330 W/m² 14,4 °C 18,5 °C 0,0 km/h (0 Bft)
06.07.2019 08:08 18,6 °C 78 % 1010,6 hPa 0,0 mm 0,0 km/h (0 Bft) S-SO 147 ° 0 min 0,000 mm 1,7 UV-I 336 W/m² 14,7 °C 18,6 °C 0,0 km/h (0 Bft)
06.07.2019 08:09 18,7 °C 81 % 1010,6 hPa 0,0 mm 0,0 km/h (0 Bft) S-SO 147 ° 0 min 0,000 mm 1,7 UV-I 339 W/m² 15,4 °C 18,7 °C 0,0 km/h (0 Bft)
06.07.2019 08:10 18,8 °C 80 % 1010,6 hPa 0,0 mm 0,0 km/h (0 Bft) S-SO 147 ° 0 min 0,000 mm 1,7 UV-I 343 W/m² 15,3 °C 18,8 °C 0,0 km/h (0 Bft)
06.07.2019 08:11 18,8 °C 77 % 1010,6 hPa 0,0 mm 0,0 km/h (0 Bft) S-SO 147 ° 0 min 0,000 mm 1,8 UV-I 346 W/m² 14,7 °C 18,8 °C 0,0 km/h (0 Bft)
06.07.2019 08:12 18,9 °C 77 % 1010,6 hPa 0,0 mm 0,0 km/h (0 Bft) S-SO 147 ° 0 min 0,000 mm 1,8 UV-I 346 W/m² 14,8 °C 18,9 °C 0,0 km/h (0 Bft)
06.07.2019 08:13 19,0 °C 75 % 1010,6 hPa 0,0 mm 0,0 km/h (0 Bft) S-SO 147 ° 0 min 0,000 mm 1,8 UV-I 348 W/m² 14,5 °C 19,0 °C 0,0 km/h (0 Bft)
06.07.2019 08:14 19,1 °C 75 % 1010,6 hPa 0,0 mm 0,0 km/h (0 Bft) S-SO 147 ° 0 min 0,000 mm 1,8 UV-I 353 W/m² 14,6 °C 19,1 °C 0,0 km/h (0 Bft)
06.07.2019 08:15 19,1 °C 75 % 1010,6 hPa 0,0 mm 0,0 km/h (0 Bft) S-SO 147 ° 0 min 0,000 mm 1,8 UV-I 359 W/m² 14,6 °C 19,1 °C 0,0 km/h (0 Bft)
06.07.2019 08:16 19,3 °C 78 % 1010,6 hPa 0,0 mm 0,0 km/h (0 Bft) S-SO 148 ° 0 min 0,000 mm 1,9 UV-I 364 W/m² 15,4 °C 19,3 °C 0,0 km/h (0 Bft)
06.07.2019 08:17 19,4 °C 75 % 1010,6 hPa 0,0 mm 0,0 km/h (0 Bft) S-SO 147 ° 0 min 0,000 mm 1,9 UV-I 364 W/m² 14,8 °C 19,4 °C 0,0 km/h (0 Bft)
06.07.2019 08:18 19,5 °C 77 % 1010,6 hPa 0,0 mm 0,0 km/h (0 Bft) S-SO 148 ° 0 min 0,000 mm 1,9 UV-I 366 W/m² 15,4 °C 19,5 °C 0,0 km/h (0 Bft)
06.07.2019 08:19 19,6 °C 74 % 1010,6 hPa 0,0 mm 0,0 km/h (0 Bft) S-SO 148 ° 0 min 0,000 mm 1,9 UV-I 369 W/m² 14,8 °C 19,6 °C 0,0 km/h (0 Bft)
06.07.2019 08:20 19,5 °C 73 % 1010,6 hPa 0,0 mm 0,0 km/h (0 Bft) S-SO 147 ° 0 min 0,000 mm 2,0 UV-I 376 W/m² 14,5 °C 19,5 °C 0,0 km/h (0 Bft)
06.07.2019 08:21 19,6 °C 73 % 1010,6 hPa 0,0 mm 0,0 km/h (0 Bft) S-SO 148 ° 0 min 0,000 mm 2,0 UV-I 376 W/m² 14,6 °C 19,6 °C 0,0 km/h (0 Bft)
06.07.2019 08:22 19,6 °C 73 % 1010,6 hPa 0,0 mm 0,0 km/h (0 Bft) S-SO 148 ° 0 min 0,000 mm 2,0 UV-I 380 W/m² 14,6 °C 19,6 °C 0,0 km/h (0 Bft)
06.07.2019 08:23 19,7 °C 73 % 1010,5 hPa 0,0 mm 0,0 km/h (0 Bft) S-SO 147 ° 0 min 0,000 mm 2,0 UV-I 381 W/m² 14,7 °C 19,7 °C 0,0 km/h (0 Bft)
06.07.2019 08:24 19,8 °C 75 % 1010,6 hPa 0,0 mm 0,0 km/h (0 Bft) S-SO 148 ° 0 min 0,000 mm 2,0 UV-I 381 W/m² 15,2 °C 19,8 °C 0,0 km/h (0 Bft)
06.07.2019 08:25 20,0 °C 76 % 1010,6 hPa 0,0 mm 0,0 km/h (0 Bft) S-SO 148 ° 0 min 0,000 mm 2,0 UV-I 360 W/m² 15,6 °C 20,0 °C 0,0 km/h (0 Bft)
06.07.2019 08:26 20,0 °C 73 % 1010,5 hPa 0,0 mm 0,0 km/h (0 Bft) S-SO 147 ° 0 min 0,000 mm 2,1 UV-I 390 W/m² 15,0 °C 20,0 °C 0,0 km/h (0 Bft)
06.07.2019 08:27 20,0 °C 72 % 1010,5 hPa 0,0 mm 0,0 km/h (0 Bft) S-SO 148 ° 0 min 0,000 mm 2,1 UV-I 394 W/m² 14,8 °C 20,0 °C 0,0 km/h (0 Bft)
06.07.2019 08:28 19,9 °C 72 % 1010,6 hPa 0,0 mm 0,0 km/h (0 Bft) S-SO 148 ° 0 min 0,000 mm 2,1 UV-I 397 W/m² 14,7 °C 19,9 °C 0,0 km/h (0 Bft)
06.07.2019 08:29 19,9 °C 72 % 1010,5 hPa 0,0 mm 0,0 km/h (0 Bft) S-SO 148 ° 0 min 0,000 mm 2,2 UV-I 401 W/m² 14,7 °C 19,9 °C 0,0 km/h (0 Bft)
06.07.2019 08:30 20,1 °C 74 % 1010,5 hPa 0,0 mm 0,0 km/h (0 Bft) S-SO 148 ° 0 min 0,000 mm 2,2 UV-I 404 W/m² 15,3 °C 20,1 °C 0,0 km/h (0 Bft)
06.07.2019 08:31 20,2 °C 74 % 1010,5 hPa 0,0 mm 0,0 km/h (0 Bft) S-SO 147 ° 0 min 0,000 mm 2,2 UV-I 406 W/m² 15,4 °C 20,2 °C 0,0 km/h (0 Bft)
06.07.2019 08:32 20,2 °C 72 % 1010,5 hPa 0,0 mm 0,0 km/h (0 Bft) S-SO 147 ° 0 min 0,000 mm 2,2 UV-I 406 W/m² 15,0 °C 20,2 °C 0,0 km/h (0 Bft)
06.07.2019 08:33 20,2 °C 74 % 1010,5 hPa 0,0 mm 0,0 km/h (0 Bft) S-SO 148 ° 0 min 0,000 mm 2,2 UV-I 413 W/m² 15,4 °C 20,2 °C 0,0 km/h (0 Bft)
06.07.2019 08:34 20,2 °C 76 % 1010,6 hPa 0,0 mm 0,0 km/h (0 Bft) S-SO 148 ° 0 min 0,000 mm 2,2 UV-I 417 W/m² 15,8 °C 20,2 °C 0,0 km/h (0 Bft)
06.07.2019 08:35 20,3 °C 72 % 1010,5 hPa 0,0 mm 0,0 km/h (0 Bft) S-SO 148 ° 0 min 0,000 mm 2,3 UV-I 420 W/m² 15,1 °C 20,3 °C 0,0 km/h (0 Bft)
06.07.2019 08:36 20,3 °C 75 % 1010,5 hPa 0,0 mm 0,0 km/h (0 Bft) S-SO 147 ° 0 min 0,000 mm 2,3 UV-I 422 W/m² 15,7 °C 20,3 °C 0,0 km/h (0 Bft)
06.07.2019 08:37 20,4 °C 74 % 1010,6 hPa 0,0 mm 0,0 km/h (0 Bft) S-SO 148 ° 0 min 0,000 mm 2,3 UV-I 424 W/m² 15,6 °C 20,4 °C 0,0 km/h (0 Bft)
06.07.2019 08:38 20,4 °C 74 % 1010,5 hPa 0,0 mm 0,0 km/h (0 Bft) S-SO 147 ° 0 min 0,000 mm 2,3 UV-I 427 W/m² 15,6 °C 20,4 °C 0,0 km/h (0 Bft)
06.07.2019 08:39 20,4 °C 72 % 1010,5 hPa 0,0 mm 0,0 km/h (0 Bft) S-SO 148 ° 0 min 0,000 mm 2,4 UV-I 431 W/m² 15,2 °C 20,4 °C 0,0 km/h (0 Bft)
06.07.2019 08:40 20,5 °C 71 % 1010,5 hPa 0,0 mm 0,0 km/h (0 Bft) S-SO 148 ° 0 min 0,000 mm 2,4 UV-I 432 W/m² 15,1 °C 20,5 °C 0,0 km/h (0 Bft)
06.07.2019 08:41 20,6 °C 70 % 1010,5 hPa 0,0 mm 0,0 km/h (0 Bft) S-SO 148 ° 0 min 0,000 mm 2,4 UV-I 439 W/m² 14,9 °C 20,6 °C 0,0 km/h (0 Bft)
06.07.2019 08:42 20,6 °C 71 % 1010,5 hPa 0,0 mm 0,0 km/h (0 Bft) S-SO 147 ° 0 min 0,000 mm 2,4 UV-I 441 W/m² 15,2 °C 20,6 °C 0,0 km/h (0 Bft)
06.07.2019 08:43 20,7 °C 71 % 1010,6 hPa 0,0 mm 0,0 km/h (0 Bft) S-SO 148 ° 0 min 0,000 mm 2,5 UV-I 441 W/m² 15,2 °C 20,7 °C 0,0 km/h (0 Bft)
06.07.2019 08:44 20,7 °C 71 % 1010,5 hPa 0,0 mm 0,0 km/h (0 Bft) S-SO 148 ° 0 min 0,000 mm 2,5 UV-I 448 W/m² 15,2 °C 20,7 °C 0,0 km/h (0 Bft)
06.07.2019 08:45 20,8 °C 70 % 1010,5 hPa 0,0 mm 0,0 km/h (0 Bft) S-SO 148 ° 0 min 0,000 mm 2,5 UV-I 450 W/m² 15,1 °C 20,8 °C 0,0 km/h (0 Bft)
06.07.2019 08:46 20,8 °C 70 % 1010,5 hPa 0,0 mm 0,0 km/h (0 Bft) S-SO 148 ° 0 min 0,000 mm 2,5 UV-I 452 W/m² 15,1 °C 20,8 °C 0,0 km/h (0 Bft)
06.07.2019 08:47 20,9 °C 72 % 1010,5 hPa 0,0 mm 0,0 km/h (0 Bft) S-SO 147 ° 0 min 0,000 mm 2,6 UV-I 457 W/m² 15,7 °C 20,9 °C 0,0 km/h (0 Bft)
06.07.2019 08:48 21,0 °C 71 % 1010,5 hPa 0,0 mm 0,0 km/h (0 Bft) S-SO 147 ° 0 min 0,000 mm 2,6 UV-I 461 W/m² 15,5 °C 21,0 °C 0,0 km/h (0 Bft)
06.07.2019 08:49 21,1 °C 70 % 1010,5 hPa 0,0 mm 0,2 km/h (0 Bft) S-SO 148 ° 0 min 0,000 mm 2,6 UV-I 462 W/m² 15,4 °C 21,1 °C 1,6 km/h (1 Bft)
06.07.2019 08:50 21,1 °C 69 % 1010,5 hPa 0,0 mm 0,0 km/h (0 Bft) S-SO 148 ° 0 min 0,000 mm 2,6 UV-I 468 W/m² 15,2 °C 21,1 °C 0,0 km/h (0 Bft)
06.07.2019 08:51 21,2 °C 72 % 1010,5 hPa 0,0 mm 0,0 km/h (0 Bft) S-SO 147 ° 0 min 0,000 mm 2,6 UV-I 469 W/m² 15,9 °C 21,2 °C 0,0 km/h (0 Bft)
06.07.2019 08:52 21,4 °C 72 % 1010,6 hPa 0,0 mm 0,0 km/h (0 Bft) S-SO 147 ° 0 min 0,000 mm 2,7 UV-I 468 W/m² 16,1 °C 21,4 °C 0,0 km/h (0 Bft)
06.07.2019 08:53 21,4 °C 71 % 1010,6 hPa 0,0 mm 0,1 km/h (0 Bft) S-SO 148 ° 0 min 0,000 mm 2,7 UV-I 473 W/m² 15,9 °C 21,4 °C 1,6 km/h (1 Bft)
06.07.2019 08:54 21,4 °C 68 % 1010,5 hPa 0,0 mm 0,0 km/h (0 Bft) S-SO 148 ° 0 min 0,000 mm 2,7 UV-I 478 W/m² 15,2 °C 21,4 °C 0,0 km/h (0 Bft)
06.07.2019 08:55 21,4 °C 68 % 1010,5 hPa 0,0 mm 0,0 km/h (0 Bft) S-SO 147 ° 0 min 0,000 mm 2,7 UV-I 478 W/m² 15,2 °C 21,4 °C 0,0 km/h (0 Bft)
06.07.2019 08:56 21,4 °C 68 % 1010,5 hPa 0,0 mm 0,0 km/h (0 Bft) S-SO 148 ° 0 min 0,000 mm 2,8 UV-I 483 W/m² 15,2 °C 21,4 °C 0,0 km/h (0 Bft)
06.07.2019 08:57 21,6 °C 70 % 1010,5 hPa 0,0 mm 0,0 km/h (0 Bft) S-SO 147 ° 0 min 0,000 mm 2,8 UV-I 485 W/m² 15,9 °C 21,6 °C 0,0 km/h (0 Bft)
06.07.2019 08:58 21,6 °C 68 % 1010,5 hPa 0,0 mm 0,0 km/h (0 Bft) S-SO 148 ° 0 min 0,000 mm 2,8 UV-I 485 W/m² 15,4 °C 21,6 °C 0,0 km/h (0 Bft)
06.07.2019 08:59 21,6 °C 66 % 1010,5 hPa 0,0 mm 0,0 km/h (0 Bft) S-SO 148 ° 0 min 0,000 mm 2,9 UV-I 490 W/m² 15,0 °C 21,6 °C 0,0 km/h (0 Bft)
06.07.2019 09:00 21,6 °C 67 % 1010,5 hPa 0,0 mm 0,0 km/h (0 Bft) S-SO 148 ° 0 min 0,000 mm 2,9 UV-I 496 W/m² 15,2 °C 21,6 °C 0,0 km/h (0 Bft)
06.07.2019 09:01 21,7 °C 68 % 1010,5 hPa 0,0 mm 0,0 km/h (0 Bft) S-SO 148 ° 0 min 0,228 mm 2,9 UV-I 494 W/m² 15,5 °C 21,7 °C 0,0 km/h (0 Bft)
06.07.2019 09:02 21,8 °C 68 % 1010,5 hPa 0,0 mm 1,6 km/h (1 Bft) W 274 ° 0 min 0,000 mm 2,9 UV-I 501 W/m² 15,6 °C 21,8 °C 4,8 km/h (1 Bft)
06.07.2019 09:03 21,8 °C 67 % 1010,5 hPa 0,0 mm 2,5 km/h (1 Bft) W 269 ° 0 min 0,000 mm 3,0 UV-I 506 W/m² 15,4 °C 21,8 °C 4,8 km/h (1 Bft)
06.07.2019 09:04 21,9 °C 65 % 1010,5 hPa 0,0 mm 0,8 km/h (0 Bft) W 274 ° 0 min 0,000 mm 3,0 UV-I 512 W/m² 15,0 °C 21,9 °C 1,6 km/h (1 Bft)
06.07.2019 09:05 22,2 °C 69 % 1010,5 hPa 0,0 mm 0,1 km/h (0 Bft) W 274 ° 0 min 0,000 mm 3,0 UV-I 506 W/m² 16,2 °C 22,2 °C 1,6 km/h (1 Bft)
06.07.2019 09:06 22,4 °C 63 % 1010,4 hPa 0,0 mm 0,2 km/h (0 Bft) W 274 ° 0 min 0,000 mm 3,0 UV-I 504 W/m² 15,0 °C 22,4 °C 1,6 km/h (1 Bft)
06.07.2019 09:07 22,7 °C 63 % 1010,4 hPa 0,0 mm 0,0 km/h (0 Bft) W 274 ° 0 min 0,000 mm 3,0 UV-I 506 W/m² 15,3 °C 22,7 °C 0,0 km/h (0 Bft)
06.07.2019 09:08 23,0 °C 63 % 1010,4 hPa 0,0 mm 3,6 km/h (1 Bft) W-NW 290 ° 0 min 0,000 mm 3,0 UV-I 515 W/m² 15,6 °C 23,0 °C 6,4 km/h (2 Bft)
06.07.2019 09:09 23,1 °C 59 % 1010,4 hPa 0,0 mm 1,5 km/h (1 Bft) W-NW 302 ° 0 min 0,000 mm 3,1 UV-I 501 W/m² 14,6 °C 23,1 °C 3,2 km/h (1 Bft)
06.07.2019 09:10 23,3 °C 57 % 1010,3 hPa 0,0 mm 2,1 km/h (1 Bft) NW 321 ° 0 min 0,000 mm 3,1 UV-I 520 W/m² 14,3 °C 23,3 °C 4,8 km/h (1 Bft)
06.07.2019 09:11 23,4 °C 57 % 1010,3 hPa 0,0 mm 4,2 km/h (1 Bft) W-NW 287 ° 0 min 0,000 mm 3,1 UV-I 515 W/m² 14,4 °C 23,4 °C 6,4 km/h (2 Bft)
06.07.2019 09:12 23,5 °C 55 % 1010,3 hPa 0,0 mm 0,5 km/h (0 Bft) W-NW 287 ° 0 min 0,000 mm 3,1 UV-I 517 W/m² 13,9 °C 23,5 °C 3,2 km/h (1 Bft)
06.07.2019 09:13 23,6 °C 54 % 1010,3 hPa 0,0 mm 2,8 km/h (1 Bft) N-NW 327 ° 0 min 0,000 mm 3,1 UV-I 519 W/m² 13,7 °C 23,6 °C 9,7 km/h (2 Bft)
06.07.2019 09:14 23,7 °C 57 % 1010,4 hPa 0,0 mm 4,8 km/h (1 Bft) N-NO 16 ° 0 min 0,000 mm 3,1 UV-I 512 W/m² 14,7 °C 23,7 °C 8,0 km/h (2 Bft)
06.07.2019 09:15 23,7 °C 58 % 1010,3 hPa 0,0 mm 3,6 km/h (1 Bft) N-NW 336 ° 0 min 0,000 mm 3,2 UV-I 534 W/m² 14,9 °C 23,7 °C 6,4 km/h (2 Bft)
06.07.2019 09:16 23,7 °C 56 % 1010,3 hPa 0,0 mm 0,4 km/h (0 Bft) N-NW 336 ° 0 min 0,000 mm 3,3 UV-I 538 W/m² 14,4 °C 23,7 °C 1,6 km/h (1 Bft)
06.07.2019 09:17 23,8 °C 60 % 1010,3 hPa 0,0 mm 2,1 km/h (1 Bft) W-NW 295 ° 0 min 0,000 mm 3,3 UV-I 540 W/m² 15,6 °C 23,8 °C 3,2 km/h (1 Bft)
06.07.2019 09:18 23,9 °C 55 % 1010,3 hPa 0,0 mm 4,7 km/h (1 Bft) NW 324 ° 0 min 0,000 mm 3,3 UV-I 543 W/m² 14,3 °C 23,9 °C 6,4 km/h (2 Bft)
06.07.2019 09:19 23,9 °C 55 % 1010,2 hPa 0,0 mm 1,7 km/h (1 Bft) NW 324 ° 0 min 0,000 mm 3,3 UV-I 548 W/m² 14,3 °C 23,9 °C 4,8 km/h (1 Bft)
06.07.2019 09:20 23,9 °C 57 % 1010,3 hPa 0,0 mm 1,9 km/h (1 Bft) W-NW 299 ° 0 min 0,000 mm 3,3 UV-I 536 W/m² 14,9 °C 23,9 °C 4,8 km/h (1 Bft)
06.07.2019 09:21 23,9 °C 55 % 1010,2 hPa 0,0 mm 0,8 km/h (0 Bft) W-NW 299 ° 0 min 0,000 mm 3,3 UV-I 489 W/m² 14,3 °C 23,9 °C 4,8 km/h (1 Bft)
06.07.2019 09:22 23,9 °C 55 % 1010,2 hPa 0,0 mm 2,4 km/h (1 Bft) W 278 ° 0 min 0,000 mm 3,4 UV-I 534 W/m² 14,3 °C 23,9 °C 6,4 km/h (2 Bft)
06.07.2019 09:23 23,9 °C 54 % 1010,2 hPa 0,0 mm 3,6 km/h (1 Bft) W 275 ° 0 min 0,000 mm 3,2 UV-I 526 W/m² 14,0 °C 23,9 °C 6,4 km/h (2 Bft)
06.07.2019 09:24 23,9 °C 55 % 1010,2 hPa 0,0 mm 2,3 km/h (1 Bft) W-NW 302 ° 0 min 0,000 mm 2,9 UV-I 457 W/m² 14,3 °C 23,9 °C 4,8 km/h (1 Bft)
06.07.2019 09:25 24,0 °C 55 % 1010,2 hPa 0,0 mm 1,8 km/h (1 Bft) W-NW 298 ° 0 min 0,000 mm 3,1 UV-I 503 W/m² 14,4 °C 24,0 °C 4,8 km/h (1 Bft)
06.07.2019 09:26 24,0 °C 54 % 1010,2 hPa 0,0 mm 3,6 km/h (1 Bft) W-NW 298 ° 0 min 0,000 mm 3,4 UV-I 497 W/m² 14,1 °C 24,0 °C 6,4 km/h (2 Bft)
06.07.2019 09:27 24,0 °C 56 % 1010,1 hPa 0,0 mm 3,1 km/h (1 Bft) W-NW 292 ° 0 min 0,000 mm 3,6 UV-I 577 W/m² 14,7 °C 24,0 °C 6,4 km/h (2 Bft)
06.07.2019 09:28 24,1 °C 55 % 1010,2 hPa 0,0 mm 1,3 km/h (1 Bft) W-NW 284 ° 0 min 0,000 mm 3,6 UV-I 584 W/m² 14,5 °C 24,1 °C 6,4 km/h (2 Bft)
06.07.2019 09:29 24,3 °C 54 % 1010,2 hPa 0,0 mm 2,6 km/h (1 Bft) W-NW 284 ° 0 min 0,000 mm 3,7 UV-I 598 W/m² 14,4 °C 24,3 °C 3,2 km/h (1 Bft)
06.07.2019 09:30 24,3 °C 54 % 1010,2 hPa 0,0 mm 0,7 km/h (0 Bft) W-NW 284 ° 1 min 0,000 mm 3,7 UV-I 610 W/m² 14,4 °C 24,3 °C 1,6 km/h (1 Bft)
06.07.2019 09:31 24,4 °C 53 % 1010,1 hPa 0,0 mm 0,9 km/h (0 Bft) NW 323 ° 1 min 0,000 mm 3,8 UV-I 606 W/m² 14,2 °C 24,4 °C 3,2 km/h (1 Bft)
06.07.2019 09:32 24,5 °C 51 % 1010,1 hPa 0,0 mm 0,0 km/h (0 Bft) NW 323 ° 1 min 0,000 mm 3,8 UV-I 612 W/m² 13,7 °C 24,5 °C 0,0 km/h (0 Bft)
06.07.2019 09:33 24,5 °C 53 % 1010,2 hPa 0,0 mm 8,1 km/h (2 Bft) W-NW 296 ° 1 min 0,000 mm 3,9 UV-I 640 W/m² 14,3 °C 24,5 °C 11,3 km/h (2 Bft)
06.07.2019 09:34 24,6 °C 53 % 1010,2 hPa 0,0 mm 4,6 km/h (1 Bft) W-NW 300 ° 0 min 0,000 mm 3,6 UV-I 585 W/m² 14,4 °C 24,6 °C 6,4 km/h (2 Bft)
06.07.2019 09:35 24,7 °C 52 % 1010,1 hPa 0,0 mm 3,0 km/h (1 Bft) W-NW 284 ° 1 min 0,000 mm 3,9 UV-I 608 W/m² 14,2 °C 24,7 °C 6,4 km/h (2 Bft)
06.07.2019 09:36 24,7 °C 51 % 1010,1 hPa 0,0 mm 1,1 km/h (1 Bft) W-NW 300 ° 0 min 0,000 mm 3,5 UV-I 545 W/m² 13,9 °C 24,7 °C 3,2 km/h (1 Bft)
06.07.2019 09:37 24,7 °C 50 % 1010,1 hPa 0,0 mm 7,7 km/h (2 Bft) W 263 ° 1 min 0,000 mm 3,8 UV-I 612 W/m² 13,6 °C 24,7 °C 11,3 km/h (2 Bft)
06.07.2019 09:38 24,7 °C 52 % 1010,1 hPa 0,0 mm 8,0 km/h (2 Bft) W-NW 296 ° 0 min 0,000 mm 3,6 UV-I 545 W/m² 14,2 °C 24,7 °C 11,3 km/h (2 Bft)
06.07.2019 09:39 24,7 °C 51 % 1010,2 hPa 0,0 mm 7,0 km/h (2 Bft) NW 309 ° 0 min 0,000 mm 3,7 UV-I 587 W/m² 13,9 °C 24,7 °C 14,5 km/h (3 Bft)
06.07.2019 09:40 24,7 °C 52 % 1010,2 hPa 0,0 mm 7,4 km/h (2 Bft) W-NW 287 ° 0 min 0,000 mm 3,1 UV-I 587 W/m² 14,2 °C 24,7 °C 12,9 km/h (3 Bft)
06.07.2019 09:41 24,6 °C 49 % 1010,2 hPa 0,0 mm 7,6 km/h (2 Bft) NW 316 ° 0 min 0,000 mm 3,9 UV-I 587 W/m² 13,2 °C 24,6 °C 11,3 km/h (2 Bft)
06.07.2019 09:42 24,6 °C 50 % 1010,2 hPa 0,0 mm 11,5 km/h (2 Bft) NW 324 ° 0 min 0,000 mm 3,4 UV-I 587 W/m² 13,5 °C 24,6 °C 20,9 km/h (4 Bft)
06.07.2019 09:43 24,5 °C 49 % 1010,1 hPa 0,0 mm 6,7 km/h (2 Bft) W 259 ° 0 min 0,000 mm 3,8 UV-I 592 W/m² 13,1 °C 24,5 °C 11,3 km/h (2 Bft)
06.07.2019 09:44 24,5 °C 50 % 1010,2 hPa 0,0 mm 6,7 km/h (2 Bft) W-SW 257 ° 0 min 0,000 mm 3,4 UV-I 540 W/m² 13,4 °C 24,5 °C 9,7 km/h (2 Bft)
06.07.2019 09:45 24,5 °C 49 % 1010,2 hPa 0,0 mm 5,0 km/h (1 Bft) NW 315 ° 0 min 0,000 mm 3,8 UV-I 503 W/m² 13,1 °C 24,5 °C 8,0 km/h (2 Bft)
06.07.2019 09:46 24,4 °C 50 % 1010,2 hPa 0,0 mm 4,8 km/h (1 Bft) W 261 ° 0 min 0,000 mm 3,7 UV-I 566 W/m² 13,3 °C 24,4 °C 11,3 km/h (2 Bft)
06.07.2019 09:47 24,5 °C 49 % 1010,2 hPa 0,0 mm 9,7 km/h (2 Bft) W 269 ° 0 min 0,000 mm 3,7 UV-I 591 W/m² 13,1 °C 24,5 °C 16,1 km/h (3 Bft)
06.07.2019 09:48 24,6 °C 49 % 1010,1 hPa 0,0 mm 7,1 km/h (2 Bft) W-NW 288 ° 0 min 0,000 mm 3,6 UV-I 536 W/m² 13,2 °C 24,6 °C 12,9 km/h (3 Bft)
06.07.2019 09:49 24,6 °C 51 % 1010,1 hPa 0,0 mm 3,2 km/h (1 Bft) W 281 ° 0 min 0,000 mm 3,4 UV-I 476 W/m² 13,8 °C 24,6 °C 4,8 km/h (1 Bft)
06.07.2019 09:50 24,6 °C 49 % 1010,1 hPa 0,0 mm 5,0 km/h (1 Bft) NW 305 ° 0 min 0,000 mm 3,4 UV-I 482 W/m² 13,2 °C 24,6 °C 9,7 km/h (2 Bft)
06.07.2019 09:51 24,6 °C 53 % 1010,1 hPa 0,0 mm 10,9 km/h (2 Bft) W-SW 252 ° 0 min 0,000 mm 3,7 UV-I 533 W/m² 14,4 °C 24,6 °C 17,7 km/h (3 Bft)
06.07.2019 09:52 24,6 °C 53 % 1010,1 hPa 0,0 mm 8,2 km/h (2 Bft) W 259 ° 0 min 0,000 mm 3,8 UV-I 543 W/m² 14,4 °C 24,6 °C 14,5 km/h (3 Bft)
06.07.2019 09:53 24,5 °C 53 % 1010,1 hPa 0,0 mm 2,2 km/h (1 Bft) W 260 ° 0 min 0,000 mm 3,7 UV-I 524 W/m² 14,3 °C 24,5 °C 6,4 km/h (2 Bft)
06.07.2019 09:54 24,6 °C 59 % 1010,1 hPa 0,0 mm 2,9 km/h (1 Bft) W-NW 292 ° 0 min 0,000 mm 3,8 UV-I 555 W/m² 16,0 °C 24,6 °C 4,8 km/h (1 Bft)
06.07.2019 09:55 24,6 °C 56 % 1010,1 hPa 0,0 mm 3,6 km/h (1 Bft) W-NW 283 ° 0 min 0,000 mm 3,8 UV-I 598 W/m² 15,2 °C 24,6 °C 6,4 km/h (2 Bft)
06.07.2019 09:56 24,7 °C 54 % 1010,1 hPa 0,0 mm 8,0 km/h (2 Bft) W-NW 287 ° 1 min 0,000 mm 4,0 UV-I 626 W/m² 14,8 °C 24,7 °C 12,9 km/h (3 Bft)
06.07.2019 09:57 24,7 °C 53 % 1010,1 hPa 0,0 mm 13,3 km/h (3 Bft) W-NW 293 ° 1 min 0,000 mm 4,0 UV-I 629 W/m² 14,5 °C 24,7 °C 19,3 km/h (3 Bft)
06.07.2019 09:58 24,7 °C 50 % 1010,1 hPa 0,0 mm 12,5 km/h (3 Bft) W 271 ° 1 min 0,000 mm 4,0 UV-I 603 W/m² 13,6 °C 24,7 °C 17,7 km/h (3 Bft)
06.07.2019 09:59 24,7 °C 51 % 1010,1 hPa 0,0 mm 10,9 km/h (2 Bft) W-NW 293 ° 0 min 0,000 mm 3,9 UV-I 575 W/m² 13,9 °C 24,7 °C 16,1 km/h (3 Bft)
06.07.2019 10:00 24,6 °C 52 % 1010,1 hPa 0,0 mm 6,0 km/h (2 Bft) W-NW 293 ° 1 min 0,356 mm 3,9 UV-I 612 W/m² 14,1 °C 24,6 °C 11,3 km/h (2 Bft)
06.07.2019 10:01 24,7 °C 51 % 1010,1 hPa 0,0 mm 10,9 km/h (2 Bft) W-NW 294 ° 1 min 0,000 mm 4,2 UV-I 659 W/m² 13,9 °C 24,7 °C 16,1 km/h (3 Bft)
06.07.2019 10:02 24,7 °C 53 % 1010,1 hPa 0,0 mm 5,5 km/h (1 Bft) W 275 ° 1 min 0,000 mm 4,3 UV-I 654 W/m² 14,5 °C 24,7 °C 11,3 km/h (2 Bft)
06.07.2019 10:03 24,8 °C 51 % 1010,1 hPa 0,0 mm 2,7 km/h (1 Bft) W-NW 299 ° 1 min 0,000 mm 4,0 UV-I 621 W/m² 14,0 °C 24,8 °C 4,8 km/h (1 Bft)
06.07.2019 10:04 24,8 °C 56 % 1010,1 hPa 0,0 mm 3,8 km/h (1 Bft) NW 322 ° 1 min 0,000 mm 4,4 UV-I 638 W/m² 15,4 °C 24,8 °C 9,7 km/h (2 Bft)
06.07.2019 10:05 24,8 °C 53 % 1010,1 hPa 0,0 mm 6,8 km/h (2 Bft) W-NW 301 ° 1 min 0,000 mm 4,4 UV-I 675 W/m² 14,6 °C 24,8 °C 9,7 km/h (2 Bft)
06.07.2019 10:06 24,8 °C 54 % 1010,1 hPa 0,0 mm 6,0 km/h (2 Bft) W-NW 290 ° 1 min 0,000 mm 4,4 UV-I 673 W/m² 14,8 °C 24,8 °C 12,9 km/h (3 Bft)
06.07.2019 10:07 24,9 °C 54 % 1010,1 hPa 0,0 mm 6,0 km/h (2 Bft) W 279 ° 1 min 0,000 mm 4,4 UV-I 650 W/m² 14,9 °C 24,9 °C 12,9 km/h (3 Bft)
06.07.2019 10:08 24,9 °C 51 % 1010,1 hPa 0,0 mm 10,5 km/h (2 Bft) W-NW 292 ° 1 min 0,000 mm 4,4 UV-I 643 W/m² 14,1 °C 24,9 °C 16,1 km/h (3 Bft)
06.07.2019 10:09 24,9 °C 51 % 1010,1 hPa 0,0 mm 5,4 km/h (1 Bft) W-SW 257 ° 1 min 0,000 mm 4,4 UV-I 649 W/m² 14,1 °C 24,9 °C 6,4 km/h (2 Bft)
06.07.2019 10:10 24,9 °C 54 % 1010,1 hPa 0,0 mm 5,0 km/h (1 Bft) N 355 ° 1 min 0,000 mm 4,5 UV-I 664 W/m² 14,9 °C 24,9 °C 8,0 km/h (2 Bft)
06.07.2019 10:11 24,9 °C 55 % 1010,1 hPa 0,0 mm 10,9 km/h (2 Bft) W-SW 240 ° 1 min 0,000 mm 4,3 UV-I 628 W/m² 15,2 °C 24,9 °C 16,1 km/h (3 Bft)
06.07.2019 10:12 24,9 °C 49 % 1010,1 hPa 0,0 mm 10,9 km/h (2 Bft) W-NW 285 ° 1 min 0,000 mm 4,4 UV-I 664 W/m² 13,4 °C 24,9 °C 17,7 km/h (3 Bft)
06.07.2019 10:13 24,9 °C 50 % 1010,1 hPa 0,0 mm 10,5 km/h (2 Bft) S-SW 206 ° 1 min 0,000 mm 4,5 UV-I 663 W/m² 13,7 °C 24,9 °C 16,1 km/h (3 Bft)
06.07.2019 10:14 24,9 °C 49 % 1010,1 hPa 0,0 mm 7,6 km/h (2 Bft) W 261 ° 1 min 0,000 mm 4,6 UV-I 677 W/m² 13,4 °C 24,9 °C 12,9 km/h (3 Bft)
06.07.2019 10:15 24,9 °C 49 % 1010,0 hPa 0,0 mm 10,5 km/h (2 Bft) W 279 ° 1 min 0,000 mm 4,6 UV-I 673 W/m² 13,4 °C 24,9 °C 16,1 km/h (3 Bft)
06.07.2019 10:16 24,9 °C 49 % 1010,1 hPa 0,0 mm 11,5 km/h (2 Bft) W-NW 286 ° 1 min 0,000 mm 4,6 UV-I 670 W/m² 13,4 °C 24,9 °C 19,3 km/h (3 Bft)
06.07.2019 10:17 24,9 °C 47 % 1010,0 hPa 0,0 mm 10,3 km/h (2 Bft) W 265 ° 1 min 0,000 mm 4,6 UV-I 661 W/m² 12,8 °C 24,9 °C 16,1 km/h (3 Bft)
06.07.2019 10:18 25,0 °C 49 % 1010,0 hPa 0,0 mm 6,2 km/h (2 Bft) W 264 ° 1 min 0,000 mm 4,6 UV-I 693 W/m² 13,5 °C 25,0 °C 9,7 km/h (2 Bft)
06.07.2019 10:19 25,1 °C 51 % 1010,1 hPa 0,0 mm 7,8 km/h (2 Bft) W 273 ° 1 min 0,000 mm 4,8 UV-I 696 W/m² 14,2 °C 25,1 °C 12,9 km/h (3 Bft)
06.07.2019 10:20 25,1 °C 50 % 1010,1 hPa 0,0 mm 7,3 km/h (2 Bft) W-SW 250 ° 1 min 0,000 mm 4,8 UV-I 703 W/m² 13,9 °C 25,1 °C 14,5 km/h (3 Bft)
06.07.2019 10:21 25,2 °C 53 % 1010,1 hPa 0,0 mm 8,0 km/h (2 Bft) SW 236 ° 1 min 0,000 mm 4,8 UV-I 705 W/m² 14,9 °C 25,2 °C 12,9 km/h (3 Bft)
06.07.2019 10:22 25,3 °C 49 % 1010,0 hPa 0,0 mm 7,9 km/h (2 Bft) W 273 ° 1 min 0,000 mm 4,8 UV-I 710 W/m² 13,8 °C 25,3 °C 11,3 km/h (2 Bft)
06.07.2019 10:23 25,3 °C 48 % 1010,0 hPa 0,0 mm 11,1 km/h (2 Bft) W 266 ° 1 min 0,000 mm 4,9 UV-I 707 W/m² 13,5 °C 25,3 °C 14,5 km/h (3 Bft)
06.07.2019 10:24 25,3 °C 47 % 1010,0 hPa 0,0 mm 9,5 km/h (2 Bft) W-NW 288 ° 1 min 0,000 mm 4,9 UV-I 712 W/m² 13,2 °C 25,3 °C 12,9 km/h (3 Bft)
06.07.2019 10:25 25,3 °C 49 % 1010,0 hPa 0,0 mm 7,7 km/h (2 Bft) W 268 ° 1 min 0,000 mm 4,9 UV-I 714 W/m² 13,8 °C 25,3 °C 12,9 km/h (3 Bft)
06.07.2019 10:26 25,4 °C 52 % 1010,0 hPa 0,0 mm 10,0 km/h (2 Bft) W 259 ° 1 min 0,000 mm 4,9 UV-I 717 W/m² 14,8 °C 25,4 °C 17,7 km/h (3 Bft)
06.07.2019 10:27 25,4 °C 49 % 1010,0 hPa 0,0 mm 9,3 km/h (2 Bft) W-SW 251 ° 1 min 0,000 mm 4,9 UV-I 715 W/m² 13,9 °C 25,4 °C 17,7 km/h (3 Bft)
06.07.2019 10:28 25,4 °C 45 % 1010,0 hPa 0,0 mm 7,9 km/h (2 Bft) W 262 ° 1 min 0,000 mm 5,0 UV-I 726 W/m² 12,6 °C 25,4 °C 12,9 km/h (3 Bft)
06.07.2019 10:29 25,4 °C 44 % 1010,0 hPa 0,0 mm 9,1 km/h (2 Bft) W-NW 294 ° 1 min 0,000 mm 5,0 UV-I 728 W/m² 12,2 °C 25,4 °C 12,9 km/h (3 Bft)
06.07.2019 10:30 25,4 °C 47 % 1010,0 hPa 0,0 mm 11,5 km/h (2 Bft) W 268 ° 1 min 0,000 mm 5,1 UV-I 738 W/m² 13,3 °C 25,4 °C 19,3 km/h (3 Bft)
06.07.2019 10:31 25,5 °C 46 % 1010,0 hPa 0,0 mm 9,6 km/h (2 Bft) W-NW 301 ° 1 min 0,000 mm 5,1 UV-I 740 W/m² 13,0 °C 25,5 °C 16,1 km/h (3 Bft)
06.07.2019 10:32 25,5 °C 45 % 1010,0 hPa 0,0 mm 8,0 km/h (2 Bft) W 264 ° 1 min 0,000 mm 5,1 UV-I 742 W/m² 12,7 °C 25,5 °C 12,9 km/h (3 Bft)
06.07.2019 10:33 25,5 °C 45 % 1009,9 hPa 0,0 mm 8,9 km/h (2 Bft) W-NW 296 ° 1 min 0,000 mm 5,1 UV-I 724 W/m² 12,7 °C 25,5 °C 12,9 km/h (3 Bft)
06.07.2019 10:34 25,6 °C 47 % 1009,9 hPa 0,0 mm 4,8 km/h (1 Bft) W-NW 296 ° 1 min 0,000 mm 5,2 UV-I 733 W/m² 13,4 °C 25,6 °C 9,7 km/h (2 Bft)
06.07.2019 10:35 25,6 °C 45 % 1010,0 hPa 0,0 mm 7,4 km/h (2 Bft) W-SW 237 ° 1 min 0,000 mm 5,2 UV-I 765 W/m² 12,8 °C 25,6 °C 14,5 km/h (3 Bft)
06.07.2019 10:36 25,7 °C 45 % 1010,0 hPa 0,0 mm 6,4 km/h (2 Bft) W 261 ° 1 min 0,000 mm 5,3 UV-I 738 W/m² 12,9 °C 25,7 °C 11,3 km/h (2 Bft)
06.07.2019 10:37 25,8 °C 45 % 1010,0 hPa 0,0 mm 7,6 km/h (2 Bft) W-NW 291 ° 1 min 0,000 mm 5,4 UV-I 780 W/m² 13,0 °C 25,8 °C 14,5 km/h (3 Bft)
06.07.2019 10:38 25,9 °C 48 % 1010,0 hPa 0,0 mm 7,4 km/h (2 Bft) NW 325 ° 1 min 0,000 mm 5,2 UV-I 749 W/m² 14,0 °C 25,9 °C 12,9 km/h (3 Bft)
06.07.2019 10:39 25,9 °C 45 % 1010,0 hPa 0,0 mm 5,8 km/h (2 Bft) W 263 ° 1 min 0,000 mm 4,9 UV-I 664 W/m² 13,0 °C 25,9 °C 9,7 km/h (2 Bft)
06.07.2019 10:40 25,9 °C 46 % 1010,0 hPa 0,0 mm 10,9 km/h (2 Bft) W 262 ° 1 min 0,000 mm 4,8 UV-I 657 W/m² 13,4 °C 25,9 °C 17,7 km/h (3 Bft)
06.07.2019 10:41 25,8 °C 40 % 1010,0 hPa 0,0 mm 12,9 km/h (3 Bft) W-NW 284 ° 1 min 0,000 mm 3,9 UV-I 657 W/m² 11,2 °C 25,8 °C 17,7 km/h (3 Bft)
06.07.2019 10:42 25,7 °C 44 % 1010,0 hPa 0,0 mm 10,0 km/h (2 Bft) W-NW 299 ° 0 min 0,000 mm 3,5 UV-I 364 W/m² 12,5 °C 25,7 °C 17,7 km/h (3 Bft)
06.07.2019 10:43 25,5 °C 42 % 1009,9 hPa 0,0 mm 10,7 km/h (2 Bft) W 266 ° 0 min 0,000 mm 4,3 UV-I 577 W/m² 11,6 °C 25,5 °C 12,9 km/h (3 Bft)
06.07.2019 10:44 25,4 °C 42 % 1010,0 hPa 0,0 mm 5,9 km/h (2 Bft) W-NW 293 ° 0 min 0,000 mm 4,0 UV-I 577 W/m² 11,5 °C 25,4 °C 11,3 km/h (2 Bft)
06.07.2019 10:45 25,3 °C 46 % 1010,0 hPa 0,0 mm 6,2 km/h (2 Bft) W 261 ° 0 min 0,000 mm 4,4 UV-I 577 W/m² 12,8 °C 25,3 °C 11,3 km/h (2 Bft)
06.07.2019 10:46 25,3 °C 45 % 1010,0 hPa 0,0 mm 5,8 km/h (2 Bft) W-NW 291 ° 0 min 0,000 mm 4,4 UV-I 578 W/m² 12,5 °C 25,3 °C 9,7 km/h (2 Bft)
06.07.2019 10:47 25,3 °C 43 % 1010,0 hPa 0,0 mm 7,0 km/h (2 Bft) W 281 ° 1 min 0,000 mm 4,8 UV-I 647 W/m² 11,8 °C 25,3 °C 11,3 km/h (2 Bft)
06.07.2019 10:48 25,4 °C 42 % 1009,9 hPa 0,0 mm 7,6 km/h (2 Bft) N-NW 329 ° 1 min 0,000 mm 5,0 UV-I 737 W/m² 11,5 °C 25,4 °C 11,3 km/h (2 Bft)
06.07.2019 10:49 25,5 °C 45 % 1009,9 hPa 0,0 mm 7,7 km/h (2 Bft) W-SW 250 ° 1 min 0,000 mm 5,4 UV-I 759 W/m² 12,7 °C 25,5 °C 12,9 km/h (3 Bft)
06.07.2019 10:50 25,6 °C 45 % 1009,9 hPa 0,0 mm 5,4 km/h (1 Bft) N-NW 329 ° 1 min 0,000 mm 5,3 UV-I 744 W/m² 12,8 °C 25,6 °C 11,3 km/h (2 Bft)
06.07.2019 10:51 25,6 °C 45 % 1009,9 hPa 0,0 mm 4,8 km/h (1 Bft) W-NW 291 ° 1 min 0,000 mm 5,2 UV-I 705 W/m² 12,8 °C 25,6 °C 9,7 km/h (2 Bft)
06.07.2019 10:52 25,6 °C 44 % 1010,0 hPa 0,0 mm 6,8 km/h (2 Bft) W-NW 295 ° 1 min 0,000 mm 5,2 UV-I 694 W/m² 12,4 °C 25,6 °C 11,3 km/h (2 Bft)
06.07.2019 10:53 25,7 °C 41 % 1010,0 hPa 0,0 mm 5,4 km/h (1 Bft) NW 314 ° 1 min 0,000 mm 5,5 UV-I 768 W/m² 11,4 °C 25,7 °C 11,3 km/h (2 Bft)
06.07.2019 10:54 25,7 °C 45 % 1010,0 hPa 0,0 mm 5,1 km/h (1 Bft) W-SW 244 ° 1 min 0,000 mm 5,5 UV-I 779 W/m² 12,9 °C 25,7 °C 11,3 km/h (2 Bft)
06.07.2019 10:55 25,8 °C 43 % 1010,0 hPa 0,0 mm 9,3 km/h (2 Bft) W 270 ° 1 min 0,000 mm 5,5 UV-I 773 W/m² 12,3 °C 25,8 °C 12,9 km/h (3 Bft)
06.07.2019 10:56 25,8 °C 42 % 1010,0 hPa 0,0 mm 5,4 km/h (1 Bft) NW 318 ° 1 min 0,000 mm 5,6 UV-I 786 W/m² 11,9 °C 25,8 °C 11,3 km/h (2 Bft)
06.07.2019 10:57 25,8 °C 44 % 1010,0 hPa 0,0 mm 8,4 km/h (2 Bft) W-NW 290 ° 1 min 0,000 mm 5,6 UV-I 779 W/m² 12,6 °C 25,8 °C 16,1 km/h (3 Bft)
06.07.2019 10:58 25,9 °C 45 % 1010,0 hPa 0,0 mm 6,4 km/h (2 Bft) NW 312 ° 1 min 0,000 mm 5,4 UV-I 735 W/m² 13,0 °C 25,9 °C 9,7 km/h (2 Bft)
06.07.2019 10:59 26,0 °C 47 % 1010,0 hPa 0,0 mm 11,3 km/h (2 Bft) W 270 ° 1 min 0,000 mm 5,2 UV-I 684 W/m² 13,8 °C 26,0 °C 16,1 km/h (3 Bft)
06.07.2019 11:00 26,1 °C 46 % 1010,1 hPa 0,0 mm 13,0 km/h (3 Bft) W-SW 251 ° 1 min 0,508 mm 5,5 UV-I 756 W/m² 13,6 °C 26,1 °C 16,1 km/h (3 Bft)
06.07.2019 11:01 26,1 °C 43 % 1010,0 hPa 0,0 mm 8,4 km/h (2 Bft) W 267 ° 1 min 0,000 mm 5,4 UV-I 679 W/m² 12,5 °C 26,1 °C 12,9 km/h (3 Bft)
06.07.2019 11:02 26,1 °C 40 % 1010,0 hPa 0,0 mm 10,9 km/h (2 Bft) W 259 ° 1 min 0,000 mm 5,6 UV-I 768 W/m² 11,4 °C 26,1 °C 14,5 km/h (3 Bft)
06.07.2019 11:03 26,0 °C 43 % 1010,1 hPa 0,0 mm 10,7 km/h (2 Bft) W-NW 287 ° 1 min 0,000 mm 5,8 UV-I 798 W/m² 12,4 °C 26,0 °C 17,7 km/h (3 Bft)
06.07.2019 11:04 26,0 °C 41 % 1010,0 hPa 0,0 mm 6,6 km/h (2 Bft) W-NW 287 ° 1 min 0,000 mm 5,8 UV-I 802 W/m² 11,7 °C 26,0 °C 11,3 km/h (2 Bft)
06.07.2019 11:05 26,1 °C 45 % 1010,0 hPa 0,0 mm 5,4 km/h (1 Bft) W-NW 286 ° 1 min 0,000 mm 5,9 UV-I 826 W/m² 13,2 °C 26,1 °C 11,3 km/h (2 Bft)
06.07.2019 11:06 26,1 °C 40 % 1010,0 hPa 0,0 mm 6,3 km/h (2 Bft) W-NW 291 ° 1 min 0,000 mm 6,1 UV-I 837 W/m² 11,4 °C 26,1 °C 9,7 km/h (2 Bft)
06.07.2019 11:07 26,1 °C 41 % 1010,0 hPa 0,0 mm 8,9 km/h (2 Bft) NW 315 ° 1 min 0,000 mm 6,1 UV-I 840 W/m² 11,8 °C 26,1 °C 14,5 km/h (3 Bft)
06.07.2019 11:08 26,2 °C 42 % 1010,0 hPa 0,0 mm 5,4 km/h (1 Bft) NW 323 ° 1 min 0,000 mm 5,7 UV-I 840 W/m² 12,3 °C 26,2 °C 9,7 km/h (2 Bft)
06.07.2019 11:09 26,2 °C 41 % 1010,0 hPa 0,0 mm 6,4 km/h (2 Bft) N-NW 339 ° 1 min 0,000 mm 5,9 UV-I 840 W/m² 11,9 °C 26,2 °C 11,3 km/h (2 Bft)
06.07.2019 11:10 26,2 °C 41 % 1010,0 hPa 0,0 mm 3,8 km/h (1 Bft) NW 305 ° 1 min 0,000 mm 5,6 UV-I 745 W/m² 11,9 °C 26,2 °C 6,4 km/h (2 Bft)
06.07.2019 11:11 26,2 °C 39 % 1010,0 hPa 0,0 mm 5,4 km/h (1 Bft) W 271 ° 1 min 0,000 mm 5,7 UV-I 675 W/m² 11,1 °C 26,2 °C 11,3 km/h (2 Bft)
06.07.2019 11:12 26,3 °C 41 % 1009,9 hPa 0,0 mm 7,5 km/h (2 Bft) NW 321 ° 1 min 0,000 mm 5,4 UV-I 708 W/m² 12,0 °C 26,3 °C 14,5 km/h (3 Bft)
06.07.2019 11:13 26,3 °C 44 % 1010,0 hPa 0,0 mm 9,3 km/h (2 Bft) NW 309 ° 1 min 0,000 mm 5,9 UV-I 782 W/m² 13,1 °C 26,3 °C 12,9 km/h (3 Bft)
06.07.2019 11:14 26,3 °C 39 % 1010,0 hPa 0,0 mm 7,4 km/h (2 Bft) W 275 ° 1 min 0,000 mm 5,9 UV-I 800 W/m² 11,2 °C 26,3 °C 17,7 km/h (3 Bft)
06.07.2019 11:15 26,3 °C 38 % 1010,0 hPa 0,0 mm 10,5 km/h (2 Bft) W-SW 258 ° 1 min 0,000 mm 6,1 UV-I 810 W/m² 10,8 °C 26,3 °C 20,9 km/h (4 Bft)
06.07.2019 11:16 26,3 °C 37 % 1010,0 hPa 0,0 mm 9,6 km/h (2 Bft) W-NW 293 ° 1 min 0,000 mm 6,2 UV-I 846 W/m² 10,4 °C 26,3 °C 19,3 km/h (3 Bft)
06.07.2019 11:17 26,4 °C 38 % 1010,0 hPa 0,0 mm 13,6 km/h (3 Bft) W 277 ° 1 min 0,000 mm 6,0 UV-I 747 W/m² 10,9 °C 26,4 °C 20,9 km/h (4 Bft)
06.07.2019 11:18 26,4 °C 38 % 1010,0 hPa 0,0 mm 8,0 km/h (2 Bft) N-NW 332 ° 1 min 0,000 mm 5,9 UV-I 742 W/m² 10,9 °C 26,4 °C 14,5 km/h (3 Bft)
06.07.2019 11:19 26,5 °C 42 % 1010,0 hPa 0,0 mm 7,3 km/h (2 Bft) NW 323 ° 1 min 0,000 mm 6,3 UV-I 742 W/m² 12,5 °C 26,5 °C 14,5 km/h (3 Bft)
06.07.2019 11:20 26,5 °C 41 % 1010,0 hPa 0,0 mm 5,4 km/h (1 Bft) NW 323 ° 1 min 0,000 mm 6,3 UV-I 874 W/m² 12,2 °C 26,5 °C 9,7 km/h (2 Bft)
06.07.2019 11:21 26,6 °C 38 % 1009,9 hPa 0,0 mm 5,4 km/h (1 Bft) W-NW 293 ° 1 min 0,000 mm 5,8 UV-I 789 W/m² 11,1 °C 26,6 °C 8,0 km/h (2 Bft)
06.07.2019 11:22 26,7 °C 44 % 1009,9 hPa 0,0 mm 6,4 km/h (2 Bft) NW 319 ° 1 min 0,000 mm 5,7 UV-I 761 W/m² 13,4 °C 26,7 °C 11,3 km/h (2 Bft)
06.07.2019 11:23 26,8 °C 41 % 1009,9 hPa 0,0 mm 6,0 km/h (2 Bft) W-NW 302 ° 1 min 0,000 mm 5,0 UV-I 761 W/m² 12,4 °C 26,8 °C 6,4 km/h (2 Bft)
06.07.2019 11:24 26,8 °C 40 % 1009,9 hPa 0,0 mm 9,6 km/h (2 Bft) NW 308 ° 1 min 0,000 mm 5,6 UV-I 761 W/m² 12,1 °C 26,8 °C 16,1 km/h (3 Bft)
06.07.2019 11:25 26,7 °C 40 % 1010,0 hPa 0,0 mm 8,4 km/h (2 Bft) W 280 ° 1 min 0,000 mm 5,4 UV-I 677 W/m² 12,0 °C 26,7 °C 14,5 km/h (3 Bft)
06.07.2019 11:26 26,7 °C 39 % 1010,0 hPa 0,0 mm 7,9 km/h (2 Bft) W 263 ° 1 min 0,000 mm 5,4 UV-I 670 W/m² 11,6 °C 26,7 °C 16,1 km/h (3 Bft)
06.07.2019 11:27 26,6 °C 43 % 1010,0 hPa 0,0 mm 11,0 km/h (2 Bft) W-NW 287 ° 1 min 0,000 mm 5,6 UV-I 722 W/m² 13,0 °C 26,6 °C 22,5 km/h (4 Bft)
06.07.2019 11:28 26,6 °C 39 % 1010,0 hPa 0,0 mm 15,4 km/h (3 Bft) W-NW 288 ° 1 min 0,000 mm 6,0 UV-I 786 W/m² 11,5 °C 26,6 °C 19,3 km/h (3 Bft)
06.07.2019 11:29 26,6 °C 38 % 1009,9 hPa 0,0 mm 11,7 km/h (2 Bft) W-NW 288 ° 1 min 0,000 mm 6,3 UV-I 823 W/m² 11,1 °C 26,6 °C 16,1 km/h (3 Bft)
06.07.2019 11:30 26,5 °C 37 % 1010,0 hPa 0,0 mm 6,9 km/h (2 Bft) NW 323 ° 1 min 0,000 mm 6,1 UV-I 828 W/m² 10,6 °C 26,5 °C 16,1 km/h (3 Bft)
06.07.2019 11:31 26,6 °C 38 % 1009,9 hPa 0,0 mm 6,7 km/h (2 Bft) W-NW 296 ° 1 min 0,000 mm 5,9 UV-I 752 W/m² 11,1 °C 26,6 °C 12,9 km/h (3 Bft)
06.07.2019 11:32 26,7 °C 39 % 1010,0 hPa 0,0 mm 12,9 km/h (3 Bft) W-SW 258 ° 1 min 0,000 mm 6,0 UV-I 782 W/m² 11,6 °C 26,7 °C 19,3 km/h (3 Bft)
06.07.2019 11:33 26,7 °C 36 % 1010,0 hPa 0,0 mm 12,3 km/h (3 Bft) W 276 ° 1 min 0,000 mm 5,6 UV-I 782 W/m² 10,4 °C 26,7 °C 17,7 km/h (3 Bft)
06.07.2019 11:34 26,6 °C 37 % 1010,0 hPa 0,0 mm 10,2 km/h (2 Bft) W-NW 286 ° 1 min 0,000 mm 5,4 UV-I 698 W/m² 10,7 °C 26,6 °C 14,5 km/h (3 Bft)
06.07.2019 11:35 26,5 °C 37 % 1010,0 hPa 0,0 mm 7,1 km/h (2 Bft) NW 309 ° 0 min 0,000 mm 4,8 UV-I 503 W/m² 10,6 °C 26,5 °C 14,5 km/h (3 Bft)
06.07.2019 11:36 26,4 °C 37 % 1010,0 hPa 0,0 mm 7,8 km/h (2 Bft) W-NW 291 ° 1 min 0,000 mm 5,2 UV-I 601 W/m² 10,5 °C 26,4 °C 16,1 km/h (3 Bft)
06.07.2019 11:37 26,3 °C 38 % 1010,0 hPa 0,0 mm 7,8 km/h (2 Bft) W 281 ° 0 min 0,000 mm 5,0 UV-I 596 W/m² 10,8 °C 26,3 °C 12,9 km/h (3 Bft)
06.07.2019 11:38 26,3 °C 38 % 1010,0 hPa 0,0 mm 11,7 km/h (2 Bft) W 261 ° 1 min 0,000 mm 5,4 UV-I 631 W/m² 10,8 °C 26,3 °C 17,7 km/h (3 Bft)
06.07.2019 11:39 26,3 °C 41 % 1010,0 hPa 0,0 mm 10,9 km/h (2 Bft) W-NW 283 ° 1 min 0,000 mm 5,5 UV-I 687 W/m² 12,0 °C 26,3 °C 16,1 km/h (3 Bft)
06.07.2019 11:40 26,2 °C 40 % 1010,0 hPa 0,0 mm 12,4 km/h (3 Bft) W-SW 254 ° 1 min 0,000 mm 5,7 UV-I 694 W/m² 11,5 °C 26,2 °C 22,5 km/h (4 Bft)
06.07.2019 11:41 26,2 °C 38 % 1010,0 hPa 0,0 mm 10,6 km/h (2 Bft) W 276 ° 1 min 0,000 mm 5,7 UV-I 682 W/m² 10,7 °C 26,2 °C 17,7 km/h (3 Bft)
06.07.2019 11:42 26,3 °C 40 % 1010,0 hPa 0,0 mm 5,1 km/h (1 Bft) W 270 ° 1 min 0,000 mm 5,7 UV-I 722 W/m² 11,6 °C 26,3 °C 11,3 km/h (2 Bft)
06.07.2019 11:43 26,3 °C 40 % 1010,0 hPa 0,0 mm 8,0 km/h (2 Bft) NW 314 ° 1 min 0,000 mm 5,8 UV-I 729 W/m² 11,6 °C 26,3 °C 14,5 km/h (3 Bft)
06.07.2019 11:44 26,3 °C 41 % 1009,9 hPa 0,0 mm 7,6 km/h (2 Bft) NW 306 ° 1 min 0,000 mm 5,8 UV-I 708 W/m² 12,0 °C 26,3 °C 16,1 km/h (3 Bft)
06.07.2019 11:45 26,4 °C 42 % 1009,9 hPa 0,0 mm 3,1 km/h (1 Bft) W-NW 286 ° 1 min 0,000 mm 5,9 UV-I 737 W/m² 12,4 °C 26,4 °C 6,4 km/h (2 Bft)
06.07.2019 11:46 26,4 °C 43 % 1009,9 hPa 0,0 mm 5,3 km/h (1 Bft) W 259 ° 1 min 0,000 mm 6,1 UV-I 788 W/m² 12,8 °C 26,4 °C 11,3 km/h (2 Bft)
06.07.2019 11:47 26,4 °C 40 % 1009,9 hPa 0,0 mm 9,2 km/h (2 Bft) W-NW 292 ° 1 min 0,000 mm 6,4 UV-I 810 W/m² 11,7 °C 26,4 °C 14,5 km/h (3 Bft)
06.07.2019 11:48 26,6 °C 43 % 1009,9 hPa 0,0 mm 6,6 km/h (2 Bft) NW 320 ° 1 min 0,000 mm 6,4 UV-I 826 W/m² 13,0 °C 26,6 °C 9,7 km/h (2 Bft)
06.07.2019 11:49 26,6 °C 43 % 1009,9 hPa 0,0 mm 4,0 km/h (1 Bft) W-NW 298 ° 1 min 0,000 mm 6,4 UV-I 819 W/m² 13,0 °C 26,6 °C 4,8 km/h (1 Bft)
06.07.2019 11:50 26,8 °C 43 % 1009,9 hPa 0,0 mm 7,8 km/h (2 Bft) W 273 ° 1 min 0,000 mm 6,5 UV-I 833 W/m² 13,2 °C 26,8 °C 14,5 km/h (3 Bft)
06.07.2019 11:51 26,8 °C 39 % 1009,9 hPa 0,0 mm 8,0 km/h (2 Bft) W-NW 294 ° 1 min 0,000 mm 6,5 UV-I 826 W/m² 11,7 °C 26,8 °C 12,9 km/h (3 Bft)
06.07.2019 11:52 26,8 °C 39 % 1009,9 hPa 0,0 mm 5,5 km/h (1 Bft) W-NW 286 ° 1 min 0,000 mm 6,5 UV-I 824 W/m² 11,7 °C 26,8 °C 11,3 km/h (2 Bft)
06.07.2019 11:53 26,7 °C 39 % 1009,9 hPa 0,0 mm 6,4 km/h (2 Bft) W 268 ° 1 min 0,000 mm 6,5 UV-I 823 W/m² 11,6 °C 26,7 °C 11,3 km/h (2 Bft)
06.07.2019 11:54 26,7 °C 41 % 1009,9 hPa 0,0 mm 8,6 km/h (2 Bft) W 277 ° 1 min 0,000 mm 6,6 UV-I 830 W/m² 12,3 °C 26,7 °C 16,1 km/h (3 Bft)
06.07.2019 11:55 26,8 °C 42 % 1009,9 hPa 0,0 mm 6,9 km/h (2 Bft) W-NW 296 ° 1 min 0,000 mm 6,5 UV-I 833 W/m² 12,8 °C 26,8 °C 12,9 km/h (3 Bft)
06.07.2019 11:56 26,9 °C 41 % 1009,9 hPa 0,0 mm 8,0 km/h (2 Bft) N-NO 25 ° 1 min 0,000 mm 6,5 UV-I 823 W/m² 12,5 °C 26,9 °C 16,1 km/h (3 Bft)
06.07.2019 11:57 26,9 °C 40 % 1009,9 hPa 0,0 mm 9,4 km/h (2 Bft) NW 308 ° 1 min 0,000 mm 6,5 UV-I 817 W/m² 12,1 °C 26,9 °C 17,7 km/h (3 Bft)
06.07.2019 11:58 27,0 °C 41 % 1009,8 hPa 0,0 mm 12,1 km/h (2 Bft) W-SW 254 ° 1 min 0,000 mm 6,6 UV-I 842 W/m² 12,6 °C 27,0 °C 19,3 km/h (3 Bft)
06.07.2019 11:59 27,1 °C 45 % 1009,8 hPa 0,0 mm 11,9 km/h (2 Bft) W-NW 296 ° 1 min 0,000 mm 6,6 UV-I 824 W/m² 14,1 °C 27,1 °C 16,1 km/h (3 Bft)
06.07.2019 12:00 27,1 °C 43 % 1009,8 hPa 0,0 mm 6,1 km/h (2 Bft) W 267 ° 1 min 0,559 mm 6,6 UV-I 828 W/m² 13,4 °C 27,1 °C 14,5 km/h (3 Bft)
06.07.2019 12:01 27,1 °C 43 % 1009,8 hPa 0,0 mm 5,9 km/h (2 Bft) W 267 ° 1 min 0,000 mm 6,6 UV-I 837 W/m² 13,4 °C 27,1 °C 12,9 km/h (3 Bft)
06.07.2019 12:02 27,1 °C 39 % 1009,8 hPa 0,0 mm 5,2 km/h (1 Bft) NW 326 ° 1 min 0,000 mm 6,6 UV-I 826 W/m² 11,9 °C 27,1 °C 9,7 km/h (2 Bft)
06.07.2019 12:03 27,1 °C 43 % 1009,7 hPa 0,0 mm 4,6 km/h (1 Bft) W-NW 296 ° 1 min 0,000 mm 6,6 UV-I 821 W/m² 13,4 °C 27,1 °C 9,7 km/h (2 Bft)
06.07.2019 12:04 27,3 °C 43 % 1009,7 hPa 0,0 mm 9,4 km/h (2 Bft) N-NW 337 ° 1 min 0,000 mm 6,7 UV-I 849 W/m² 13,6 °C 27,3 °C 12,9 km/h (3 Bft)
06.07.2019 12:05 27,3 °C 44 % 1009,8 hPa 0,0 mm 8,3 km/h (2 Bft) W 275 ° 1 min 0,000 mm 6,8 UV-I 863 W/m² 14,0 °C 27,3 °C 12,9 km/h (3 Bft)
06.07.2019 12:06 27,3 °C 39 % 1009,7 hPa 0,0 mm 8,2 km/h (2 Bft) W-SW 254 ° 1 min 0,000 mm 6,9 UV-I 872 W/m² 12,1 °C 27,3 °C 12,9 km/h (3 Bft)
06.07.2019 12:07 27,3 °C 42 % 1009,7 hPa 0,0 mm 7,9 km/h (2 Bft) W 271 ° 1 min 0,000 mm 6,9 UV-I 875 W/m² 13,2 °C 27,3 °C 14,5 km/h (3 Bft)
06.07.2019 12:08 27,3 °C 45 % 1009,7 hPa 0,0 mm 8,5 km/h (2 Bft) W-NW 299 ° 1 min 0,000 mm 6,9 UV-I 870 W/m² 14,3 °C 27,3 °C 14,5 km/h (3 Bft)
06.07.2019 12:09 27,4 °C 40 % 1009,7 hPa 0,0 mm 10,7 km/h (2 Bft) W-NW 302 ° 1 min 0,000 mm 6,9 UV-I 872 W/m² 12,6 °C 27,4 °C 16,1 km/h (3 Bft)
06.07.2019 12:10 27,4 °C 45 % 1009,7 hPa 0,0 mm 12,0 km/h (2 Bft) W-NW 294 ° 1 min 0,000 mm 6,9 UV-I 874 W/m² 14,4 °C 27,4 °C 16,1 km/h (3 Bft)
06.07.2019 12:11 27,3 °C 40 % 1009,7 hPa 0,0 mm 13,0 km/h (3 Bft) W-NW 288 ° 1 min 0,000 mm 6,9 UV-I 870 W/m² 12,5 °C 27,3 °C 16,1 km/h (3 Bft)
06.07.2019 12:12 27,3 °C 38 % 1009,7 hPa 0,0 mm 16,0 km/h (3 Bft) W 279 ° 1 min 0,000 mm 6,9 UV-I 867 W/m² 11,7 °C 27,3 °C 20,9 km/h (4 Bft)
06.07.2019 12:13 27,2 °C 41 % 1009,7 hPa 0,0 mm 8,7 km/h (2 Bft) W 271 ° 1 min 0,000 mm 6,9 UV-I 868 W/m² 12,8 °C 27,2 °C 14,5 km/h (3 Bft)
06.07.2019 12:14 27,2 °C 38 % 1009,7 hPa 0,0 mm 15,1 km/h (3 Bft) W-NW 296 ° 1 min 0,000 mm 6,9 UV-I 870 W/m² 11,6 °C 27,2 °C 20,9 km/h (4 Bft)
06.07.2019 12:15 27,2 °C 38 % 1009,7 hPa 0,0 mm 12,8 km/h (3 Bft) W-SW 256 ° 1 min 0,000 mm 6,9 UV-I 874 W/m² 11,6 °C 27,2 °C 19,3 km/h (3 Bft)
06.07.2019 12:16 27,2 °C 40 % 1009,7 hPa 0,0 mm 12,8 km/h (3 Bft) W-NW 302 ° 1 min 0,000 mm 7,0 UV-I 872 W/m² 12,4 °C 27,2 °C 20,9 km/h (4 Bft)
06.07.2019 12:17 27,2 °C 41 % 1009,7 hPa 0,0 mm 7,9 km/h (2 Bft) W-NW 284 ° 1 min 0,000 mm 6,9 UV-I 870 W/m² 12,8 °C 27,2 °C 16,1 km/h (3 Bft)
06.07.2019 12:18 27,2 °C 41 % 1009,7 hPa 0,0 mm 10,0 km/h (2 Bft) W 280 ° 1 min 0,000 mm 6,9 UV-I 870 W/m² 12,8 °C 27,2 °C 14,5 km/h (3 Bft)
06.07.2019 12:19 27,3 °C 42 % 1009,7 hPa 0,0 mm 10,7 km/h (2 Bft) W 261 ° 1 min 0,000 mm 6,9 UV-I 872 W/m² 13,2 °C 27,3 °C 19,3 km/h (3 Bft)
06.07.2019 12:20 27,4 °C 39 % 1009,7 hPa 0,0 mm 14,0 km/h (3 Bft) W 281 ° 1 min 0,000 mm 7,0 UV-I 874 W/m² 12,2 °C 27,4 °C 24,1 km/h (4 Bft)
06.07.2019 12:21 27,4 °C 41 % 1009,7 hPa 0,0 mm 11,4 km/h (2 Bft) W 263 ° 1 min 0,000 mm 7,0 UV-I 870 W/m² 13,0 °C 27,4 °C 20,9 km/h (4 Bft)
06.07.2019 12:22 27,3 °C 38 % 1009,7 hPa 0,0 mm 5,2 km/h (1 Bft) NW 305 ° 1 min 0,000 mm 7,0 UV-I 875 W/m² 11,7 °C 27,3 °C 16,1 km/h (3 Bft)
06.07.2019 12:23 27,3 °C 39 % 1009,6 hPa 0,0 mm 0,0 km/h (0 Bft) NW 317 ° 1 min 0,000 mm 7,0 UV-I 868 W/m² 12,1 °C 27,3 °C 0,0 km/h (0 Bft)
06.07.2019 12:24 27,3 °C 42 % 1009,6 hPa 0,0 mm 3,6 km/h (1 Bft) W-NW 286 ° 1 min 0,000 mm 7,0 UV-I 877 W/m² 13,2 °C 27,3 °C 11,3 km/h (2 Bft)
06.07.2019 12:25 27,3 °C 41 % 1009,6 hPa 0,0 mm 7,0 km/h (2 Bft) NW 321 ° 1 min 0,000 mm 7,1 UV-I 881 W/m² 12,9 °C 27,3 °C 12,9 km/h (3 Bft)
06.07.2019 12:26 27,4 °C 41 % 1009,6 hPa 0,0 mm 8,9 km/h (2 Bft) W 271 ° 1 min 0,000 mm 7,1 UV-I 884 W/m² 13,0 °C 27,4 °C 16,1 km/h (3 Bft)
06.07.2019 12:27 27,4 °C 39 % 1009,5 hPa 0,0 mm 3,1 km/h (1 Bft) NW 304 ° 1 min 0,000 mm 7,1 UV-I 884 W/m² 12,2 °C 27,4 °C 9,7 km/h (2 Bft)
06.07.2019 12:28 27,4 °C 41 % 1009,5 hPa 0,0 mm 9,7 km/h (2 Bft) W-NW 299 ° 1 min 0,000 mm 7,1 UV-I 884 W/m² 13,0 °C 27,4 °C 16,1 km/h (3 Bft)
06.07.2019 12:29 27,4 °C 41 % 1009,5 hPa 0,0 mm 6,0 km/h (2 Bft) W-NW 288 ° 1 min 0,000 mm 6,8 UV-I 889 W/m² 13,0 °C 27,4 °C 20,9 km/h (4 Bft)
06.07.2019 12:30 27,4 °C 39 % 1009,5 hPa 0,0 mm 7,5 km/h (2 Bft) W-NW 292 ° 1 min 0,000 mm 7,1 UV-I 891 W/m² 12,2 °C 27,4 °C 19,3 km/h (3 Bft)
06.07.2019 12:31 27,4 °C 39 % 1009,5 hPa 0,0 mm 3,1 km/h (1 Bft) N-NW 335 ° 1 min 0,000 mm 7,0 UV-I 888 W/m² 12,2 °C 27,4 °C 6,4 km/h (2 Bft)
06.07.2019 12:32 27,4 °C 40 % 1009,5 hPa 0,0 mm 5,6 km/h (1 Bft) NW 319 ° 1 min 0,000 mm 7,2 UV-I 896 W/m² 12,6 °C 27,4 °C 11,3 km/h (2 Bft)
06.07.2019 12:33 27,4 °C 39 % 1009,5 hPa 0,0 mm 8,9 km/h (2 Bft) W-NW 293 ° 1 min 0,000 mm 7,2 UV-I 891 W/m² 12,2 °C 27,4 °C 16,1 km/h (3 Bft)
06.07.2019 12:34 27,6 °C 42 % 1009,5 hPa 0,0 mm 10,6 km/h (2 Bft) NW 304 ° 1 min 0,000 mm 7,2 UV-I 898 W/m² 13,5 °C 27,6 °C 14,5 km/h (3 Bft)
06.07.2019 12:35 27,7 °C 41 % 1009,5 hPa 0,0 mm 11,9 km/h (2 Bft) W 274 ° 1 min 0,000 mm 7,2 UV-I 898 W/m² 13,2 °C 27,7 °C 17,7 km/h (3 Bft)
06.07.2019 12:36 27,7 °C 39 % 1009,5 hPa 0,0 mm 8,8 km/h (2 Bft) W 281 ° 1 min 0,000 mm 7,1 UV-I 902 W/m² 12,5 °C 27,7 °C 12,9 km/h (3 Bft)
06.07.2019 12:37 27,7 °C 41 % 1009,5 hPa 0,0 mm 10,9 km/h (2 Bft) N-NW 327 ° 1 min 0,000 mm 6,9 UV-I 882 W/m² 13,2 °C 27,7 °C 14,5 km/h (3 Bft)
06.07.2019 12:38 27,7 °C 40 % 1009,5 hPa 0,0 mm 11,8 km/h (2 Bft) NW 309 ° 1 min 0,000 mm 7,2 UV-I 930 W/m² 12,9 °C 27,7 °C 19,3 km/h (3 Bft)
06.07.2019 12:39 27,7 °C 42 % 1009,5 hPa 0,0 mm 16,1 km/h (3 Bft) W 259 ° 1 min 0,000 mm 5,7 UV-I 930 W/m² 13,6 °C 27,7 °C 24,1 km/h (4 Bft)
06.07.2019 12:40 27,7 °C 41 % 1009,5 hPa 0,0 mm 9,5 km/h (2 Bft) N-NW 347 ° 1 min 0,000 mm 6,3 UV-I 930 W/m² 13,2 °C 27,7 °C 16,1 km/h (3 Bft)
06.07.2019 12:41 27,7 °C 39 % 1009,5 hPa 0,0 mm 7,6 km/h (2 Bft) W-NW 298 ° 1 min 0,000 mm 6,7 UV-I 694 W/m² 12,5 °C 27,7 °C 12,9 km/h (3 Bft)
06.07.2019 12:42 27,6 °C 40 % 1009,4 hPa 0,0 mm 11,7 km/h (2 Bft) W 281 ° 1 min 0,000 mm 6,5 UV-I 675 W/m² 12,8 °C 27,6 °C 19,3 km/h (3 Bft)
06.07.2019 12:43 27,6 °C 41 % 1009,4 hPa 0,0 mm 9,7 km/h (2 Bft) W 265 ° 1 min 0,000 mm 7,0 UV-I 675 W/m² 13,1 °C 27,6 °C 22,5 km/h (4 Bft)
06.07.2019 12:44 27,6 °C 40 % 1009,4 hPa 0,0 mm 13,8 km/h (3 Bft) NW 308 ° 1 min 0,000 mm 6,9 UV-I 849 W/m² 12,8 °C 27,6 °C 19,3 km/h (3 Bft)
06.07.2019 12:45 27,4 °C 35 % 1009,5 hPa 0,0 mm 11,2 km/h (2 Bft) NW 318 ° 1 min 0,000 mm 6,4 UV-I 810 W/m² 10,6 °C 27,4 °C 17,7 km/h (3 Bft)
06.07.2019 12:46 27,3 °C 38 % 1009,5 hPa 0,0 mm 6,3 km/h (2 Bft) NW 304 ° 1 min 0,000 mm 6,7 UV-I 796 W/m² 11,7 °C 27,3 °C 11,3 km/h (2 Bft)
06.07.2019 12:47 27,3 °C 35 % 1009,4 hPa 0,0 mm 3,8 km/h (1 Bft) W-NW 298 ° 1 min 0,000 mm 6,7 UV-I 809 W/m² 10,5 °C 27,3 °C 9,7 km/h (2 Bft)
06.07.2019 12:48 27,3 °C 39 % 1009,4 hPa 0,0 mm 9,0 km/h (2 Bft) W 278 ° 1 min 0,000 mm 6,9 UV-I 844 W/m² 12,1 °C 27,3 °C 16,1 km/h (3 Bft)
06.07.2019 12:49 27,3 °C 37 % 1009,4 hPa 0,0 mm 20,7 km/h (4 Bft) W-SW 257 ° 1 min 0,000 mm 7,0 UV-I 875 W/m² 11,3 °C 27,3 °C 25,7 km/h (4 Bft)
06.07.2019 12:50 27,4 °C 39 % 1009,4 hPa 0,0 mm 17,5 km/h (3 Bft) W 265 ° 1 min 0,000 mm 6,4 UV-I 875 W/m² 12,2 °C 27,4 °C 25,7 km/h (4 Bft)
06.07.2019 12:51 27,3 °C 37 % 1009,4 hPa 0,0 mm 16,2 km/h (3 Bft) W-NW 294 ° 1 min 0,000 mm 6,1 UV-I 638 W/m² 11,3 °C 27,3 °C 22,5 km/h (4 Bft)
06.07.2019 12:52 27,3 °C 37 % 1009,3 hPa 0,0 mm 12,5 km/h (3 Bft) W-NW 286 ° 1 min 0,000 mm 6,5 UV-I 638 W/m² 11,3 °C 27,3 °C 20,9 km/h (4 Bft)
06.07.2019 12:53 27,3 °C 38 % 1009,3 hPa 0,0 mm 9,3 km/h (2 Bft) W-NW 299 ° 1 min 0,000 mm 6,7 UV-I 817 W/m² 11,7 °C 27,3 °C 12,9 km/h (3 Bft)
06.07.2019 12:54 27,4 °C 38 % 1009,3 hPa 0,0 mm 10,6 km/h (2 Bft) W-NW 290 ° 1 min 0,000 mm 6,9 UV-I 851 W/m² 11,8 °C 27,4 °C 14,5 km/h (3 Bft)
06.07.2019 12:55 27,4 °C 38 % 1009,4 hPa 0,0 mm 10,8 km/h (2 Bft) W-NW 284 ° 1 min 0,000 mm 6,8 UV-I 833 W/m² 11,8 °C 27,4 °C 16,1 km/h (3 Bft)
06.07.2019 12:56 27,5 °C 40 % 1009,4 hPa 0,0 mm 8,4 km/h (2 Bft) W-NW 300 ° 1 min 0,000 mm 6,9 UV-I 802 W/m² 12,7 °C 27,5 °C 12,9 km/h (3 Bft)
06.07.2019 12:57 27,6 °C 41 % 1009,4 hPa 0,0 mm 6,4 km/h (2 Bft) W 259 ° 1 min 0,000 mm 7,2 UV-I 884 W/m² 13,1 °C 27,6 °C 9,7 km/h (2 Bft)
06.07.2019 12:58 27,6 °C 37 % 1009,3 hPa 0,0 mm 8,0 km/h (2 Bft) W-SW 250 ° 1 min 0,000 mm 7,7 UV-I 884 W/m² 11,6 °C 27,6 °C 16,1 km/h (3 Bft)
06.07.2019 12:59 27,6 °C 39 % 1009,3 hPa 0,0 mm 8,2 km/h (2 Bft) W 271 ° 1 min 0,000 mm 6,9 UV-I 884 W/m² 12,4 °C 27,6 °C 19,3 km/h (3 Bft)
06.07.2019 13:00 27,7 °C 38 % 1009,4 hPa 0,0 mm 16,9 km/h (3 Bft) W-NW 295 ° 1 min 0,635 mm 7,5 UV-I 884 W/m² 12,1 °C 27,7 °C 27,4 km/h (4 Bft)
06.07.2019 13:01 27,6 °C 36 % 1009,3 hPa 0,0 mm 17,9 km/h (3 Bft) W 269 ° 1 min 0,000 mm 6,5 UV-I 884 W/m² 11,2 °C 27,6 °C 29,0 km/h (5 Bft)
06.07.2019 13:02 27,6 °C 36 % 1009,3 hPa 0,0 mm 13,9 km/h (3 Bft) W-NW 290 ° 1 min 0,000 mm 7,5 UV-I 902 W/m² 11,2 °C 27,6 °C 22,5 km/h (4 Bft)
06.07.2019 13:03 27,6 °C 38 % 1009,4 hPa 0,0 mm 13,5 km/h (3 Bft) NW 313 ° 1 min 0,000 mm 6,9 UV-I 902 W/m² 12,0 °C 27,6 °C 27,4 km/h (4 Bft)
06.07.2019 13:04 27,6 °C 37 % 1009,4 hPa 0,0 mm 16,5 km/h (3 Bft) W-SW 253 ° 1 min 0,000 mm 6,1 UV-I 775 W/m² 11,6 °C 27,6 °C 22,5 km/h (4 Bft)
06.07.2019 13:05 27,6 °C 38 % 1009,3 hPa 0,0 mm 12,9 km/h (3 Bft) W 268 ° 1 min 0,000 mm 6,1 UV-I 677 W/m² 12,0 °C 27,6 °C 19,3 km/h (3 Bft)
06.07.2019 13:06 27,5 °C 37 % 1009,4 hPa 0,0 mm 11,1 km/h (2 Bft) W-NW 286 ° 1 min 0,000 mm 7,0 UV-I 677 W/m² 11,5 °C 27,5 °C 17,7 km/h (3 Bft)
06.07.2019 13:07 27,4 °C 39 % 1009,3 hPa 0,0 mm 12,3 km/h (3 Bft) W 260 ° 1 min 0,000 mm 7,5 UV-I 912 W/m² 12,2 °C 27,4 °C 16,1 km/h (3 Bft)
06.07.2019 13:08 27,4 °C 37 % 1009,3 hPa 0,0 mm 13,9 km/h (3 Bft) NW 307 ° 1 min 0,000 mm 7,4 UV-I 942 W/m² 11,4 °C 27,4 °C 17,7 km/h (3 Bft)
06.07.2019 13:09 27,4 °C 36 % 1009,3 hPa 0,0 mm 8,1 km/h (2 Bft) N 350 ° 1 min 0,000 mm 7,4 UV-I 928 W/m² 11,0 °C 27,4 °C 16,1 km/h (3 Bft)
06.07.2019 13:10 27,4 °C 39 % 1009,3 hPa 0,0 mm 12,2 km/h (2 Bft) NW 315 ° 1 min 0,000 mm 6,5 UV-I 928 W/m² 12,2 °C 27,4 °C 20,9 km/h (4 Bft)
06.07.2019 13:11 27,6 °C 44 % 1009,3 hPa 0,0 mm 8,9 km/h (2 Bft) W-NW 288 ° 1 min 0,000 mm 7,6 UV-I 928 W/m² 14,2 °C 27,6 °C 14,5 km/h (3 Bft)
06.07.2019 13:12 27,7 °C 40 % 1009,3 hPa 0,0 mm 10,2 km/h (2 Bft) NW 319 ° 1 min 0,000 mm 7,0 UV-I 928 W/m² 12,9 °C 27,7 °C 16,1 km/h (3 Bft)
06.07.2019 13:13 27,8 °C 41 % 1009,3 hPa 0,0 mm 8,8 km/h (2 Bft) W-SW 254 ° 1 min 0,000 mm 7,0 UV-I 916 W/m² 13,3 °C 27,8 °C 14,5 km/h (3 Bft)
06.07.2019 13:14 27,9 °C 39 % 1009,3 hPa 0,0 mm 9,7 km/h (2 Bft) W-NW 290 ° 1 min 0,000 mm 6,9 UV-I 877 W/m² 12,6 °C 27,9 °C 17,7 km/h (3 Bft)
06.07.2019 13:15 27,8 °C 39 % 1009,3 hPa 0,0 mm 11,0 km/h (2 Bft) W-SW 247 ° 1 min 0,000 mm 6,9 UV-I 849 W/m² 12,6 °C 27,8 °C 19,3 km/h (3 Bft)
06.07.2019 13:16 27,8 °C 38 % 1009,3 hPa 0,0 mm 16,3 km/h (3 Bft) W 272 ° 1 min 0,000 mm 6,3 UV-I 831 W/m² 12,2 °C 27,8 °C 24,1 km/h (4 Bft)
06.07.2019 13:17 27,8 °C 39 % 1009,3 hPa 0,0 mm 8,8 km/h (2 Bft) NW 319 ° 1 min 0,000 mm 5,8 UV-I 831 W/m² 12,6 °C 27,8 °C 14,5 km/h (3 Bft)
06.07.2019 13:18 27,7 °C 39 % 1009,3 hPa 0,0 mm 13,1 km/h (3 Bft) W-NW 299 ° 0 min 0,000 mm 6,4 UV-I 570 W/m² 12,5 °C 27,7 °C 19,3 km/h (3 Bft)
06.07.2019 13:19 27,7 °C 37 % 1009,3 hPa 0,0 mm 18,7 km/h (3 Bft) W 271 ° 0 min 0,000 mm 6,7 UV-I 570 W/m² 11,7 °C 27,7 °C 24,1 km/h (4 Bft)
06.07.2019 13:20 27,7 °C 37 % 1009,3 hPa 0,0 mm 9,3 km/h (2 Bft) W-NW 296 ° 1 min 0,000 mm 6,8 UV-I 870 W/m² 11,7 °C 27,7 °C 16,1 km/h (3 Bft)
06.07.2019 13:21 27,7 °C 38 % 1009,4 hPa 0,0 mm 17,1 km/h (3 Bft) W-NW 289 ° 1 min 0,000 mm 5,8 UV-I 686 W/m² 12,1 °C 27,7 °C 32,2 km/h (5 Bft)
06.07.2019 13:22 27,7 °C 38 % 1009,4 hPa 0,0 mm 14,1 km/h (3 Bft) W 263 ° 1 min 0,000 mm 5,3 UV-I 652 W/m² 12,1 °C 27,7 °C 27,4 km/h (4 Bft)
06.07.2019 13:23 27,6 °C 37 % 1009,3 hPa 0,0 mm 14,4 km/h (3 Bft) W 261 ° 1 min 0,000 mm 4,8 UV-I 601 W/m² 11,6 °C 27,6 °C 27,4 km/h (4 Bft)
06.07.2019 13:24 27,5 °C 38 % 1009,3 hPa 0,0 mm 13,8 km/h (3 Bft) W 270 ° 1 min 0,000 mm 4,9 UV-I 621 W/m² 11,9 °C 27,5 °C 24,1 km/h (4 Bft)
06.07.2019 13:25 27,4 °C 37 % 1009,3 hPa 0,0 mm 8,2 km/h (2 Bft) N-NW 328 ° 1 min 0,000 mm 4,3 UV-I 621 W/m² 11,4 °C 27,4 °C 14,5 km/h (3 Bft)
06.07.2019 13:26 27,3 °C 39 % 1009,3 hPa 0,0 mm 8,1 km/h (2 Bft) W-SW 247 ° 0 min 0,000 mm 4,3 UV-I 485 W/m² 12,1 °C 27,3 °C 16,1 km/h (3 Bft)
06.07.2019 13:27 27,3 °C 38 % 1009,4 hPa 0,0 mm 16,1 km/h (3 Bft) W-NW 302 ° 0 min 0,000 mm 5,0 UV-I 468 W/m² 11,7 °C 27,3 °C 25,7 km/h (4 Bft)
06.07.2019 13:28 27,2 °C 36 % 1009,3 hPa 0,0 mm 11,9 km/h (2 Bft) NW 309 ° 0 min 0,000 mm 4,6 UV-I 538 W/m² 10,8 °C 27,2 °C 22,5 km/h (4 Bft)
06.07.2019 13:29 27,1 °C 37 % 1009,3 hPa 0,0 mm 12,4 km/h (3 Bft) W-NW 293 ° 0 min 0,000 mm 4,3 UV-I 464 W/m² 11,1 °C 27,1 °C 19,3 km/h (3 Bft)
06.07.2019 13:30 27,1 °C 39 % 1009,3 hPa 0,0 mm 8,6 km/h (2 Bft) W-NW 284 ° 0 min 0,000 mm 4,5 UV-I 478 W/m² 11,9 °C 27,1 °C 14,5 km/h (3 Bft)
06.07.2019 13:31 26,9 °C 39 % 1009,2 hPa 0,0 mm 7,6 km/h (2 Bft) W-NW 294 ° 0 min 0,000 mm 4,2 UV-I 454 W/m² 11,8 °C 26,9 °C 11,3 km/h (2 Bft)
06.07.2019 13:32 26,9 °C 38 % 1009,3 hPa 0,0 mm 7,0 km/h (2 Bft) NW 323 ° 0 min 0,000 mm 4,5 UV-I 552 W/m² 11,4 °C 26,9 °C 12,9 km/h (3 Bft)
06.07.2019 13:33 26,9 °C 41 % 1009,3 hPa 0,0 mm 13,2 km/h (3 Bft) W-NW 302 ° 1 min 0,000 mm 6,1 UV-I 795 W/m² 12,5 °C 26,9 °C 20,9 km/h (4 Bft)
06.07.2019 13:34 26,9 °C 40 % 1009,2 hPa 0,0 mm 11,5 km/h (2 Bft) NW 311 ° 1 min 0,000 mm 5,1 UV-I 795 W/m² 12,1 °C 26,9 °C 19,3 km/h (3 Bft)
06.07.2019 13:35 26,9 °C 40 % 1009,3 hPa 0,0 mm 11,6 km/h (2 Bft) W-NW 285 ° 1 min 0,000 mm 4,4 UV-I 795 W/m² 12,1 °C 26,9 °C 19,3 km/h (3 Bft)
06.07.2019 13:36 26,9 °C 39 % 1009,3 hPa 0,0 mm 12,7 km/h (3 Bft) NW 321 ° 0 min 0,000 mm 4,0 UV-I 438 W/m² 11,8 °C 26,9 °C 19,3 km/h (3 Bft)
06.07.2019 13:37 26,9 °C 38 % 1009,2 hPa 0,0 mm 9,3 km/h (2 Bft) W 274 ° 0 min 0,000 mm 3,9 UV-I 436 W/m² 11,4 °C 26,9 °C 20,9 km/h (4 Bft)
06.07.2019 13:38 26,8 °C 38 % 1009,2 hPa 0,0 mm 7,8 km/h (2 Bft) SW 215 ° 0 min 0,000 mm 3,8 UV-I 418 W/m² 11,3 °C 26,8 °C 22,5 km/h (4 Bft)
06.07.2019 13:39 26,7 °C 39 % 1009,3 hPa 0,0 mm 10,3 km/h (2 Bft) W 275 ° 0 min 0,000 mm 3,8 UV-I 424 W/m² 11,6 °C 26,7 °C 19,3 km/h (3 Bft)
06.07.2019 13:40 26,7 °C 42 % 1009,3 hPa 0,0 mm 8,2 km/h (2 Bft) W-NW 292 ° 0 min 0,000 mm 3,7 UV-I 396 W/m² 12,7 °C 26,7 °C 14,5 km/h (3 Bft)
06.07.2019 13:41 26,7 °C 40 % 1009,3 hPa 0,0 mm 4,5 km/h (1 Bft) N 350 ° 0 min 0,000 mm 3,6 UV-I 390 W/m² 12,0 °C 26,7 °C 8,0 km/h (2 Bft)
06.07.2019 13:42 26,6 °C 43 % 1009,3 hPa 0,0 mm 4,9 km/h (1 Bft) N 5 ° 0 min 0,000 mm 3,6 UV-I 397 W/m² 13,0 °C 26,6 °C 8,0 km/h (2 Bft)
06.07.2019 13:43 26,6 °C 42 % 1009,3 hPa 0,0 mm 8,4 km/h (2 Bft) W 276 ° 0 min 0,000 mm 3,5 UV-I 373 W/m² 12,6 °C 26,6 °C 17,7 km/h (3 Bft)
06.07.2019 13:44 26,6 °C 40 % 1009,2 hPa 0,0 mm 8,2 km/h (2 Bft) W-NW 291 ° 0 min 0,000 mm 3,6 UV-I 380 W/m² 11,9 °C 26,6 °C 12,9 km/h (3 Bft)
06.07.2019 13:45 26,6 °C 43 % 1009,2 hPa 0,0 mm 11,4 km/h (2 Bft) W 277 ° 0 min 0,000 mm 3,9 UV-I 413 W/m² 13,0 °C 26,6 °C 16,1 km/h (3 Bft)
06.07.2019 13:46 26,5 °C 40 % 1009,3 hPa 0,0 mm 9,4 km/h (2 Bft) W-NW 296 ° 0 min 0,000 mm 3,7 UV-I 401 W/m² 11,8 °C 26,5 °C 16,1 km/h (3 Bft)
06.07.2019 13:47 26,4 °C 40 % 1009,2 hPa 0,0 mm 8,1 km/h (2 Bft) W-NW 286 ° 0 min 0,000 mm 3,7 UV-I 401 W/m² 11,7 °C 26,4 °C 14,5 km/h (3 Bft)
06.07.2019 13:48 26,4 °C 45 % 1009,2 hPa 0,0 mm 7,4 km/h (2 Bft) NW 312 ° 0 min 0,000 mm 3,6 UV-I 387 W/m² 13,5 °C 26,4 °C 12,9 km/h (3 Bft)
06.07.2019 13:49 26,4 °C 42 % 1009,2 hPa 0,0 mm 6,3 km/h (2 Bft) W-NW 284 ° 0 min 0,000 mm 3,5 UV-I 374 W/m² 12,4 °C 26,4 °C 12,9 km/h (3 Bft)
06.07.2019 13:50 26,4 °C 42 % 1009,3 hPa 0,0 mm 6,8 km/h (2 Bft) NW 315 ° 0 min 0,000 mm 3,4 UV-I 362 W/m² 12,4 °C 26,4 °C 11,3 km/h (2 Bft)
06.07.2019 13:51 26,3 °C 42 % 1009,3 hPa 0,0 mm 6,8 km/h (2 Bft) NW 306 ° 0 min 0,000 mm 3,3 UV-I 362 W/m² 12,3 °C 26,3 °C 12,9 km/h (3 Bft)
06.07.2019 13:52 26,3 °C 43 % 1009,3 hPa 0,0 mm 10,1 km/h (2 Bft) NW 325 ° 0 min 0,000 mm 3,2 UV-I 345 W/m² 12,7 °C 26,3 °C 16,1 km/h (3 Bft)
06.07.2019 13:53 26,2 °C 41 % 1009,4 hPa 0,0 mm 14,0 km/h (3 Bft) NW 311 ° 0 min 0,000 mm 3,2 UV-I 343 W/m² 11,9 °C 26,2 °C 20,9 km/h (4 Bft)
06.07.2019 13:54 26,2 °C 40 % 1009,3 hPa 0,0 mm 18,2 km/h (3 Bft) NW 325 ° 0 min 0,000 mm 3,2 UV-I 343 W/m² 11,5 °C 26,2 °C 24,1 km/h (4 Bft)
06.07.2019 13:55 26,2 °C 40 % 1009,3 hPa 0,0 mm 7,4 km/h (2 Bft) W-NW 288 ° 0 min 0,000 mm 3,2 UV-I 336 W/m² 11,5 °C 26,2 °C 14,5 km/h (3 Bft)
06.07.2019 13:56 26,1 °C 42 % 1009,3 hPa 0,0 mm 11,3 km/h (2 Bft) W-SW 251 ° 0 min 0,000 mm 3,1 UV-I 329 W/m² 12,2 °C 26,1 °C 17,7 km/h (3 Bft)
06.07.2019 13:57 26,0 °C 44 % 1009,3 hPa 0,0 mm 14,2 km/h (3 Bft) SW 236 ° 0 min 0,000 mm 3,1 UV-I 323 W/m² 12,8 °C 26,0 °C 20,9 km/h (4 Bft)
06.07.2019 13:58 25,9 °C 41 % 1009,2 hPa 0,0 mm 14,8 km/h (3 Bft) W-NW 295 ° 0 min 0,000 mm 3,1 UV-I 318 W/m² 11,6 °C 25,9 °C 20,9 km/h (4 Bft)
06.07.2019 13:59 25,9 °C 40 % 1009,2 hPa 0,0 mm 10,2 km/h (2 Bft) W 271 ° 0 min 0,000 mm 3,1 UV-I 313 W/m² 11,3 °C 25,9 °C 17,7 km/h (3 Bft)
06.07.2019 14:00 25,8 °C 41 % 1009,3 hPa 0,0 mm 8,0 km/h (2 Bft) W-NW 283 ° 0 min 0,000 mm 3,1 UV-I 308 W/m² 11,5 °C 25,8 °C 14,5 km/h (3 Bft)
06.07.2019 14:01 25,8 °C 41 % 1009,2 hPa 0,0 mm 7,5 km/h (2 Bft) W-NW 300 ° 0 min 0,482 mm 3,0 UV-I 302 W/m² 11,5 °C 25,8 °C 14,5 km/h (3 Bft)
06.07.2019 14:02 25,8 °C 43 % 1009,2 hPa 0,0 mm 9,3 km/h (2 Bft) W-NW 284 ° 0 min 0,000 mm 3,0 UV-I 301 W/m² 12,3 °C 25,8 °C 14,5 km/h (3 Bft)
06.07.2019 14:03 25,8 °C 42 % 1009,2 hPa 0,0 mm 6,4 km/h (2 Bft) N-NW 330 ° 0 min 0,000 mm 2,9 UV-I 299 W/m² 11,9 °C 25,8 °C 12,9 km/h (3 Bft)
06.07.2019 14:04 25,7 °C 42 % 1009,2 hPa 0,0 mm 11,7 km/h (2 Bft) W 273 ° 0 min 0,000 mm 2,9 UV-I 297 W/m² 11,8 °C 25,7 °C 17,7 km/h (3 Bft)
06.07.2019 14:05 25,7 °C 42 % 1009,2 hPa 0,0 mm 11,0 km/h (2 Bft) W-NW 295 ° 0 min 0,000 mm 3,0 UV-I 301 W/m² 11,8 °C 25,7 °C 17,7 km/h (3 Bft)
06.07.2019 14:06 25,7 °C 41 % 1009,2 hPa 0,0 mm 11,9 km/h (2 Bft) NW 308 ° 0 min 0,000 mm 3,0 UV-I 306 W/m² 11,4 °C 25,7 °C 14,5 km/h (3 Bft)
06.07.2019 14:07 25,7 °C 43 % 1009,2 hPa 0,0 mm 10,9 km/h (2 Bft) W-NW 282 ° 0 min 0,000 mm 3,1 UV-I 316 W/m² 12,2 °C 25,7 °C 14,5 km/h (3 Bft)
06.07.2019 14:08 25,7 °C 43 % 1009,2 hPa 0,0 mm 6,8 km/h (2 Bft) W-NW 294 ° 0 min 0,000 mm 3,1 UV-I 322 W/m² 12,2 °C 25,7 °C 12,9 km/h (3 Bft)
06.07.2019 14:09 25,7 °C 43 % 1009,2 hPa 0,0 mm 9,6 km/h (2 Bft) NW 307 ° 0 min 0,000 mm 3,1 UV-I 320 W/m² 12,2 °C 25,7 °C 14,5 km/h (3 Bft)
06.07.2019 14:10 25,7 °C 44 % 1009,2 hPa 0,0 mm 10,3 km/h (2 Bft) W-NW 293 ° 0 min 0,000 mm 3,0 UV-I 316 W/m² 12,5 °C 25,7 °C 17,7 km/h (3 Bft)
06.07.2019 14:11 25,7 °C 39 % 1009,2 hPa 0,0 mm 15,7 km/h (3 Bft) W 279 ° 0 min 0,000 mm 3,0 UV-I 316 W/m² 10,7 °C 25,7 °C 20,9 km/h (4 Bft)
06.07.2019 14:12 25,7 °C 41 % 1009,2 hPa 0,0 mm 9,5 km/h (2 Bft) W 269 ° 0 min 0,000 mm 3,0 UV-I 316 W/m² 11,4 °C 25,7 °C 17,7 km/h (3 Bft)
06.07.2019 14:13 25,7 °C 41 % 1009,2 hPa 0,0 mm 12,6 km/h (3 Bft) W 275 ° 0 min 0,000 mm 2,9 UV-I 301 W/m² 11,4 °C 25,7 °C 20,9 km/h (4 Bft)
06.07.2019 14:14 25,8 °C 40 % 1009,1 hPa 0,0 mm 12,1 km/h (2 Bft) W 268 ° 0 min 0,000 mm 2,8 UV-I 295 W/m² 11,2 °C 25,8 °C 17,7 km/h (3 Bft)
06.07.2019 14:15 25,7 °C 40 % 1009,1 hPa 0,0 mm 12,1 km/h (2 Bft) W-NW 289 ° 0 min 0,000 mm 2,8 UV-I 295 W/m² 11,1 °C 25,7 °C 16,1 km/h (3 Bft)
06.07.2019 14:16 25,8 °C 41 % 1009,2 hPa 0,0 mm 11,7 km/h (2 Bft) W-NW 284 ° 0 min 0,000 mm 2,8 UV-I 301 W/m² 11,5 °C 25,8 °C 20,9 km/h (4 Bft)
06.07.2019 14:17 25,7 °C 41 % 1009,1 hPa 0,0 mm 11,4 km/h (2 Bft) W-NW 288 ° 0 min 0,000 mm 2,8 UV-I 308 W/m² 11,4 °C 25,7 °C 16,1 km/h (3 Bft)
06.07.2019 14:18 25,7 °C 40 % 1009,1 hPa 0,0 mm 11,3 km/h (2 Bft) NW 305 ° 0 min 0,000 mm 2,9 UV-I 325 W/m² 11,1 °C 25,7 °C 16,1 km/h (3 Bft)
06.07.2019 14:19 25,7 °C 43 % 1009,1 hPa 0,0 mm 9,5 km/h (2 Bft) W-NW 288 ° 0 min 0,000 mm 3,0 UV-I 339 W/m² 12,2 °C 25,7 °C 12,9 km/h (3 Bft)
06.07.2019 14:20 25,7 °C 42 % 1009,1 hPa 0,0 mm 6,0 km/h (2 Bft) NW 312 ° 0 min 0,000 mm 3,2 UV-I 355 W/m² 11,8 °C 25,7 °C 14,5 km/h (3 Bft)
06.07.2019 14:21 25,7 °C 43 % 1009,1 hPa 0,0 mm 9,1 km/h (2 Bft) NW 313 ° 0 min 0,000 mm 3,3 UV-I 369 W/m² 12,2 °C 25,7 °C 16,1 km/h (3 Bft)
06.07.2019 14:22 25,7 °C 41 % 1009,0 hPa 0,0 mm 9,5 km/h (2 Bft) W-NW 288 ° 0 min 0,000 mm 3,4 UV-I 378 W/m² 11,4 °C 25,7 °C 16,1 km/h (3 Bft)
06.07.2019 14:23 25,8 °C 42 % 1009,0 hPa 0,0 mm 12,5 km/h (3 Bft) W-NW 283 ° 0 min 0,000 mm 3,5 UV-I 401 W/m² 11,9 °C 25,8 °C 19,3 km/h (3 Bft)
06.07.2019 14:24 25,8 °C 40 % 1009,1 hPa 0,0 mm 14,0 km/h (3 Bft) W 269 ° 0 min 0,000 mm 3,6 UV-I 436 W/m² 11,2 °C 25,8 °C 17,7 km/h (3 Bft)
06.07.2019 14:25 25,8 °C 40 % 1009,1 hPa 0,0 mm 16,4 km/h (3 Bft) NW 311 ° 0 min 0,000 mm 4,0 UV-I 485 W/m² 11,2 °C 25,8 °C 19,3 km/h (3 Bft)
06.07.2019 14:26 25,9 °C 40 % 1009,0 hPa 0,0 mm 10,6 km/h (2 Bft) W-SW 248 ° 0 min 0,000 mm 3,9 UV-I 448 W/m² 11,3 °C 25,9 °C 16,1 km/h (3 Bft)
06.07.2019 14:27 25,9 °C 39 % 1009,1 hPa 0,0 mm 8,4 km/h (2 Bft) W-NW 282 ° 0 min 0,000 mm 4,1 UV-I 464 W/m² 10,9 °C 25,9 °C 12,9 km/h (3 Bft)
06.07.2019 14:28 25,9 °C 41 % 1009,1 hPa 0,0 mm 8,8 km/h (2 Bft) W 268 ° 0 min 0,000 mm 4,6 UV-I 554 W/m² 11,6 °C 25,9 °C 17,7 km/h (3 Bft)
06.07.2019 14:29 26,1 °C 41 % 1009,1 hPa 0,0 mm 10,0 km/h (2 Bft) W-SW 247 ° 0 min 0,000 mm 4,4 UV-I 526 W/m² 11,8 °C 26,1 °C 16,1 km/h (3 Bft)
06.07.2019 14:30 26,1 °C 42 % 1009,1 hPa 0,0 mm 10,3 km/h (2 Bft) W-NW 284 ° 1 min 0,000 mm 5,0 UV-I 617 W/m² 12,2 °C 26,1 °C 14,5 km/h (3 Bft)
06.07.2019 14:31 26,2 °C 43 % 1009,1 hPa 0,0 mm 9,6 km/h (2 Bft) NW 326 ° 1 min 0,000 mm 5,8 UV-I 617 W/m² 12,6 °C 26,2 °C 14,5 km/h (3 Bft)
06.07.2019 14:32 26,2 °C 42 % 1009,0 hPa 0,0 mm 9,6 km/h (2 Bft) W 278 ° 1 min 0,000 mm 6,2 UV-I 617 W/m² 12,3 °C 26,2 °C 14,5 km/h (3 Bft)
06.07.2019 14:33 26,4 °C 40 % 1009,0 hPa 0,0 mm 11,2 km/h (2 Bft) W 267 ° 1 min 0,000 mm 5,5 UV-I 617 W/m² 11,7 °C 26,4 °C 16,1 km/h (3 Bft)
06.07.2019 14:34 26,4 °C 40 % 1009,1 hPa 0,0 mm 13,9 km/h (3 Bft) W 265 ° 1 min 0,000 mm 6,7 UV-I 617 W/m² 11,7 °C 26,4 °C 19,3 km/h (3 Bft)
06.07.2019 14:35 26,6 °C 39 % 1009,0 hPa 0,0 mm 14,3 km/h (3 Bft) W 275 ° 1 min 0,000 mm 7,2 UV-I 1039 W/m² 11,5 °C 26,6 °C 25,7 km/h (4 Bft)
06.07.2019 14:36 26,6 °C 38 % 1009,0 hPa 0,0 mm 15,3 km/h (3 Bft) W 275 ° 1 min 0,000 mm 7,0 UV-I 1039 W/m² 11,1 °C 26,6 °C 24,1 km/h (4 Bft)
06.07.2019 14:37 26,7 °C 40 % 1009,0 hPa 0,0 mm 15,4 km/h (3 Bft) W-NW 289 ° 1 min 0,000 mm 5,3 UV-I 1039 W/m² 12,0 °C 26,7 °C 24,1 km/h (4 Bft)
06.07.2019 14:38 26,8 °C 39 % 1008,9 hPa 0,0 mm 13,7 km/h (3 Bft) W-SW 257 ° 1 min 0,000 mm 4,4 UV-I 1039 W/m² 11,7 °C 26,8 °C 24,1 km/h (4 Bft)
06.07.2019 14:39 26,8 °C 41 % 1008,9 hPa 0,0 mm 10,9 km/h (2 Bft) W-NW 298 ° 0 min 0,000 mm 4,3 UV-I 457 W/m² 12,4 °C 26,8 °C 14,5 km/h (3 Bft)
06.07.2019 14:40 26,7 °C 40 % 1008,9 hPa 0,0 mm 12,4 km/h (3 Bft) NW 314 ° 0 min 0,000 mm 4,3 UV-I 476 W/m² 12,0 °C 26,7 °C 19,3 km/h (3 Bft)
06.07.2019 14:41 26,7 °C 39 % 1008,9 hPa 0,0 mm 12,0 km/h (2 Bft) W-NW 300 ° 0 min 0,000 mm 4,0 UV-I 473 W/m² 11,6 °C 26,7 °C 19,3 km/h (3 Bft)
06.07.2019 14:42 26,6 °C 42 % 1008,9 hPa 0,0 mm 5,0 km/h (1 Bft) W 269 ° 0 min 0,000 mm 3,8 UV-I 396 W/m² 12,6 °C 26,6 °C 11,3 km/h (2 Bft)
06.07.2019 14:43 26,6 °C 41 % 1008,8 hPa 0,0 mm 12,0 km/h (2 Bft) W 267 ° 0 min 0,000 mm 3,8 UV-I 424 W/m² 12,2 °C 26,6 °C 17,7 km/h (3 Bft)
06.07.2019 14:44 26,4 °C 40 % 1008,9 hPa 0,0 mm 13,4 km/h (3 Bft) SW 235 ° 0 min 0,000 mm 4,7 UV-I 490 W/m² 11,7 °C 26,4 °C 20,9 km/h (4 Bft)
06.07.2019 14:45 26,4 °C 40 % 1008,9 hPa 0,0 mm 16,2 km/h (3 Bft) NW 305 ° 0 min 0,000 mm 5,1 UV-I 490 W/m² 11,7 °C 26,4 °C 24,1 km/h (4 Bft)
06.07.2019 14:46 26,4 °C 40 % 1008,9 hPa 0,0 mm 16,0 km/h (3 Bft) W-NW 290 ° 0 min 0,000 mm 4,0 UV-I 490 W/m² 11,7 °C 26,4 °C 29,0 km/h (5 Bft)
06.07.2019 14:47 26,4 °C 40 % 1008,8 hPa 0,0 mm 16,4 km/h (3 Bft) W 279 ° 0 min 0,000 mm 4,4 UV-I 499 W/m² 11,7 °C 26,4 °C 24,1 km/h (4 Bft)
06.07.2019 14:48 26,3 °C 39 % 1008,9 hPa 0,0 mm 13,2 km/h (3 Bft) W 274 ° 0 min 0,000 mm 4,4 UV-I 448 W/m² 11,2 °C 26,3 °C 20,9 km/h (4 Bft)
06.07.2019 14:49 26,3 °C 41 % 1008,8 hPa 0,0 mm 14,0 km/h (3 Bft) W 277 ° 0 min 0,000 mm 3,8 UV-I 422 W/m² 12,0 °C 26,3 °C 17,7 km/h (3 Bft)
06.07.2019 14:50 26,3 °C 40 % 1008,9 hPa 0,0 mm 13,5 km/h (3 Bft) W 273 ° 0 min 0,000 mm 3,7 UV-I 397 W/m² 11,6 °C 26,3 °C 17,7 km/h (3 Bft)
06.07.2019 14:51 26,2 °C 40 % 1008,8 hPa 0,0 mm 12,7 km/h (3 Bft) W 272 ° 0 min 0,000 mm 3,6 UV-I 381 W/m² 11,5 °C 26,2 °C 22,5 km/h (4 Bft)
06.07.2019 14:52 26,1 °C 42 % 1008,8 hPa 0,0 mm 12,7 km/h (3 Bft) W 263 ° 0 min 0,000 mm 3,6 UV-I 378 W/m² 12,2 °C 26,1 °C 17,7 km/h (3 Bft)
06.07.2019 14:53 26,1 °C 42 % 1008,8 hPa 0,0 mm 10,2 km/h (2 Bft) W-NW 287 ° 0 min 0,000 mm 3,6 UV-I 383 W/m² 12,2 °C 26,1 °C 14,5 km/h (3 Bft)
06.07.2019 14:54 26,0 °C 42 % 1008,8 hPa 0,0 mm 5,9 km/h (2 Bft) W-NW 287 ° 0 min 0,000 mm 3,8 UV-I 431 W/m² 12,1 °C 26,0 °C 14,5 km/h (3 Bft)
06.07.2019 14:55 26,0 °C 41 % 1008,8 hPa 0,0 mm 5,9 km/h (2 Bft) W-NW 294 ° 0 min 0,000 mm 4,7 UV-I 431 W/m² 11,7 °C 26,0 °C 9,7 km/h (2 Bft)
06.07.2019 14:56 26,0 °C 42 % 1008,8 hPa 0,0 mm 5,7 km/h (1 Bft) W 269 ° 0 min 0,000 mm 5,1 UV-I 431 W/m² 12,1 °C 26,0 °C 11,3 km/h (2 Bft)
06.07.2019 14:57 26,1 °C 45 % 1008,8 hPa 0,0 mm 7,8 km/h (2 Bft) NW 304 ° 0 min 0,000 mm 5,1 UV-I 431 W/m² 13,2 °C 26,1 °C 16,1 km/h (3 Bft)
06.07.2019 14:58 26,2 °C 43 % 1008,8 hPa 0,0 mm 13,4 km/h (3 Bft) W-NW 286 ° 0 min 0,000 mm 5,1 UV-I 431 W/m² 12,6 °C 26,2 °C 17,7 km/h (3 Bft)
06.07.2019 14:59 26,2 °C 44 % 1008,7 hPa 0,0 mm 9,5 km/h (2 Bft) W-SW 255 ° 0 min 0,000 mm 3,8 UV-I 469 W/m² 13,0 °C 26,2 °C 14,5 km/h (3 Bft)
06.07.2019 15:00 26,2 °C 45 % 1008,7 hPa 0,0 mm 12,7 km/h (3 Bft) W 273 ° 0 min 0,000 mm 4,0 UV-I 418 W/m² 13,3 °C 26,2 °C 19,3 km/h (3 Bft)
06.07.2019 15:01 26,2 °C 42 % 1008,6 hPa 0,0 mm 12,7 km/h (3 Bft) NW 324 ° 0 min 0,407 mm 3,6 UV-I 399 W/m² 12,3 °C 26,2 °C 24,1 km/h (4 Bft)
06.07.2019 15:02 26,2 °C 43 % 1008,7 hPa 0,0 mm 8,2 km/h (2 Bft) W-NW 301 ° 0 min 0,000 mm 3,6 UV-I 390 W/m² 12,6 °C 26,2 °C 14,5 km/h (3 Bft)
06.07.2019 15:03 26,1 °C 42 % 1008,7 hPa 0,0 mm 7,3 km/h (2 Bft) NW 305 ° 0 min 0,000 mm 3,6 UV-I 383 W/m² 12,2 °C 26,1 °C 11,3 km/h (2 Bft)
06.07.2019 15:04 26,1 °C 45 % 1008,7 hPa 0,0 mm 8,3 km/h (2 Bft) W 269 ° 0 min 0,000 mm 3,7 UV-I 390 W/m² 13,2 °C 26,1 °C 14,5 km/h (3 Bft)
06.07.2019 15:05 26,1 °C 44 % 1008,6 hPa 0,0 mm 10,7 km/h (2 Bft) W 263 ° 0 min 0,000 mm 3,9 UV-I 545 W/m² 12,9 °C 26,1 °C 17,7 km/h (3 Bft)
06.07.2019 15:06 26,1 °C 43 % 1008,6 hPa 0,0 mm 16,8 km/h (3 Bft) W-NW 293 ° 0 min 0,000 mm 4,2 UV-I 564 W/m² 12,5 °C 26,1 °C 25,7 km/h (4 Bft)
06.07.2019 15:07 26,0 °C 41 % 1008,6 hPa 0,0 mm 11,0 km/h (2 Bft) W-SW 255 ° 0 min 0,000 mm 4,1 UV-I 506 W/m² 11,7 °C 26,0 °C 20,9 km/h (4 Bft)
06.07.2019 15:08 26,0 °C 42 % 1008,7 hPa 0,0 mm 15,0 km/h (3 Bft) W-NW 303 ° 0 min 0,000 mm 4,1 UV-I 599 W/m² 12,1 °C 26,0 °C 22,5 km/h (4 Bft)
06.07.2019 15:09 26,0 °C 42 % 1008,7 hPa 0,0 mm 15,8 km/h (3 Bft) W 277 ° 0 min 0,000 mm 4,1 UV-I 599 W/m² 12,1 °C 26,0 °C 25,7 km/h (4 Bft)
06.07.2019 15:10 26,0 °C 43 % 1008,6 hPa 0,0 mm 8,0 km/h (2 Bft) W-NW 300 ° 0 min 0,000 mm 4,7 UV-I 547 W/m² 12,4 °C 26,0 °C 12,9 km/h (3 Bft)
06.07.2019 15:11 26,1 °C 43 % 1008,7 hPa 0,0 mm 8,6 km/h (2 Bft) W 269 ° 0 min 0,000 mm 4,6 UV-I 564 W/m² 12,5 °C 26,1 °C 14,5 km/h (3 Bft)
06.07.2019 15:12 26,1 °C 43 % 1008,6 hPa 0,0 mm 14,3 km/h (3 Bft) N-NW 328 ° 0 min 0,000 mm 4,0 UV-I 564 W/m² 12,5 °C 26,1 °C 22,5 km/h (4 Bft)
06.07.2019 15:13 26,1 °C 43 % 1008,6 hPa 0,0 mm 10,8 km/h (2 Bft) W 267 ° 0 min 0,000 mm 4,0 UV-I 478 W/m² 12,5 °C 26,1 °C 17,7 km/h (3 Bft)
06.07.2019 15:14 26,1 °C 44 % 1008,7 hPa 0,0 mm 14,3 km/h (3 Bft) W-NW 292 ° 0 min 0,000 mm 3,8 UV-I 450 W/m² 12,9 °C 26,1 °C 17,7 km/h (3 Bft)
06.07.2019 15:15 26,1 °C 43 % 1008,6 hPa 0,0 mm 11,6 km/h (2 Bft) W-NW 297 ° 0 min 0,000 mm 3,5 UV-I 396 W/m² 12,5 °C 26,1 °C 19,3 km/h (3 Bft)
06.07.2019 15:16 26,0 °C 44 % 1008,7 hPa 0,0 mm 11,2 km/h (2 Bft) W 281 ° 0 min 0,000 mm 3,6 UV-I 427 W/m² 12,8 °C 26,0 °C 16,1 km/h (3 Bft)
06.07.2019 15:17 25,9 °C 46 % 1008,6 hPa 0,0 mm 10,3 km/h (2 Bft) W 266 ° 0 min 0,000 mm 3,6 UV-I 464 W/m² 13,4 °C 25,9 °C 16,1 km/h (3 Bft)
06.07.2019 15:18 25,9 °C 42 % 1008,6 hPa 0,0 mm 9,2 km/h (2 Bft) W-NW 294 ° 0 min 0,000 mm 3,6 UV-I 439 W/m² 12,0 °C 25,9 °C 12,9 km/h (3 Bft)
06.07.2019 15:19 25,9 °C 43 % 1008,6 hPa 0,0 mm 8,4 km/h (2 Bft) W-SW 240 ° 0 min 0,000 mm 3,6 UV-I 457 W/m² 12,3 °C 25,9 °C 12,9 km/h (3 Bft)
06.07.2019 15:20 25,8 °C 43 % 1008,6 hPa 0,0 mm 12,2 km/h (2 Bft) W-SW 246 ° 0 min 0,000 mm 3,4 UV-I 457 W/m² 12,3 °C 25,8 °C 19,3 km/h (3 Bft)
06.07.2019 15:21 25,8 °C 46 % 1008,6 hPa 0,0 mm 9,7 km/h (2 Bft) W-NW 286 ° 0 min 0,000 mm 3,2 UV-I 374 W/m² 13,3 °C 25,8 °C 17,7 km/h (3 Bft)
06.07.2019 15:22 25,7 °C 44 % 1008,6 hPa 0,0 mm 9,9 km/h (2 Bft) NW 317 ° 0 min 0,000 mm 3,1 UV-I 360 W/m² 12,5 °C 25,7 °C 20,9 km/h (4 Bft)
06.07.2019 15:23 25,7 °C 43 % 1008,6 hPa 0,0 mm 8,1 km/h (2 Bft) NW 304 ° 0 min 0,000 mm 3,2 UV-I 380 W/m² 12,2 °C 25,7 °C 14,5 km/h (3 Bft)
06.07.2019 15:24 25,7 °C 45 % 1008,6 hPa 0,0 mm 10,0 km/h (2 Bft) W 275 ° 0 min 0,000 mm 3,1 UV-I 357 W/m² 12,9 °C 25,7 °C 14,5 km/h (3 Bft)
06.07.2019 15:25 25,6 °C 43 % 1008,6 hPa 0,0 mm 13,8 km/h (3 Bft) W 280 ° 0 min 0,000 mm 3,1 UV-I 355 W/m² 12,1 °C 25,6 °C 19,3 km/h (3 Bft)
06.07.2019 15:26 25,6 °C 42 % 1008,6 hPa 0,0 mm 12,2 km/h (2 Bft) NW 317 ° 0 min 0,000 mm 3,2 UV-I 369 W/m² 11,7 °C 25,6 °C 20,9 km/h (4 Bft)
06.07.2019 15:27 25,6 °C 43 % 1008,6 hPa 0,0 mm 12,0 km/h (2 Bft) W-NW 287 ° 0 min 0,000 mm 3,2 UV-I 369 W/m² 12,1 °C 25,6 °C 19,3 km/h (3 Bft)
06.07.2019 15:28 25,6 °C 43 % 1008,6 hPa 0,0 mm 12,4 km/h (3 Bft) W 263 ° 0 min 0,000 mm 3,6 UV-I 434 W/m² 12,1 °C 25,6 °C 19,3 km/h (3 Bft)
06.07.2019 15:29 25,6 °C 43 % 1008,6 hPa 0,0 mm 11,3 km/h (2 Bft) W 259 ° 0 min 0,000 mm 4,8 UV-I 434 W/m² 12,1 °C 25,6 °C 14,5 km/h (3 Bft)
06.07.2019 15:30 25,6 °C 43 % 1008,6 hPa 0,0 mm 11,3 km/h (2 Bft) W-SW 255 ° 1 min 0,000 mm 5,0 UV-I 700 W/m² 12,1 °C 25,6 °C 16,1 km/h (3 Bft)
06.07.2019 15:31 25,7 °C 42 % 1008,6 hPa 0,0 mm 14,9 km/h (3 Bft) W-NW 282 ° 1 min 0,000 mm 5,7 UV-I 700 W/m² 11,8 °C 25,7 °C 20,9 km/h (4 Bft)
06.07.2019 15:32 25,8 °C 41 % 1008,6 hPa 0,0 mm 14,7 km/h (3 Bft) W-NW 291 ° 1 min 0,000 mm 5,8 UV-I 874 W/m² 11,5 °C 25,8 °C 20,9 km/h (4 Bft)
06.07.2019 15:33 25,8 °C 43 % 1008,6 hPa 0,0 mm 9,5 km/h (2 Bft) W-SW 253 ° 1 min 0,000 mm 5,5 UV-I 874 W/m² 12,3 °C 25,8 °C 14,5 km/h (3 Bft)
06.07.2019 15:34 25,9 °C 43 % 1008,6 hPa 0,0 mm 9,6 km/h (2 Bft) NW 304 ° 1 min 0,000 mm 5,8 UV-I 830 W/m² 12,3 °C 25,9 °C 14,5 km/h (3 Bft)
06.07.2019 15:35 26,2 °C 45 % 1008,6 hPa 0,0 mm 11,2 km/h (2 Bft) W-NW 298 ° 1 min 0,000 mm 5,7 UV-I 823 W/m² 13,3 °C 26,2 °C 19,3 km/h (3 Bft)
06.07.2019 15:36 26,3 °C 44 % 1008,6 hPa 0,0 mm 11,7 km/h (2 Bft) W-SW 258 ° 1 min 0,000 mm 5,3 UV-I 823 W/m² 13,1 °C 26,3 °C 20,9 km/h (4 Bft)
06.07.2019 15:37 26,3 °C 44 % 1008,6 hPa 0,0 mm 8,7 km/h (2 Bft) W 260 ° 1 min 0,000 mm 5,9 UV-I 823 W/m² 13,1 °C 26,3 °C 12,9 km/h (3 Bft)
06.07.2019 15:38 26,4 °C 44 % 1008,6 hPa 0,0 mm 10,6 km/h (2 Bft) W-SW 252 ° 1 min 0,000 mm 5,8 UV-I 823 W/m² 13,1 °C 26,4 °C 14,5 km/h (3 Bft)
06.07.2019 15:39 26,4 °C 45 % 1008,5 hPa 0,0 mm 9,5 km/h (2 Bft) W 273 ° 1 min 0,000 mm 5,9 UV-I 891 W/m² 13,5 °C 26,4 °C 16,1 km/h (3 Bft)
06.07.2019 15:40 26,5 °C 46 % 1008,5 hPa 0,0 mm 8,9 km/h (2 Bft) W-NW 301 ° 1 min 0,000 mm 5,8 UV-I 891 W/m² 13,9 °C 26,5 °C 14,5 km/h (3 Bft)
06.07.2019 15:41 26,6 °C 46 % 1008,5 hPa 0,0 mm 5,2 km/h (1 Bft) W-NW 283 ° 1 min 0,000 mm 5,7 UV-I 782 W/m² 14,0 °C 26,6 °C 9,7 km/h (2 Bft)
06.07.2019 15:42 26,6 °C 48 % 1008,4 hPa 0,0 mm 8,6 km/h (2 Bft) W 279 ° 1 min 0,000 mm 5,3 UV-I 759 W/m² 14,7 °C 26,6 °C 12,9 km/h (3 Bft)
06.07.2019 15:43 26,7 °C 46 % 1008,4 hPa 0,0 mm 3,2 km/h (1 Bft) W-NW 297 ° 1 min 0,000 mm 4,9 UV-I 724 W/m² 14,1 °C 26,7 °C 6,4 km/h (2 Bft)
06.07.2019 15:44 26,8 °C 46 % 1008,3 hPa 0,0 mm 5,9 km/h (2 Bft) NW 304 ° 1 min 0,000 mm 4,7 UV-I 686 W/m² 14,2 °C 26,8 °C 9,7 km/h (2 Bft)
06.07.2019 15:45 26,8 °C 48 % 1008,4 hPa 0,0 mm 7,8 km/h (2 Bft) SW 235 ° 1 min 0,000 mm 4,3 UV-I 686 W/m² 14,9 °C 26,8 °C 12,9 km/h (3 Bft)
06.07.2019 15:46 26,8 °C 47 % 1008,3 hPa 0,0 mm 4,3 km/h (1 Bft) W 276 ° 0 min 0,000 mm 4,1 UV-I 550 W/m² 14,5 °C 26,8 °C 9,7 km/h (2 Bft)
06.07.2019 15:47 26,7 °C 47 % 1008,4 hPa 0,0 mm 6,8 km/h (2 Bft) W-SW 254 ° 0 min 0,000 mm 4,4 UV-I 596 W/m² 14,4 °C 26,7 °C 11,3 km/h (2 Bft)
06.07.2019 15:48 26,5 °C 44 % 1008,3 hPa 0,0 mm 7,2 km/h (2 Bft) N-NW 344 ° 0 min 0,000 mm 3,8 UV-I 596 W/m² 13,2 °C 26,5 °C 14,5 km/h (3 Bft)
06.07.2019 15:49 26,5 °C 45 % 1008,3 hPa 0,0 mm 7,3 km/h (2 Bft) NW 322 ° 0 min 0,000 mm 3,6 UV-I 403 W/m² 13,6 °C 26,5 °C 12,9 km/h (3 Bft)
06.07.2019 15:50 26,5 °C 49 % 1008,3 hPa 0,0 mm 7,2 km/h (2 Bft) NW 307 ° 0 min 0,000 mm 3,3 UV-I 357 W/m² 14,9 °C 26,5 °C 12,9 km/h (3 Bft)
06.07.2019 15:51 26,5 °C 47 % 1008,3 hPa 0,0 mm 7,9 km/h (2 Bft) W-NW 290 ° 0 min 0,000 mm 3,2 UV-I 339 W/m² 14,3 °C 26,5 °C 17,7 km/h (3 Bft)
06.07.2019 15:52 26,4 °C 46 % 1008,3 hPa 0,0 mm 8,0 km/h (2 Bft) W 261 ° 0 min 0,000 mm 3,2 UV-I 341 W/m² 13,8 °C 26,4 °C 12,9 km/h (3 Bft)
06.07.2019 15:53 26,3 °C 45 % 1008,4 hPa 0,0 mm 5,2 km/h (1 Bft) NW 315 ° 0 min 0,000 mm 3,2 UV-I 355 W/m² 13,4 °C 26,3 °C 11,3 km/h (2 Bft)
06.07.2019 15:54 26,2 °C 46 % 1008,4 hPa 0,0 mm 10,4 km/h (2 Bft) NW 324 ° 0 min 0,000 mm 3,2 UV-I 350 W/m² 13,6 °C 26,2 °C 12,9 km/h (3 Bft)
06.07.2019 15:55 26,1 °C 47 % 1008,3 hPa 0,0 mm 10,6 km/h (2 Bft) NW 318 ° 0 min 0,000 mm 3,2 UV-I 360 W/m² 13,9 °C 26,1 °C 17,7 km/h (3 Bft)
06.07.2019 15:56 25,9 °C 45 % 1008,3 hPa 0,0 mm 7,1 km/h (2 Bft) W 277 ° 0 min 0,000 mm 3,4 UV-I 360 W/m² 13,0 °C 25,9 °C 16,1 km/h (3 Bft)
06.07.2019 15:57 25,8 °C 46 % 1008,3 hPa 0,0 mm 6,5 km/h (2 Bft) N-NW 327 ° 0 min 0,000 mm 3,6 UV-I 443 W/m² 13,3 °C 25,8 °C 14,5 km/h (3 Bft)
06.07.2019 15:58 25,8 °C 47 % 1008,3 hPa 0,0 mm 6,0 km/h (2 Bft) NW 306 ° 0 min 0,000 mm 4,0 UV-I 559 W/m² 13,6 °C 25,8 °C 16,1 km/h (3 Bft)
06.07.2019 15:59 25,8 °C 48 % 1008,3 hPa 0,0 mm 7,1 km/h (2 Bft) W-NW 299 ° 0 min 0,000 mm 4,0 UV-I 526 W/m² 13,9 °C 25,8 °C 11,3 km/h (2 Bft)
06.07.2019 16:00 25,8 °C 50 % 1008,3 hPa 0,0 mm 8,9 km/h (2 Bft) NW 310 ° 0 min 0,000 mm 3,9 UV-I 524 W/m² 14,6 °C 25,8 °C 16,1 km/h (3 Bft)
06.07.2019 16:01 25,9 °C 47 % 1008,3 hPa 0,0 mm 8,9 km/h (2 Bft) W-NW 298 ° 0 min 0,432 mm 4,0 UV-I 555 W/m² 13,7 °C 25,9 °C 16,1 km/h (3 Bft)
06.07.2019 16:02 25,9 °C 46 % 1008,2 hPa 0,0 mm 10,4 km/h (2 Bft) W 279 ° 1 min 0,000 mm 4,2 UV-I 626 W/m² 13,4 °C 25,9 °C 20,9 km/h (4 Bft)
06.07.2019 16:03 25,9 °C 47 % 1008,2 hPa 0,0 mm 10,0 km/h (2 Bft) N-NW 328 ° 1 min 0,000 mm 4,2 UV-I 626 W/m² 13,7 °C 25,9 °C 19,3 km/h (3 Bft)
06.07.2019 16:04 25,9 °C 46 % 1008,2 hPa 0,0 mm 5,5 km/h (1 Bft) W-NW 297 ° 1 min 0,000 mm 4,2 UV-I 606 W/m² 13,4 °C 25,9 °C 8,0 km/h (2 Bft)
06.07.2019 16:05 25,9 °C 49 % 1008,2 hPa 0,0 mm 10,1 km/h (2 Bft) NW 326 ° 0 min 0,000 mm 4,2 UV-I 598 W/m² 14,4 °C 25,9 °C 12,9 km/h (3 Bft)
06.07.2019 16:06 25,9 °C 46 % 1008,2 hPa 0,0 mm 7,8 km/h (2 Bft) N-NW 338 ° 1 min 0,000 mm 4,3 UV-I 643 W/m² 13,4 °C 25,9 °C 16,1 km/h (3 Bft)
06.07.2019 16:07 26,0 °C 48 % 1008,2 hPa 0,0 mm 7,2 km/h (2 Bft) SW 229 ° 1 min 0,000 mm 4,4 UV-I 663 W/m² 14,1 °C 26,0 °C 9,7 km/h (2 Bft)
06.07.2019 16:08 26,0 °C 46 % 1008,2 hPa 0,0 mm 8,2 km/h (2 Bft) W-NW 294 ° 1 min 0,000 mm 4,3 UV-I 650 W/m² 13,5 °C 26,0 °C 12,9 km/h (3 Bft)
06.07.2019 16:09 26,1 °C 47 % 1008,2 hPa 0,0 mm 8,1 km/h (2 Bft) NW 306 ° 1 min 0,000 mm 4,2 UV-I 621 W/m² 13,9 °C 26,1 °C 12,9 km/h (3 Bft)
06.07.2019 16:10 26,1 °C 49 % 1008,1 hPa 0,0 mm 7,3 km/h (2 Bft) W 266 ° 0 min 0,000 mm 4,1 UV-I 594 W/m² 14,5 °C 26,1 °C 12,9 km/h (3 Bft)
06.07.2019 16:11 26,1 °C 46 % 1008,1 hPa 0,0 mm 9,7 km/h (2 Bft) W 260 ° 0 min 0,000 mm 4,0 UV-I 580 W/m² 13,6 °C 26,1 °C 12,9 km/h (3 Bft)
06.07.2019 16:12 26,1 °C 46 % 1008,1 hPa 0,0 mm 11,3 km/h (2 Bft) W-NW 289 ° 0 min 0,000 mm 3,7 UV-I 580 W/m² 13,6 °C 26,1 °C 14,5 km/h (3 Bft)
06.07.2019 16:13 25,9 °C 45 % 1008,1 hPa 0,0 mm 10,0 km/h (2 Bft) W 270 ° 0 min 0,000 mm 3,3 UV-I 364 W/m² 13,0 °C 25,9 °C 12,9 km/h (3 Bft)
06.07.2019 16:14 25,9 °C 49 % 1008,2 hPa 0,0 mm 8,3 km/h (2 Bft) W-NW 284 ° 0 min 0,000 mm 3,1 UV-I 364 W/m² 14,4 °C 25,9 °C 16,1 km/h (3 Bft)
06.07.2019 16:15 25,8 °C 47 % 1008,2 hPa 0,0 mm 6,2 km/h (2 Bft) W 262 ° 0 min 0,000 mm 3,1 UV-I 302 W/m² 13,6 °C 25,8 °C 9,7 km/h (2 Bft)
06.07.2019 16:16 25,8 °C 48 % 1008,2 hPa 0,0 mm 5,3 km/h (1 Bft) NW 323 ° 0 min 0,000 mm 3,1 UV-I 294 W/m² 13,9 °C 25,8 °C 9,7 km/h (2 Bft)
06.07.2019 16:17 25,8 °C 47 % 1008,1 hPa 0,0 mm 2,6 km/h (1 Bft) W-NW 296 ° 0 min 0,000 mm 3,0 UV-I 292 W/m² 13,6 °C 25,8 °C 4,8 km/h (1 Bft)
06.07.2019 16:18 25,9 °C 49 % 1008,1 hPa 0,0 mm 3,1 km/h (1 Bft) NW 310 ° 0 min 0,000 mm 3,0 UV-I 294 W/m² 14,4 °C 25,9 °C 4,8 km/h (1 Bft)
06.07.2019 16:19 25,9 °C 50 % 1008,1 hPa 0,0 mm 4,3 km/h (1 Bft) NW 311 ° 0 min 0,000 mm 2,9 UV-I 288 W/m² 14,7 °C 25,9 °C 8,0 km/h (2 Bft)
06.07.2019 16:20 26,0 °C 47 % 1008,1 hPa 0,0 mm 5,9 km/h (2 Bft) NW 322 ° 0 min 0,000 mm 2,9 UV-I 285 W/m² 13,8 °C 26,0 °C 14,5 km/h (3 Bft)
06.07.2019 16:21 25,9 °C 48 % 1008,1 hPa 0,0 mm 9,7 km/h (2 Bft) W 261 ° 0 min 0,000 mm 2,9 UV-I 276 W/m² 14,0 °C 25,9 °C 17,7 km/h (3 Bft)
06.07.2019 16:22 25,9 °C 49 % 1008,1 hPa 0,0 mm 6,8 km/h (2 Bft) W 269 ° 0 min 0,000 mm 2,9 UV-I 271 W/m² 14,4 °C 25,9 °C 11,3 km/h (2 Bft)
06.07.2019 16:23 25,9 °C 48 % 1008,1 hPa 0,0 mm 4,4 km/h (1 Bft) W-NW 300 ° 0 min 0,000 mm 2,8 UV-I 267 W/m² 14,0 °C 25,9 °C 8,0 km/h (2 Bft)
06.07.2019 16:24 25,8 °C 51 % 1008,1 hPa 0,0 mm 5,2 km/h (1 Bft) W-NW 294 ° 0 min 0,000 mm 2,8 UV-I 264 W/m² 14,9 °C 25,8 °C 8,0 km/h (2 Bft)
06.07.2019 16:25 25,8 °C 49 % 1008,1 hPa 0,0 mm 4,3 km/h (1 Bft) W-NW 291 ° 0 min 0,000 mm 2,8 UV-I 267 W/m² 14,3 °C 25,8 °C 6,4 km/h (2 Bft)
06.07.2019 16:26 25,8 °C 51 % 1008,1 hPa 0,0 mm 4,5 km/h (1 Bft) W-NW 286 ° 0 min 0,000 mm 2,8 UV-I 260 W/m² 14,9 °C 25,8 °C 6,4 km/h (2 Bft)
06.07.2019 16:27 25,8 °C 49 % 1008,0 hPa 0,0 mm 6,6 km/h (2 Bft) W 277 ° 0 min 0,000 mm 2,8 UV-I 255 W/m² 14,3 °C 25,8 °C 11,3 km/h (2 Bft)
06.07.2019 16:28 25,9 °C 50 % 1008,0 hPa 0,0 mm 10,7 km/h (2 Bft) W 260 ° 0 min 0,000 mm 2,8 UV-I 248 W/m² 14,7 °C 25,9 °C 14,5 km/h (3 Bft)
06.07.2019 16:29 25,8 °C 48 % 1008,0 hPa 0,0 mm 8,7 km/h (2 Bft) W-NW 288 ° 0 min 0,000 mm 2,8 UV-I 250 W/m² 13,9 °C 25,8 °C 12,9 km/h (3 Bft)
06.07.2019 16:30 25,8 °C 49 % 1008,0 hPa 0,0 mm 6,4 km/h (2 Bft) N-NW 332 ° 0 min 0,000 mm 2,7 UV-I 243 W/m² 14,3 °C 25,8 °C 12,9 km/h (3 Bft)
06.07.2019 16:31 25,9 °C 51 % 1008,0 hPa 0,0 mm 2,7 km/h (1 Bft) W-NW 297 ° 0 min 0,000 mm 2,7 UV-I 243 W/m² 15,0 °C 25,9 °C 4,8 km/h (1 Bft)
06.07.2019 16:32 25,9 °C 50 % 1008,0 hPa 0,0 mm 8,1 km/h (2 Bft) W 271 ° 0 min 0,000 mm 2,7 UV-I 243 W/m² 14,7 °C 25,9 °C 12,9 km/h (3 Bft)
06.07.2019 16:33 25,8 °C 50 % 1008,0 hPa 0,0 mm 9,3 km/h (2 Bft) W-SW 255 ° 0 min 0,000 mm 2,6 UV-I 239 W/m² 14,6 °C 25,8 °C 12,9 km/h (3 Bft)
06.07.2019 16:34 25,8 °C 49 % 1008,0 hPa 0,0 mm 15,1 km/h (3 Bft) W 267 ° 0 min 0,000 mm 2,7 UV-I 257 W/m² 14,3 °C 25,8 °C 20,9 km/h (4 Bft)
06.07.2019 16:35 25,8 °C 47 % 1008,0 hPa 0,0 mm 6,7 km/h (2 Bft) N 360 ° 0 min 0,000 mm 2,7 UV-I 241 W/m² 13,6 °C 25,8 °C 9,7 km/h (2 Bft)
06.07.2019 16:36 25,7 °C 49 % 1008,0 hPa 0,0 mm 6,2 km/h (2 Bft) W 263 ° 0 min 0,000 mm 2,6 UV-I 234 W/m² 14,2 °C 25,7 °C 8,0 km/h (2 Bft)
06.07.2019 16:37 25,7 °C 48 % 1008,0 hPa 0,0 mm 8,9 km/h (2 Bft) W-SW 246 ° 0 min 0,000 mm 2,5 UV-I 230 W/m² 13,9 °C 25,7 °C 16,1 km/h (3 Bft)
06.07.2019 16:38 25,7 °C 49 % 1008,0 hPa 0,0 mm 11,0 km/h (2 Bft) W-NW 296 ° 0 min 0,000 mm 2,6 UV-I 246 W/m² 14,2 °C 25,7 °C 19,3 km/h (3 Bft)
06.07.2019 16:39 25,7 °C 50 % 1008,0 hPa 0,0 mm 9,3 km/h (2 Bft) W-SW 250 ° 0 min 0,000 mm 2,6 UV-I 244 W/m² 14,5 °C 25,7 °C 12,9 km/h (3 Bft)
06.07.2019 16:40 25,7 °C 50 % 1007,9 hPa 0,0 mm 9,5 km/h (2 Bft) W 259 ° 0 min 0,000 mm 2,5 UV-I 237 W/m² 14,5 °C 25,7 °C 16,1 km/h (3 Bft)
06.07.2019 16:41 25,7 °C 51 % 1007,9 hPa 0,0 mm 13,2 km/h (3 Bft) W-NW 294 ° 0 min 0,000 mm 2,4 UV-I 225 W/m² 14,8 °C 25,7 °C 17,7 km/h (3 Bft)
06.07.2019 16:42 25,7 °C 49 % 1007,9 hPa 0,0 mm 10,1 km/h (2 Bft) W-NW 286 ° 0 min 0,000 mm 2,3 UV-I 214 W/m² 14,2 °C 25,7 °C 12,9 km/h (3 Bft)
06.07.2019 16:43 25,7 °C 50 % 1007,9 hPa 0,0 mm 7,3 km/h (2 Bft) W-NW 302 ° 0 min 0,000 mm 2,3 UV-I 211 W/m² 14,5 °C 25,7 °C 11,3 km/h (2 Bft)
06.07.2019 16:44 25,7 °C 49 % 1007,9 hPa 0,0 mm 9,6 km/h (2 Bft) W 275 ° 0 min 0,000 mm 2,2 UV-I 211 W/m² 14,2 °C 25,7 °C 12,9 km/h (3 Bft)
06.07.2019 16:45 25,7 °C 50 % 1007,9 hPa 0,0 mm 11,9 km/h (2 Bft) W 278 ° 0 min 0,000 mm 2,2 UV-I 207 W/m² 14,5 °C 25,7 °C 17,7 km/h (3 Bft)
06.07.2019 16:46 25,7 °C 50 % 1007,9 hPa 0,0 mm 6,8 km/h (2 Bft) W-SW 244 ° 0 min 0,000 mm 2,1 UV-I 207 W/m² 14,5 °C 25,7 °C 11,3 km/h (2 Bft)
06.07.2019 16:47 25,7 °C 50 % 1007,9 hPa 0,0 mm 8,7 km/h (2 Bft) W-NW 287 ° 0 min 0,000 mm 2,1 UV-I 211 W/m² 14,5 °C 25,7 °C 12,9 km/h (3 Bft)
06.07.2019 16:48 25,6 °C 50 % 1007,9 hPa 0,0 mm 9,7 km/h (2 Bft) W 273 ° 0 min 0,000 mm 2,1 UV-I 216 W/m² 14,4 °C 25,6 °C 14,5 km/h (3 Bft)
06.07.2019 16:49 25,6 °C 50 % 1007,8 hPa 0,0 mm 7,5 km/h (2 Bft) NW 313 ° 0 min 0,000 mm 2,2 UV-I 223 W/m² 14,4 °C 25,6 °C 12,9 km/h (3 Bft)
06.07.2019 16:50 25,6 °C 52 % 1007,9 hPa 0,0 mm 6,2 km/h (2 Bft) W-NW 291 ° 0 min 0,000 mm 2,2 UV-I 223 W/m² 15,0 °C 25,6 °C 11,3 km/h (2 Bft)
06.07.2019 16:51 25,6 °C 53 % 1007,8 hPa 0,0 mm 7,5 km/h (2 Bft) W-NW 290 ° 0 min 0,000 mm 2,2 UV-I 244 W/m² 15,3 °C 25,6 °C 11,3 km/h (2 Bft)
06.07.2019 16:52 25,6 °C 51 % 1007,8 hPa 0,0 mm 4,5 km/h (1 Bft) W 263 ° 0 min 0,000 mm 2,2 UV-I 250 W/m² 14,7 °C 25,6 °C 6,4 km/h (2 Bft)
06.07.2019 16:53 25,6 °C 52 % 1007,8 hPa 0,0 mm 4,0 km/h (1 Bft) W-NW 290 ° 0 min 0,000 mm 2,2 UV-I 253 W/m² 15,0 °C 25,6 °C 6,4 km/h (2 Bft)
06.07.2019 16:54 25,6 °C 52 % 1007,8 hPa 0,0 mm 3,6 km/h (1 Bft) W-NW 284 ° 0 min 0,000 mm 2,2 UV-I 253 W/m² 15,0 °C 25,6 °C 6,4 km/h (2 Bft)
06.07.2019 16:55 25,6 °C 52 % 1007,8 hPa 0,0 mm 7,7 km/h (2 Bft) W 261 ° 0 min 0,000 mm 2,2 UV-I 253 W/m² 15,0 °C 25,6 °C 11,3 km/h (2 Bft)
06.07.2019 16:56 25,6 °C 51 % 1007,9 hPa 0,0 mm 6,5 km/h (2 Bft) W-NW 299 ° 0 min 0,000 mm 2,2 UV-I 251 W/m² 14,7 °C 25,6 °C 11,3 km/h (2 Bft)
06.07.2019 16:57 25,6 °C 52 % 1007,9 hPa 0,0 mm 5,7 km/h (1 Bft) W-NW 300 ° 0 min 0,000 mm 2,2 UV-I 251 W/m² 15,0 °C 25,6 °C 8,0 km/h (2 Bft)
06.07.2019 16:58 25,6 °C 52 % 1007,9 hPa 0,0 mm 4,7 km/h (1 Bft) W-NW 288 ° 0 min 0,000 mm 2,2 UV-I 250 W/m² 15,0 °C 25,6 °C 9,7 km/h (2 Bft)
06.07.2019 16:59 25,6 °C 53 % 1007,8 hPa 0,0 mm 6,2 km/h (2 Bft) W-NW 296 ° 0 min 0,000 mm 2,1 UV-I 250 W/m² 15,3 °C 25,6 °C 11,3 km/h (2 Bft)
06.07.2019 17:00 25,6 °C 52 % 1007,8 hPa 0,0 mm 7,8 km/h (2 Bft) W 260 ° 0 min 0,000 mm 2,1 UV-I 250 W/m² 15,0 °C 25,6 °C 11,3 km/h (2 Bft)
06.07.2019 17:01 25,6 °C 52 % 1007,8 hPa 0,0 mm 7,4 km/h (2 Bft) W-NW 299 ° 0 min 0,279 mm 2,1 UV-I 250 W/m² 15,0 °C 25,6 °C 12,9 km/h (3 Bft)
06.07.2019 17:02 25,6 °C 52 % 1007,8 hPa 0,0 mm 6,2 km/h (2 Bft) W-NW 294 ° 0 min 0,000 mm 2,1 UV-I 251 W/m² 15,0 °C 25,6 °C 9,7 km/h (2 Bft)
06.07.2019 17:03 25,6 °C 52 % 1007,8 hPa 0,0 mm 5,5 km/h (1 Bft) W-NW 296 ° 0 min 0,000 mm 2,1 UV-I 251 W/m² 15,0 °C 25,6 °C 8,0 km/h (2 Bft)
06.07.2019 17:04 25,6 °C 51 % 1007,8 hPa 0,0 mm 4,4 km/h (1 Bft) W-NW 292 ° 0 min 0,000 mm 2,1 UV-I 251 W/m² 14,7 °C 25,6 °C 8,0 km/h (2 Bft)
06.07.2019 17:05 25,6 °C 52 % 1007,7 hPa 0,0 mm 1,7 km/h (1 Bft) NW 307 ° 0 min 0,000 mm 2,1 UV-I 251 W/m² 15,0 °C 25,6 °C 4,8 km/h (1 Bft)
06.07.2019 17:06 25,6 °C 54 % 1007,7 hPa 0,0 mm 4,4 km/h (1 Bft) W-NW 287 ° 0 min 0,000 mm 2,1 UV-I 253 W/m² 15,6 °C 25,6 °C 6,4 km/h (2 Bft)
06.07.2019 17:07 25,5 °C 56 % 1007,8 hPa 0,0 mm 7,0 km/h (2 Bft) W-SW 252 ° 0 min 0,000 mm 2,1 UV-I 253 W/m² 16,1 °C 25,5 °C 11,3 km/h (2 Bft)
06.07.2019 17:08 25,5 °C 53 % 1007,8 hPa 0,0 mm 6,1 km/h (2 Bft) W 265 ° 0 min 0,000 mm 2,1 UV-I 257 W/m² 15,2 °C 25,5 °C 9,7 km/h (2 Bft)
06.07.2019 17:09 25,5 °C 53 % 1007,8 hPa 0,0 mm 3,7 km/h (1 Bft) W 273 ° 0 min 0,000 mm 2,1 UV-I 255 W/m² 15,2 °C 25,5 °C 9,7 km/h (2 Bft)
06.07.2019 17:10 25,5 °C 53 % 1007,8 hPa 0,0 mm 3,2 km/h (1 Bft) W-NW 296 ° 0 min 0,000 mm 2,0 UV-I 255 W/m² 15,2 °C 25,5 °C 4,8 km/h (1 Bft)
06.07.2019 17:11 25,6 °C 54 % 1007,8 hPa 0,0 mm 4,3 km/h (1 Bft) W-NW 290 ° 0 min 0,000 mm 2,0 UV-I 253 W/m² 15,6 °C 25,6 °C 4,8 km/h (1 Bft)
06.07.2019 17:12 25,6 °C 56 % 1007,8 hPa 0,0 mm 5,6 km/h (1 Bft) W-SW 255 ° 0 min 0,000 mm 2,0 UV-I 253 W/m² 16,2 °C 25,6 °C 8,0 km/h (2 Bft)
06.07.2019 17:13 25,6 °C 54 % 1007,8 hPa 0,0 mm 10,1 km/h (2 Bft) NW 325 ° 0 min 0,000 mm 2,0 UV-I 250 W/m² 15,6 °C 25,6 °C 16,1 km/h (3 Bft)
06.07.2019 17:14 25,6 °C 53 % 1007,8 hPa 0,0 mm 9,8 km/h (2 Bft) NW 306 ° 0 min 0,000 mm 2,0 UV-I 237 W/m² 15,3 °C 25,6 °C 12,9 km/h (3 Bft)
06.07.2019 17:15 25,6 °C 52 % 1007,8 hPa 0,0 mm 6,2 km/h (2 Bft) W-SW 258 ° 0 min 0,000 mm 1,9 UV-I 232 W/m² 15,0 °C 25,6 °C 9,7 km/h (2 Bft)
06.07.2019 17:16 25,6 °C 54 % 1007,8 hPa 0,0 mm 7,5 km/h (2 Bft) W-NW 286 ° 0 min 0,000 mm 1,8 UV-I 229 W/m² 15,6 °C 25,6 °C 11,3 km/h (2 Bft)
06.07.2019 17:17 25,5 °C 52 % 1007,8 hPa 0,0 mm 4,2 km/h (1 Bft) W-NW 294 ° 0 min 0,000 mm 1,8 UV-I 227 W/m² 14,9 °C 25,5 °C 6,4 km/h (2 Bft)
06.07.2019 17:18 25,5 °C 52 % 1007,8 hPa 0,0 mm 1,9 km/h (1 Bft) W-NW 294 ° 0 min 0,000 mm 1,7 UV-I 218 W/m² 14,9 °C 25,5 °C 3,2 km/h (1 Bft)
06.07.2019 17:19 25,4 °C 53 % 1007,8 hPa 0,0 mm 6,0 km/h (2 Bft) W-SW 250 ° 0 min 0,000 mm 1,7 UV-I 206 W/m² 15,1 °C 25,4 °C 11,3 km/h (2 Bft)
06.07.2019 17:20 25,4 °C 52 % 1007,8 hPa 0,0 mm 9,3 km/h (2 Bft) W-NW 286 ° 0 min 0,000 mm 1,6 UV-I 188 W/m² 14,8 °C 25,4 °C 14,5 km/h (3 Bft)
06.07.2019 17:21 25,4 °C 53 % 1007,8 hPa 0,0 mm 7,6 km/h (2 Bft) W-NW 284 ° 0 min 0,000 mm 1,5 UV-I 178 W/m² 15,1 °C 25,4 °C 11,3 km/h (2 Bft)
06.07.2019 17:22 25,3 °C 53 % 1007,8 hPa 0,0 mm 1,0 km/h (0 Bft) W-NW 284 ° 0 min 0,000 mm 1,4 UV-I 165 W/m² 15,0 °C 25,3 °C 3,2 km/h (1 Bft)
06.07.2019 17:23 25,3 °C 55 % 1007,9 hPa 0,0 mm 3,7 km/h (1 Bft) W 279 ° 0 min 0,000 mm 1,3 UV-I 158 W/m² 15,6 °C 25,3 °C 4,8 km/h (1 Bft)
06.07.2019 17:24 25,3 °C 54 % 1007,8 hPa 0,0 mm 4,6 km/h (1 Bft) W 281 ° 0 min 0,000 mm 1,3 UV-I 158 W/m² 15,3 °C 25,3 °C 6,4 km/h (2 Bft)
06.07.2019 17:25 25,3 °C 53 % 1007,8 hPa 0,0 mm 3,5 km/h (1 Bft) W-NW 291 ° 0 min 0,000 mm 1,3 UV-I 162 W/m² 15,0 °C 25,3 °C 4,8 km/h (1 Bft)
06.07.2019 17:26 25,2 °C 54 % 1007,8 hPa 0,0 mm 2,5 km/h (1 Bft) W 267 ° 0 min 0,000 mm 1,4 UV-I 171 W/m² 15,2 °C 25,2 °C 4,8 km/h (1 Bft)
06.07.2019 17:27 25,2 °C 55 % 1007,8 hPa 0,0 mm 4,8 km/h (1 Bft) W 271 ° 0 min 0,000 mm 1,4 UV-I 171 W/m² 15,5 °C 25,2 °C 9,7 km/h (2 Bft)
06.07.2019 17:28 25,1 °C 55 % 1007,8 hPa 0,0 mm 5,4 km/h (1 Bft) W 263 ° 0 min 0,000 mm 1,4 UV-I 179 W/m² 15,4 °C 25,1 °C 6,4 km/h (2 Bft)
06.07.2019 17:29 25,1 °C 55 % 1007,8 hPa 0,0 mm 8,4 km/h (2 Bft) W 266 ° 0 min 0,000 mm 1,4 UV-I 179 W/m² 15,4 °C 25,1 °C 12,9 km/h (3 Bft)
06.07.2019 17:30 25,0 °C 54 % 1007,8 hPa 0,0 mm 3,8 km/h (1 Bft) W-NW 291 ° 0 min 0,000 mm 1,4 UV-I 178 W/m² 15,0 °C 25,0 °C 6,4 km/h (2 Bft)
06.07.2019 17:31 24,9 °C 54 % 1007,9 hPa 0,0 mm 7,8 km/h (2 Bft) W 281 ° 0 min 0,000 mm 1,4 UV-I 172 W/m² 14,9 °C 24,9 °C 11,3 km/h (2 Bft)
06.07.2019 17:32 24,9 °C 55 % 1007,9 hPa 0,0 mm 5,0 km/h (1 Bft) W-NW 292 ° 0 min 0,000 mm 1,3 UV-I 149 W/m² 15,2 °C 24,9 °C 9,7 km/h (2 Bft)
06.07.2019 17:33 24,9 °C 55 % 1007,9 hPa 0,0 mm 9,3 km/h (2 Bft) W 273 ° 0 min 0,000 mm 1,0 UV-I 132 W/m² 15,2 °C 24,9 °C 12,9 km/h (3 Bft)
06.07.2019 17:34 24,9 °C 56 % 1008,1 hPa 0,0 mm 8,4 km/h (2 Bft) W 271 ° 0 min 0,000 mm 0,8 UV-I 113 W/m² 15,5 °C 24,9 °C 12,9 km/h (3 Bft)
06.07.2019 17:35 24,8 °C 56 % 1008,2 hPa 0,0 mm 7,2 km/h (2 Bft) W-SW 258 ° 0 min 0,000 mm 0,7 UV-I 98 W/m² 15,4 °C 24,8 °C 12,9 km/h (3 Bft)
06.07.2019 17:36 24,8 °C 54 % 1008,2 hPa 0,0 mm 14,3 km/h (3 Bft) W 259 ° 0 min 0,000 mm 0,7 UV-I 95 W/m² 14,8 °C 24,8 °C 22,5 km/h (4 Bft)
06.07.2019 17:37 24,7 °C 53 % 1008,3 hPa 0,0 mm 11,5 km/h (2 Bft) W 273 ° 0 min 0,000 mm 0,7 UV-I 97 W/m² 14,5 °C 24,7 °C 17,7 km/h (3 Bft)
06.07.2019 17:38 24,7 °C 54 % 1008,3 hPa 0,0 mm 9,0 km/h (2 Bft) W-SW 250 ° 0 min 0,000 mm 0,8 UV-I 114 W/m² 14,8 °C 24,7 °C 17,7 km/h (3 Bft)
06.07.2019 17:39 24,6 °C 53 % 1008,4 hPa 0,0 mm 13,9 km/h (3 Bft) W 264 ° 0 min 0,000 mm 0,9 UV-I 120 W/m² 14,4 °C 24,6 °C 22,5 km/h (4 Bft)
06.07.2019 17:40 24,5 °C 51 % 1008,4 hPa 0,0 mm 15,0 km/h (3 Bft) W-NW 284 ° 0 min 0,000 mm 0,9 UV-I 121 W/m² 13,7 °C 24,5 °C 20,9 km/h (4 Bft)
06.07.2019 17:41 24,4 °C 50 % 1008,5 hPa 0,0 mm 25,7 km/h (4 Bft) W-NW 290 ° 0 min 0,000 mm 0,9 UV-I 118 W/m² 13,3 °C 24,4 °C 40,2 km/h (6 Bft)
06.07.2019 17:42 24,3 °C 52 % 1008,6 hPa 0,0 mm 22,9 km/h (4 Bft) W-SW 257 ° 0 min 0,000 mm 0,9 UV-I 114 W/m² 13,8 °C 24,3 °C 38,6 km/h (5 Bft)
06.07.2019 17:43 24,2 °C 53 % 1008,8 hPa 0,0 mm 25,0 km/h (4 Bft) W 265 ° 0 min 0,000 mm 0,8 UV-I 111 W/m² 14,0 °C 24,2 °C 43,5 km/h (6 Bft)
06.07.2019 17:44 24,0 °C 54 % 1008,7 hPa 0,0 mm 31,8 km/h (5 Bft) W-SW 245 ° 0 min 0,000 mm 0,8 UV-I 109 W/m² 14,1 °C 24,0 °C 43,5 km/h (6 Bft)
06.07.2019 17:45 23,7 °C 55 % 1008,8 hPa 0,0 mm 21,5 km/h (4 Bft) W 275 ° 0 min 0,000 mm 0,8 UV-I 109 W/m² 14,1 °C 23,7 °C 35,4 km/h (5 Bft)
06.07.2019 17:46 23,5 °C 56 % 1008,9 hPa 0,0 mm 20,9 km/h (4 Bft) W 271 ° 0 min 0,000 mm 0,8 UV-I 107 W/m² 14,2 °C 23,5 °C 33,8 km/h (5 Bft)
06.07.2019 17:47 23,3 °C 57 % 1008,9 hPa 0,0 mm 24,9 km/h (4 Bft) W-NW 302 ° 0 min 0,000 mm 0,8 UV-I 105 W/m² 14,3 °C 23,3 °C 45,1 km/h (6 Bft)
06.07.2019 17:48 23,1 °C 57 % 1008,9 hPa 0,0 mm 24,9 km/h (4 Bft) W 271 ° 0 min 0,000 mm 0,7 UV-I 105 W/m² 14,1 °C 23,1 °C 32,2 km/h (5 Bft)
06.07.2019 17:49 23,0 °C 59 % 1008,9 hPa 0,0 mm 21,9 km/h (4 Bft) W 269 ° 0 min 0,000 mm 0,7 UV-I 91 W/m² 14,5 °C 23,0 °C 27,4 km/h (4 Bft)
06.07.2019 17:50 22,8 °C 59 % 1008,9 hPa 0,0 mm 23,4 km/h (4 Bft) W-NW 283 ° 0 min 0,000 mm 0,6 UV-I 86 W/m² 14,4 °C 22,8 °C 45,1 km/h (6 Bft)
06.07.2019 17:51 22,7 °C 59 % 1008,9 hPa 0,0 mm 20,9 km/h (4 Bft) W 269 ° 0 min 0,000 mm 0,6 UV-I 81 W/m² 14,3 °C 22,7 °C 32,2 km/h (5 Bft)
06.07.2019 17:52 22,6 °C 60 % 1008,9 hPa 0,0 mm 27,4 km/h (4 Bft) NW 321 ° 0 min 0,000 mm 0,6 UV-I 76 W/m² 14,4 °C 22,6 °C 43,5 km/h (6 Bft)
06.07.2019 17:53 22,4 °C 61 % 1008,9 hPa 0,0 mm 25,7 km/h (4 Bft) W 271 ° 0 min 0,000 mm 0,5 UV-I 72 W/m² 14,5 °C 22,4 °C 41,8 km/h (6 Bft)
06.07.2019 17:54 22,3 °C 61 % 1008,9 hPa 0,0 mm 23,9 km/h (4 Bft) W 269 ° 0 min 0,000 mm 0,5 UV-I 70 W/m² 14,4 °C 22,3 °C 45,1 km/h (6 Bft)
06.07.2019 17:55 22,2 °C 62 % 1008,9 hPa 0,0 mm 20,4 km/h (4 Bft) W-SW 246 ° 0 min 0,000 mm 0,5 UV-I 70 W/m² 14,6 °C 22,2 °C 30,6 km/h (5 Bft)
06.07.2019 17:56 22,1 °C 63 % 1009,0 hPa 0,0 mm 19,3 km/h (3 Bft) W-SW 246 ° 0 min 0,000 mm 0,5 UV-I 76 W/m² 14,7 °C 22,1 °C 30,6 km/h (5 Bft)
06.07.2019 17:57 21,9 °C 63 % 1008,9 hPa 0,0 mm 19,6 km/h (3 Bft) W-NW 296 ° 0 min 0,000 mm 0,6 UV-I 79 W/m² 14,5 °C 21,9 °C 32,2 km/h (5 Bft)
06.07.2019 17:58 21,8 °C 65 % 1008,7 hPa 0,0 mm 14,6 km/h (3 Bft) W-NW 283 ° 0 min 0,000 mm 0,6 UV-I 83 W/m² 14,9 °C 21,8 °C 20,9 km/h (4 Bft)
06.07.2019 17:59 21,7 °C 66 % 1008,8 hPa 0,0 mm 14,0 km/h (3 Bft) W-SW 256 ° 0 min 0,000 mm 0,6 UV-I 86 W/m² 15,1 °C 21,7 °C 20,9 km/h (4 Bft)
06.07.2019 18:00 21,5 °C 66 % 1008,7 hPa 0,0 mm 17,0 km/h (3 Bft) W 273 ° 0 min 0,203 mm 0,6 UV-I 90 W/m² 14,9 °C 21,5 °C 27,4 km/h (4 Bft)
06.07.2019 18:01 21,3 °C 67 % 1008,7 hPa 0,0 mm 20,0 km/h (4 Bft) W-NW 292 ° 0 min 0,000 mm 0,6 UV-I 88 W/m² 14,9 °C 21,3 °C 32,2 km/h (5 Bft)
06.07.2019 18:02 21,2 °C 66 % 1008,6 hPa 0,0 mm 15,5 km/h (3 Bft) W-NW 290 ° 0 min 0,000 mm 0,6 UV-I 81 W/m² 14,6 °C 21,2 °C 24,1 km/h (4 Bft)
06.07.2019 18:03 21,1 °C 67 % 1008,5 hPa 0,0 mm 12,8 km/h (3 Bft) W-SW 258 ° 0 min 0,000 mm 0,5 UV-I 76 W/m² 14,7 °C 21,1 °C 19,3 km/h (3 Bft)
06.07.2019 18:04 20,9 °C 67 % 1008,5 hPa 0,0 mm 16,5 km/h (3 Bft) W 266 ° 0 min 0,000 mm 0,5 UV-I 70 W/m² 14,5 °C 20,9 °C 20,9 km/h (4 Bft)
06.07.2019 18:05 20,8 °C 68 % 1008,5 hPa 0,0 mm 14,0 km/h (3 Bft) W-SW 247 ° 0 min 0,000 mm 0,5 UV-I 65 W/m² 14,7 °C 20,8 °C 22,5 km/h (4 Bft)
06.07.2019 18:06 20,7 °C 69 % 1008,4 hPa 0,0 mm 9,7 km/h (2 Bft) W-SW 241 ° 0 min 0,000 mm 0,0 UV-I 62 W/m² 14,8 °C 20,7 °C 14,5 km/h (3 Bft)
06.07.2019 18:07 20,6 °C 69 % 1008,4 hPa 0,0 mm 4,7 km/h (1 Bft) SW 236 ° 0 min 0,000 mm 0,0 UV-I 54 W/m² 14,7 °C 20,6 °C 11,3 km/h (2 Bft)
06.07.2019 18:08 20,4 °C 70 % 1008,3 hPa 0,0 mm 10,7 km/h (2 Bft) W 277 ° 0 min 0,000 mm 0,0 UV-I 54 W/m² 14,7 °C 20,4 °C 14,5 km/h (3 Bft)
06.07.2019 18:09 20,3 °C 70 % 1008,3 hPa 0,0 mm 9,7 km/h (2 Bft) W 263 ° 0 min 0,000 mm 0,0 UV-I 56 W/m² 14,6 °C 20,3 °C 17,7 km/h (3 Bft)
06.07.2019 18:10 20,3 °C 70 % 1008,2 hPa 0,0 mm 12,4 km/h (3 Bft) W 268 ° 0 min 0,000 mm 0,0 UV-I 58 W/m² 14,6 °C 20,3 °C 16,1 km/h (3 Bft)
06.07.2019 18:11 20,2 °C 71 % 1008,2 hPa 0,0 mm 6,3 km/h (2 Bft) W-NW 286 ° 0 min 0,000 mm 0,0 UV-I 62 W/m² 14,8 °C 20,2 °C 11,3 km/h (2 Bft)
06.07.2019 18:12 20,1 °C 71 % 1008,2 hPa 0,0 mm 13,3 km/h (3 Bft) W-NW 294 ° 0 min 0,000 mm 0,0 UV-I 65 W/m² 14,7 °C 20,1 °C 20,9 km/h (4 Bft)
06.07.2019 18:13 20,1 °C 71 % 1008,2 hPa 0,0 mm 13,9 km/h (3 Bft) W-NW 300 ° 0 min 0,000 mm 0,5 UV-I 72 W/m² 14,7 °C 20,1 °C 20,9 km/h (4 Bft)
06.07.2019 18:14 20,1 °C 71 % 1008,2 hPa 0,0 mm 5,4 km/h (1 Bft) W 265 ° 0 min 0,000 mm 0,5 UV-I 74 W/m² 14,7 °C 20,1 °C 6,4 km/h (2 Bft)
06.07.2019 18:15 20,0 °C 71 % 1008,2 hPa 0,0 mm 7,4 km/h (2 Bft) W-NW 288 ° 0 min 0,000 mm 0,5 UV-I 76 W/m² 14,6 °C 20,0 °C 16,1 km/h (3 Bft)
06.07.2019 18:16 20,0 °C 71 % 1008,2 hPa 0,0 mm 4,6 km/h (1 Bft) W 281 ° 0 min 0,000 mm 0,5 UV-I 79 W/m² 14,6 °C 20,0 °C 8,0 km/h (2 Bft)
06.07.2019 18:17 20,0 °C 71 % 1008,2 hPa 0,0 mm 9,7 km/h (2 Bft) W 281 ° 0 min 0,000 mm 0,6 UV-I 83 W/m² 14,6 °C 20,0 °C 16,1 km/h (3 Bft)
06.07.2019 18:18 20,0 °C 70 % 1008,2 hPa 0,0 mm 10,8 km/h (2 Bft) W-SW 243 ° 0 min 0,000 mm 0,6 UV-I 88 W/m² 14,4 °C 20,0 °C 20,9 km/h (4 Bft)
06.07.2019 18:19 20,0 °C 70 % 1008,2 hPa 0,0 mm 10,6 km/h (2 Bft) W-NW 286 ° 0 min 0,000 mm 0,6 UV-I 88 W/m² 14,4 °C 20,0 °C 17,7 km/h (3 Bft)
06.07.2019 18:20 20,1 °C 69 % 1008,2 hPa 0,0 mm 7,0 km/h (2 Bft) W 279 ° 0 min 0,000 mm 0,6 UV-I 91 W/m² 14,2 °C 20,1 °C 12,9 km/h (3 Bft)
06.07.2019 18:21 20,2 °C 69 % 1008,1 hPa 0,0 mm 6,0 km/h (2 Bft) S-SW 211 ° 0 min 0,000 mm 0,6 UV-I 95 W/m² 14,3 °C 20,2 °C 11,3 km/h (2 Bft)
06.07.2019 18:22 20,2 °C 68 % 1008,1 hPa 0,0 mm 2,3 km/h (1 Bft) S-SW 200 ° 0 min 0,000 mm 0,6 UV-I 97 W/m² 14,1 °C 20,2 °C 6,4 km/h (2 Bft)
06.07.2019 18:23 20,2 °C 67 % 1008,0 hPa 0,0 mm 2,4 km/h (1 Bft) S 188 ° 0 min 0,000 mm 0,6 UV-I 100 W/m² 13,9 °C 20,2 °C 8,0 km/h (2 Bft)
06.07.2019 18:24 20,3 °C 69 % 1007,9 hPa 0,0 mm 5,0 km/h (1 Bft) W 264 ° 0 min 0,000 mm 0,7 UV-I 107 W/m² 14,4 °C 20,3 °C 14,5 km/h (3 Bft)
06.07.2019 18:25 20,3 °C 67 % 1007,9 hPa 0,0 mm 9,5 km/h (2 Bft) W 262 ° 0 min 0,000 mm 0,7 UV-I 109 W/m² 14,0 °C 20,3 °C 16,1 km/h (3 Bft)
06.07.2019 18:26 20,3 °C 67 % 1007,9 hPa 0,0 mm 1,1 km/h (1 Bft) W 265 ° 0 min 0,000 mm 0,7 UV-I 111 W/m² 14,0 °C 20,3 °C 3,2 km/h (1 Bft)
06.07.2019 18:27 20,4 °C 67 % 1007,9 hPa 0,0 mm 0,2 km/h (0 Bft) W 265 ° 0 min 0,000 mm 0,7 UV-I 111 W/m² 14,1 °C 20,4 °C 1,6 km/h (1 Bft)
06.07.2019 18:28 20,4 °C 66 % 1007,8 hPa 0,0 mm 0,0 km/h (0 Bft) W 265 ° 0 min 0,000 mm 0,7 UV-I 111 W/m² 13,8 °C 20,4 °C 0,0 km/h (0 Bft)
06.07.2019 18:29 20,5 °C 66 % 1007,8 hPa 0,0 mm 2,7 km/h (1 Bft) W 265 ° 0 min 0,000 mm 0,7 UV-I 111 W/m² 13,9 °C 20,5 °C 4,8 km/h (1 Bft)
06.07.2019 18:30 20,6 °C 64 % 1007,8 hPa 0,0 mm 8,6 km/h (2 Bft) W-SW 255 ° 0 min 0,000 mm 0,7 UV-I 107 W/m² 13,5 °C 20,6 °C 12,9 km/h (3 Bft)
06.07.2019 18:31 20,7 °C 64 % 1007,8 hPa 0,0 mm 3,8 km/h (1 Bft) W 270 ° 0 min 0,000 mm 0,7 UV-I 107 W/m² 13,6 °C 20,7 °C 6,4 km/h (2 Bft)
06.07.2019 18:32 20,7 °C 64 % 1007,7 hPa 0,0 mm 4,2 km/h (1 Bft) NW 315 ° 0 min 0,000 mm 0,7 UV-I 105 W/m² 13,6 °C 20,7 °C 8,0 km/h (2 Bft)
06.07.2019 18:33 20,8 °C 64 % 1007,8 hPa 0,0 mm 2,7 km/h (1 Bft) W-NW 287 ° 0 min 0,000 mm 0,7 UV-I 104 W/m² 13,7 °C 20,8 °C 4,8 km/h (1 Bft)
06.07.2019 18:34 20,8 °C 64 % 1007,7 hPa 0,0 mm 0,3 km/h (0 Bft) W-NW 287 ° 0 min 0,000 mm 0,7 UV-I 104 W/m² 13,7 °C 20,8 °C 1,6 km/h (1 Bft)
06.07.2019 18:35 20,8 °C 64 % 1007,7 hPa 0,0 mm 1,1 km/h (1 Bft) W-NW 287 ° 0 min 0,000 mm 0,7 UV-I 105 W/m² 13,7 °C 20,8 °C 4,8 km/h (1 Bft)
06.07.2019 18:36 20,8 °C 64 % 1007,8 hPa 0,0 mm 2,3 km/h (1 Bft) W-NW 287 ° 0 min 0,000 mm 0,7 UV-I 109 W/m² 13,7 °C 20,8 °C 3,2 km/h (1 Bft)
06.07.2019 18:37 20,8 °C 64 % 1007,8 hPa 0,0 mm 2,1 km/h (1 Bft) W-NW 288 ° 0 min 0,000 mm 0,7 UV-I 109 W/m² 13,7 °C 20,8 °C 4,8 km/h (1 Bft)
06.07.2019 18:38 20,8 °C 64 % 1007,8 hPa 0,0 mm 0,0 km/h (0 Bft) W-NW 287 ° 0 min 0,000 mm 0,7 UV-I 113 W/m² 13,7 °C 20,8 °C 0,0 km/h (0 Bft)
06.07.2019 18:39 20,8 °C 64 % 1007,8 hPa 0,0 mm 3,3 km/h (1 Bft) W-NW 282 ° 0 min 0,000 mm 0,7 UV-I 113 W/m² 13,7 °C 20,8 °C 4,8 km/h (1 Bft)
06.07.2019 18:40 20,8 °C 65 % 1007,8 hPa 0,0 mm 4,3 km/h (1 Bft) W 279 ° 0 min 0,000 mm 0,7 UV-I 113 W/m² 14,0 °C 20,8 °C 6,4 km/h (2 Bft)
06.07.2019 18:41 20,8 °C 65 % 1007,8 hPa 0,0 mm 2,3 km/h (1 Bft) W 279 ° 0 min 0,000 mm 0,7 UV-I 118 W/m² 14,0 °C 20,8 °C 6,4 km/h (2 Bft)
06.07.2019 18:42 20,8 °C 65 % 1007,8 hPa 0,0 mm 0,5 km/h (0 Bft) W-NW 288 ° 0 min 0,000 mm 0,7 UV-I 118 W/m² 14,0 °C 20,8 °C 3,2 km/h (1 Bft)
06.07.2019 18:43 20,8 °C 65 % 1007,8 hPa 0,0 mm 4,7 km/h (1 Bft) NW 304 ° 0 min 0,000 mm 0,7 UV-I 118 W/m² 14,0 °C 20,8 °C 8,0 km/h (2 Bft)
06.07.2019 18:44 20,9 °C 65 % 1007,8 hPa 0,0 mm 3,3 km/h (1 Bft) W-NW 293 ° 0 min 0,000 mm 0,7 UV-I 118 W/m² 14,1 °C 20,9 °C 6,4 km/h (2 Bft)
06.07.2019 18:45 20,9 °C 64 % 1007,8 hPa 0,0 mm 3,0 km/h (1 Bft) W-NW 294 ° 0 min 0,000 mm 0,7 UV-I 116 W/m² 13,8 °C 20,9 °C 6,4 km/h (2 Bft)
06.07.2019 18:46 20,9 °C 63 % 1007,8 hPa 0,0 mm 4,3 km/h (1 Bft) W 275 ° 0 min 0,000 mm 0,7 UV-I 114 W/m² 13,6 °C 20,9 °C 11,3 km/h (2 Bft)
06.07.2019 18:47 20,9 °C 64 % 1007,8 hPa 0,0 mm 5,8 km/h (2 Bft) W 275 ° 0 min 0,000 mm 0,7 UV-I 114 W/m² 13,8 °C 20,9 °C 11,3 km/h (2 Bft)
06.07.2019 18:48 20,9 °C 63 % 1007,8 hPa 0,0 mm 3,6 km/h (1 Bft) W-NW 284 ° 0 min 0,000 mm 0,7 UV-I 111 W/m² 13,6 °C 20,9 °C 9,7 km/h (2 Bft)
06.07.2019 18:49 20,9 °C 64 % 1007,9 hPa 0,0 mm 4,8 km/h (1 Bft) W 277 ° 0 min 0,000 mm 0,7 UV-I 109 W/m² 13,8 °C 20,9 °C 6,4 km/h (2 Bft)
06.07.2019 18:50 20,8 °C 65 % 1007,9 hPa 0,0 mm 4,4 km/h (1 Bft) W 259 ° 0 min 0,000 mm 0,7 UV-I 109 W/m² 14,0 °C 20,8 °C 9,7 km/h (2 Bft)
06.07.2019 18:51 20,8 °C 64 % 1007,8 hPa 0,0 mm 6,0 km/h (2 Bft) W 260 ° 0 min 0,000 mm 0,7 UV-I 109 W/m² 13,7 °C 20,8 °C 11,3 km/h (2 Bft)
06.07.2019 18:52 20,8 °C 65 % 1007,8 hPa 0,0 mm 8,2 km/h (2 Bft) W 271 ° 0 min 0,000 mm 0,7 UV-I 109 W/m² 14,0 °C 20,8 °C 16,1 km/h (3 Bft)
06.07.2019 18:53 20,7 °C 64 % 1007,8 hPa 0,0 mm 8,0 km/h (2 Bft) W-NW 285 ° 0 min 0,000 mm 0,7 UV-I 109 W/m² 13,6 °C 20,7 °C 14,5 km/h (3 Bft)
06.07.2019 18:54 20,7 °C 65 % 1007,8 hPa 0,0 mm 4,7 km/h (1 Bft) W-SW 240 ° 0 min 0,000 mm 0,6 UV-I 107 W/m² 13,9 °C 20,7 °C 9,7 km/h (2 Bft)
06.07.2019 18:55 20,7 °C 66 % 1007,9 hPa 0,0 mm 3,1 km/h (1 Bft) W-SW 245 ° 0 min 0,000 mm 0,6 UV-I 107 W/m² 14,1 °C 20,7 °C 4,8 km/h (1 Bft)
06.07.2019 18:56 20,6 °C 65 % 1007,9 hPa 0,0 mm 7,9 km/h (2 Bft) W-NW 295 ° 0 min 0,000 mm 0,6 UV-I 105 W/m² 13,8 °C 20,6 °C 12,9 km/h (3 Bft)
06.07.2019 18:57 20,6 °C 66 % 1008,0 hPa 0,0 mm 5,4 km/h (1 Bft) W-SW 254 ° 0 min 0,000 mm 0,6 UV-I 104 W/m² 14,0 °C 20,6 °C 9,7 km/h (2 Bft)
06.07.2019 18:58 20,6 °C 66 % 1008,0 hPa 0,0 mm 5,6 km/h (1 Bft) W-NW 299 ° 0 min 0,000 mm 0,6 UV-I 104 W/m² 14,0 °C 20,6 °C 9,7 km/h (2 Bft)
06.07.2019 18:59 20,6 °C 66 % 1008,1 hPa 0,0 mm 8,6 km/h (2 Bft) W 277 ° 0 min 0,000 mm 0,6 UV-I 105 W/m² 14,0 °C 20,6 °C 14,5 km/h (3 Bft)
06.07.2019 19:00 20,6 °C 65 % 1008,1 hPa 0,0 mm 3,8 km/h (1 Bft) W 265 ° 0 min 0,102 mm 0,6 UV-I 104 W/m² 13,8 °C 20,6 °C 6,4 km/h (2 Bft)
06.07.2019 19:01 20,6 °C 66 % 1008,1 hPa 0,0 mm 4,9 km/h (1 Bft) W 281 ° 0 min 0,000 mm 0,6 UV-I 105 W/m² 14,0 °C 20,6 °C 9,7 km/h (2 Bft)
06.07.2019 19:02 20,6 °C 66 % 1008,1 hPa 0,0 mm 6,0 km/h (2 Bft) W 278 ° 0 min 0,000 mm 0,6 UV-I 109 W/m² 14,0 °C 20,6 °C 9,7 km/h (2 Bft)
06.07.2019 19:03 20,6 °C 66 % 1008,1 hPa 0,0 mm 7,2 km/h (2 Bft) W 268 ° 0 min 0,000 mm 0,6 UV-I 113 W/m² 14,0 °C 20,6 °C 12,9 km/h (3 Bft)
06.07.2019 19:04 20,6 °C 66 % 1008,1 hPa 0,0 mm 6,2 km/h (2 Bft) W-NW 299 ° 0 min 0,000 mm 0,6 UV-I 114 W/m² 14,0 °C 20,6 °C 11,3 km/h (2 Bft)
06.07.2019 19:05 20,6 °C 67 % 1008,1 hPa 0,0 mm 9,5 km/h (2 Bft) W 266 ° 0 min 0,000 mm 0,6 UV-I 109 W/m² 14,3 °C 20,6 °C 14,5 km/h (3 Bft)
06.07.2019 19:06 20,6 °C 66 % 1008,1 hPa 0,0 mm 7,7 km/h (2 Bft) W-NW 289 ° 0 min 0,000 mm 0,6 UV-I 107 W/m² 14,0 °C 20,6 °C 12,9 km/h (3 Bft)
06.07.2019 19:07 20,6 °C 66 % 1008,1 hPa 0,0 mm 10,1 km/h (2 Bft) W-NW 294 ° 0 min 0,000 mm 0,6 UV-I 109 W/m² 14,0 °C 20,6 °C 16,1 km/h (3 Bft)
06.07.2019 19:08 20,6 °C 66 % 1008,2 hPa 0,0 mm 7,4 km/h (2 Bft) W 264 ° 0 min 0,000 mm 0,6 UV-I 104 W/m² 14,0 °C 20,6 °C 12,9 km/h (3 Bft)
06.07.2019 19:09 20,6 °C 66 % 1008,2 hPa 0,0 mm 4,2 km/h (1 Bft) W 274 ° 0 min 0,000 mm 0,6 UV-I 113 W/m² 14,0 °C 20,6 °C 9,7 km/h (2 Bft)
06.07.2019 19:10 20,6 °C 66 % 1008,2 hPa 0,0 mm 5,2 km/h (1 Bft) W-NW 294 ° 0 min 0,000 mm 0,6 UV-I 105 W/m² 14,0 °C 20,6 °C 6,4 km/h (2 Bft)
06.07.2019 19:11 20,6 °C 66 % 1008,3 hPa 0,0 mm 10,9 km/h (2 Bft) W 279 ° 0 min 0,000 mm 0,6 UV-I 97 W/m² 14,0 °C 20,6 °C 20,9 km/h (4 Bft)
06.07.2019 19:12 20,6 °C 66 % 1008,3 hPa 0,0 mm 10,3 km/h (2 Bft) W-NW 295 ° 0 min 0,000 mm 0,6 UV-I 95 W/m² 14,0 °C 20,6 °C 14,5 km/h (3 Bft)
06.07.2019 19:13 20,6 °C 66 % 1008,3 hPa 0,0 mm 9,7 km/h (2 Bft) W-NW 302 ° 0 min 0,000 mm 0,6 UV-I 95 W/m² 14,0 °C 20,6 °C 14,5 km/h (3 Bft)
06.07.2019 19:14 20,5 °C 65 % 1008,2 hPa 0,0 mm 8,1 km/h (2 Bft) W-NW 292 ° 0 min 0,000 mm 0,6 UV-I 93 W/m² 13,7 °C 20,5 °C 14,5 km/h (3 Bft)
06.07.2019 19:15 20,6 °C 66 % 1008,2 hPa 0,0 mm 8,0 km/h (2 Bft) W 260 ° 0 min 0,000 mm 0,6 UV-I 93 W/m² 14,0 °C 20,6 °C 11,3 km/h (2 Bft)
06.07.2019 19:16 20,5 °C 66 % 1008,2 hPa 0,0 mm 11,7 km/h (2 Bft) W 265 ° 0 min 0,000 mm 0,6 UV-I 97 W/m² 13,9 °C 20,5 °C 14,5 km/h (3 Bft)
06.07.2019 19:17 20,4 °C 65 % 1008,2 hPa 0,0 mm 10,0 km/h (2 Bft) W 276 ° 0 min 0,000 mm 0,6 UV-I 104 W/m² 13,6 °C 20,4 °C 16,1 km/h (3 Bft)
06.07.2019 19:18 20,4 °C 66 % 1008,2 hPa 0,0 mm 13,7 km/h (3 Bft) W-SW 254 ° 0 min 0,000 mm 0,6 UV-I 102 W/m² 13,8 °C 20,4 °C 19,3 km/h (3 Bft)
06.07.2019 19:19 20,4 °C 65 % 1008,2 hPa 0,0 mm 10,8 km/h (2 Bft) W-NW 292 ° 0 min 0,000 mm 0,6 UV-I 102 W/m² 13,6 °C 20,4 °C 17,7 km/h (3 Bft)
06.07.2019 19:20 20,4 °C 66 % 1008,2 hPa 0,0 mm 5,6 km/h (1 Bft) W 263 ° 0 min 0,000 mm 0,6 UV-I 102 W/m² 13,8 °C 20,4 °C 9,7 km/h (2 Bft)
06.07.2019 19:21 20,4 °C 65 % 1008,2 hPa 0,0 mm 9,1 km/h (2 Bft) SW 225 ° 0 min 0,000 mm 0,6 UV-I 104 W/m² 13,6 °C 20,4 °C 17,7 km/h (3 Bft)
06.07.2019 19:22 20,4 °C 65 % 1008,1 hPa 0,0 mm 5,5 km/h (1 Bft) W 277 ° 0 min 0,000 mm 0,6 UV-I 104 W/m² 13,6 °C 20,4 °C 9,7 km/h (2 Bft)
06.07.2019 19:23 20,4 °C 66 % 1008,1 hPa 0,0 mm 8,7 km/h (2 Bft) W-NW 283 ° 0 min 0,000 mm 0,6 UV-I 102 W/m² 13,8 °C 20,4 °C 14,5 km/h (3 Bft)
06.07.2019 19:24 20,4 °C 66 % 1008,2 hPa 0,0 mm 13,3 km/h (3 Bft) W-SW 257 ° 0 min 0,000 mm 0,6 UV-I 102 W/m² 13,8 °C 20,4 °C 17,7 km/h (3 Bft)
06.07.2019 19:25 20,4 °C 66 % 1008,1 hPa 0,0 mm 10,4 km/h (2 Bft) W 267 ° 0 min 0,000 mm 0,6 UV-I 104 W/m² 13,8 °C 20,4 °C 19,3 km/h (3 Bft)
06.07.2019 19:26 20,4 °C 66 % 1008,2 hPa 0,0 mm 2,2 km/h (1 Bft) W-SW 249 ° 0 min 0,000 mm 0,6 UV-I 102 W/m² 13,8 °C 20,4 °C 8,0 km/h (2 Bft)
06.07.2019 19:27 20,3 °C 66 % 1008,2 hPa 0,0 mm 6,8 km/h (2 Bft) W-NW 283 ° 0 min 0,000 mm 0,6 UV-I 100 W/m² 13,7 °C 20,3 °C 12,9 km/h (3 Bft)
06.07.2019 19:28 20,3 °C 66 % 1008,1 hPa 0,0 mm 5,1 km/h (1 Bft) W 271 ° 0 min 0,000 mm 0,6 UV-I 98 W/m² 13,7 °C 20,3 °C 11,3 km/h (2 Bft)
06.07.2019 19:29 20,3 °C 65 % 1008,2 hPa 0,0 mm 3,2 km/h (1 Bft) W 265 ° 0 min 0,000 mm 0,6 UV-I 97 W/m² 13,5 °C 20,3 °C 11,3 km/h (2 Bft)
06.07.2019 19:30 20,3 °C 66 % 1008,2 hPa 0,0 mm 6,5 km/h (2 Bft) W 265 ° 0 min 0,000 mm 0,5 UV-I 93 W/m² 13,7 °C 20,3 °C 12,9 km/h (3 Bft)
06.07.2019 19:31 20,3 °C 67 % 1008,1 hPa 0,0 mm 1,5 km/h (1 Bft) W 265 ° 0 min 0,000 mm 0,5 UV-I 93 W/m² 14,0 °C 20,3 °C 4,8 km/h (1 Bft)
06.07.2019 19:32 20,3 °C 66 % 1008,1 hPa 0,0 mm 10,1 km/h (2 Bft) SW 216 ° 0 min 0,000 mm 0,5 UV-I 90 W/m² 13,7 °C 20,3 °C 16,1 km/h (3 Bft)
06.07.2019 19:33 20,3 °C 66 % 1008,1 hPa 0,0 mm 6,5 km/h (2 Bft) W-NW 294 ° 0 min 0,000 mm 0,5 UV-I 88 W/m² 13,7 °C 20,3 °C 12,9 km/h (3 Bft)
06.07.2019 19:34 20,3 °C 66 % 1008,1 hPa 0,0 mm 9,9 km/h (2 Bft) W 271 ° 0 min 0,000 mm 0,5 UV-I 86 W/m² 13,7 °C 20,3 °C 12,9 km/h (3 Bft)
06.07.2019 19:35 20,3 °C 66 % 1008,1 hPa 0,0 mm 10,0 km/h (2 Bft) W 261 ° 0 min 0,000 mm 0,5 UV-I 84 W/m² 13,7 °C 20,3 °C 16,1 km/h (3 Bft)
06.07.2019 19:36 20,3 °C 67 % 1008,1 hPa 0,0 mm 9,8 km/h (2 Bft) W-SW 257 ° 0 min 0,000 mm 0,5 UV-I 91 W/m² 14,0 °C 20,3 °C 14,5 km/h (3 Bft)
06.07.2019 19:37 20,3 °C 67 % 1008,2 hPa 0,0 mm 7,7 km/h (2 Bft) W 270 ° 0 min 0,000 mm 0,5 UV-I 148 W/m² 14,0 °C 20,3 °C 12,9 km/h (3 Bft)
06.07.2019 19:38 20,3 °C 67 % 1008,1 hPa 0,0 mm 9,3 km/h (2 Bft) W 281 ° 0 min 0,000 mm 0,5 UV-I 190 W/m² 14,0 °C 20,3 °C 14,5 km/h (3 Bft)
06.07.2019 19:39 20,3 °C 68 % 1008,2 hPa 0,0 mm 8,7 km/h (2 Bft) W-SW 254 ° 0 min 0,000 mm 0,5 UV-I 185 W/m² 14,2 °C 20,3 °C 12,9 km/h (3 Bft)
06.07.2019 19:40 20,4 °C 67 % 1008,2 hPa 0,0 mm 12,5 km/h (3 Bft) W-SW 256 ° 0 min 0,000 mm 0,5 UV-I 185 W/m² 14,1 °C 20,4 °C 16,1 km/h (3 Bft)
06.07.2019 19:41 20,5 °C 67 % 1008,1 hPa 0,0 mm 9,8 km/h (2 Bft) W 273 ° 0 min 0,000 mm 0,5 UV-I 193 W/m² 14,2 °C 20,5 °C 16,1 km/h (3 Bft)
06.07.2019 19:42 20,6 °C 67 % 1008,2 hPa 0,0 mm 8,9 km/h (2 Bft) W 270 ° 0 min 0,000 mm 0,6 UV-I 197 W/m² 14,3 °C 20,6 °C 12,9 km/h (3 Bft)
06.07.2019 19:43 20,7 °C 67 % 1008,1 hPa 0,0 mm 6,1 km/h (2 Bft) W-SW 258 ° 0 min 0,000 mm 0,6 UV-I 199 W/m² 14,3 °C 20,7 °C 12,9 km/h (3 Bft)
06.07.2019 19:44 20,7 °C 67 % 1008,1 hPa 0,0 mm 3,4 km/h (1 Bft) W 267 ° 0 min 0,000 mm 0,6 UV-I 199 W/m² 14,3 °C 20,7 °C 12,9 km/h (3 Bft)
06.07.2019 19:45 20,7 °C 67 % 1008,0 hPa 0,0 mm 8,0 km/h (2 Bft) W 263 ° 0 min 0,000 mm 0,6 UV-I 200 W/m² 14,3 °C 20,7 °C 12,9 km/h (3 Bft)
06.07.2019 19:46 20,8 °C 66 % 1008,1 hPa 0,0 mm 6,2 km/h (2 Bft) W-SW 242 ° 0 min 0,000 mm 0,6 UV-I 190 W/m² 14,2 °C 20,8 °C 14,5 km/h (3 Bft)
06.07.2019 19:47 20,8 °C 66 % 1008,0 hPa 0,0 mm 4,8 km/h (1 Bft) S-SW 207 ° 0 min 0,000 mm 0,6 UV-I 197 W/m² 14,2 °C 20,8 °C 6,4 km/h (2 Bft)
06.07.2019 19:48 20,9 °C 66 % 1008,0 hPa 0,0 mm 6,9 km/h (2 Bft) W 271 ° 0 min 0,000 mm 0,6 UV-I 197 W/m² 14,3 °C 20,9 °C 11,3 km/h (2 Bft)
06.07.2019 19:49 21,0 °C 66 % 1008,0 hPa 0,0 mm 7,8 km/h (2 Bft) W-SW 251 ° 0 min 0,000 mm 0,6 UV-I 197 W/m² 14,4 °C 21,0 °C 12,9 km/h (3 Bft)
06.07.2019 19:50 21,0 °C 66 % 1008,0 hPa 0,0 mm 4,3 km/h (1 Bft) W-NW 284 ° 0 min 0,000 mm 0,6 UV-I 193 W/m² 14,4 °C 21,0 °C 6,4 km/h (2 Bft)
06.07.2019 19:51 21,1 °C 67 % 1008,0 hPa 0,0 mm 1,5 km/h (1 Bft) W-NW 290 ° 0 min 0,000 mm 0,6 UV-I 192 W/m² 14,7 °C 21,1 °C 4,8 km/h (1 Bft)
06.07.2019 19:52 21,1 °C 65 % 1008,0 hPa 0,0 mm 2,0 km/h (1 Bft) W 269 ° 0 min 0,000 mm 0,6 UV-I 186 W/m² 14,3 °C 21,1 °C 4,8 km/h (1 Bft)
06.07.2019 19:53 21,1 °C 65 % 1007,9 hPa 0,0 mm 4,0 km/h (1 Bft) W-SW 243 ° 0 min 0,000 mm 0,6 UV-I 185 W/m² 14,3 °C 21,1 °C 6,4 km/h (2 Bft)
06.07.2019 19:54 21,1 °C 65 % 1007,8 hPa 0,0 mm 3,9 km/h (1 Bft) W-NW 285 ° 0 min 0,000 mm 0,5 UV-I 179 W/m² 14,3 °C 21,1 °C 6,4 km/h (2 Bft)
06.07.2019 19:55 21,2 °C 65 % 1007,9 hPa 0,0 mm 3,3 km/h (1 Bft) W-SW 244 ° 0 min 0,000 mm 0,5 UV-I 179 W/m² 14,4 °C 21,2 °C 6,4 km/h (2 Bft)
06.07.2019 19:56 21,2 °C 65 % 1007,8 hPa 0,0 mm 5,8 km/h (2 Bft) W-SW 252 ° 0 min 0,000 mm 0,5 UV-I 172 W/m² 14,4 °C 21,2 °C 9,7 km/h (2 Bft)
06.07.2019 19:57 21,2 °C 65 % 1007,8 hPa 0,0 mm 5,3 km/h (1 Bft) W-NW 283 ° 0 min 0,000 mm 0,5 UV-I 169 W/m² 14,4 °C 21,2 °C 9,7 km/h (2 Bft)
06.07.2019 19:58 21,3 °C 65 % 1007,8 hPa 0,0 mm 4,9 km/h (1 Bft) W 272 ° 0 min 0,000 mm 0,5 UV-I 163 W/m² 14,4 °C 21,3 °C 6,4 km/h (2 Bft)
06.07.2019 19:59 21,3 °C 65 % 1007,8 hPa 0,0 mm 4,4 km/h (1 Bft) W-NW 291 ° 0 min 0,000 mm 0,5 UV-I 162 W/m² 14,4 °C 21,3 °C 6,4 km/h (2 Bft)
06.07.2019 20:00 21,3 °C 65 % 1007,8 hPa 0,0 mm 8,0 km/h (2 Bft) W-SW 244 ° 0 min 0,000 mm 0,5 UV-I 156 W/m² 14,4 °C 21,3 °C 12,9 km/h (3 Bft)
06.07.2019 20:01 21,4 °C 64 % 1007,8 hPa 0,0 mm 3,6 km/h (1 Bft) W 266 ° 0 min 0,127 mm 0,5 UV-I 151 W/m² 14,3 °C 21,4 °C 11,3 km/h (2 Bft)
06.07.2019 20:02 21,3 °C 65 % 1007,8 hPa 0,0 mm 5,3 km/h (1 Bft) W 263 ° 0 min 0,000 mm 0,5 UV-I 109 W/m² 14,4 °C 21,3 °C 6,4 km/h (2 Bft)
06.07.2019 20:03 21,3 °C 64 % 1007,8 hPa 0,0 mm 3,6 km/h (1 Bft) W 261 ° 0 min 0,000 mm 0,5 UV-I 93 W/m² 14,2 °C 21,3 °C 4,8 km/h (1 Bft)
06.07.2019 20:04 21,3 °C 63 % 1007,8 hPa 0,0 mm 3,0 km/h (1 Bft) W 265 ° 0 min 0,000 mm 0,5 UV-I 84 W/m² 14,0 °C 21,3 °C 4,8 km/h (1 Bft)
06.07.2019 20:05 21,3 °C 64 % 1007,8 hPa 0,0 mm 2,8 km/h (1 Bft) W 265 ° 0 min 0,000 mm 0,5 UV-I 100 W/m² 14,2 °C 21,3 °C 4,8 km/h (1 Bft)
06.07.2019 20:06 21,2 °C 64 % 1007,8 hPa 0,0 mm 4,2 km/h (1 Bft) W 261 ° 0 min 0,000 mm 0,5 UV-I 125 W/m² 14,1 °C 21,2 °C 9,7 km/h (2 Bft)
06.07.2019 20:07 21,2 °C 66 % 1007,8 hPa 0,0 mm 2,2 km/h (1 Bft) W 262 ° 0 min 0,000 mm 0,0 UV-I 125 W/m² 14,6 °C 21,2 °C 4,8 km/h (1 Bft)
06.07.2019 20:08 21,1 °C 65 % 1007,8 hPa 0,0 mm 4,3 km/h (1 Bft) W 269 ° 0 min 0,000 mm 0,0 UV-I 118 W/m² 14,3 °C 21,1 °C 6,4 km/h (2 Bft)
06.07.2019 20:09 21,1 °C 64 % 1007,8 hPa 0,0 mm 3,0 km/h (1 Bft) W 275 ° 0 min 0,000 mm 0,0 UV-I 116 W/m² 14,0 °C 21,1 °C 4,8 km/h (1 Bft)
06.07.2019 20:10 21,2 °C 64 % 1007,7 hPa 0,0 mm 1,5 km/h (1 Bft) W 275 ° 0 min 0,000 mm 0,0 UV-I 107 W/m² 14,1 °C 21,2 °C 3,2 km/h (1 Bft)
06.07.2019 20:11 21,2 °C 62 % 1007,7 hPa 0,0 mm 2,0 km/h (1 Bft) W 273 ° 0 min 0,000 mm 0,0 UV-I 105 W/m² 13,6 °C 21,2 °C 4,8 km/h (1 Bft)
06.07.2019 20:12 21,2 °C 64 % 1007,7 hPa 0,0 mm 4,4 km/h (1 Bft) W 259 ° 0 min 0,000 mm 0,0 UV-I 97 W/m² 14,1 °C 21,2 °C 11,3 km/h (2 Bft)
06.07.2019 20:13 21,3 °C 62 % 1007,7 hPa 0,0 mm 2,6 km/h (1 Bft) W 265 ° 0 min 0,000 mm 0,0 UV-I 69 W/m² 13,7 °C 21,3 °C 4,8 km/h (1 Bft)
06.07.2019 20:14 21,3 °C 63 % 1007,7 hPa 0,0 mm 5,7 km/h (1 Bft) SW 235 ° 0 min 0,000 mm 0,0 UV-I 58 W/m² 14,0 °C 21,3 °C 11,3 km/h (2 Bft)
06.07.2019 20:15 21,3 °C 63 % 1007,6 hPa 0,0 mm 3,9 km/h (1 Bft) W 271 ° 0 min 0,000 mm 0,0 UV-I 51 W/m² 14,0 °C 21,3 °C 9,7 km/h (2 Bft)
06.07.2019 20:16 21,2 °C 63 % 1007,6 hPa 0,0 mm 2,0 km/h (1 Bft) W 264 ° 0 min 0,000 mm 0,0 UV-I 47 W/m² 13,9 °C 21,2 °C 4,8 km/h (1 Bft)
06.07.2019 20:17 21,2 °C 63 % 1007,6 hPa 0,0 mm 2,6 km/h (1 Bft) W 263 ° 0 min 0,000 mm 0,0 UV-I 46 W/m² 13,9 °C 21,2 °C 4,8 km/h (1 Bft)
06.07.2019 20:18 21,2 °C 62 % 1007,6 hPa 0,0 mm 4,1 km/h (1 Bft) W-SW 258 ° 0 min 0,000 mm 0,0 UV-I 42 W/m² 13,6 °C 21,2 °C 11,3 km/h (2 Bft)
06.07.2019 20:19 21,1 °C 62 % 1007,7 hPa 0,0 mm 0,3 km/h (0 Bft) W-SW 255 ° 0 min 0,000 mm 0,0 UV-I 40 W/m² 13,5 °C 21,1 °C 1,6 km/h (1 Bft)
06.07.2019 20:20 21,1 °C 62 % 1007,7 hPa 0,0 mm 0,8 km/h (0 Bft) W-SW 257 ° 0 min 0,000 mm 0,0 UV-I 39 W/m² 13,5 °C 21,1 °C 3,2 km/h (1 Bft)
06.07.2019 20:21 21,0 °C 63 % 1007,7 hPa 0,0 mm 0,2 km/h (0 Bft) W-SW 254 ° 0 min 0,000 mm 0,0 UV-I 35 W/m² 13,7 °C 21,0 °C 1,6 km/h (1 Bft)
06.07.2019 20:22 20,9 °C 63 % 1007,7 hPa 0,0 mm 0,7 km/h (0 Bft) W-SW 257 ° 0 min 0,000 mm 0,0 UV-I 33 W/m² 13,6 °C 20,9 °C 4,8 km/h (1 Bft)
06.07.2019 20:23 20,9 °C 63 % 1007,7 hPa 0,0 mm 4,6 km/h (1 Bft) W 270 ° 0 min 0,000 mm 0,0 UV-I 32 W/m² 13,6 °C 20,9 °C 6,4 km/h (2 Bft)
06.07.2019 20:24 20,9 °C 62 % 1007,7 hPa 0,0 mm 0,3 km/h (0 Bft) W 270 ° 0 min 0,000 mm 0,0 UV-I 30 W/m² 13,3 °C 20,9 °C 3,2 km/h (1 Bft)
06.07.2019 20:25 20,8 °C 63 % 1007,7 hPa 0,0 mm 2,6 km/h (1 Bft) W 260 ° 0 min 0,000 mm 0,0 UV-I 37 W/m² 13,5 °C 20,8 °C 8,0 km/h (2 Bft)
06.07.2019 20:26 20,8 °C 64 % 1007,7 hPa 0,0 mm 4,3 km/h (1 Bft) W 274 ° 0 min 0,000 mm 0,0 UV-I 37 W/m² 13,7 °C 20,8 °C 8,0 km/h (2 Bft)
06.07.2019 20:27 20,7 °C 63 % 1007,7 hPa 0,0 mm 0,7 km/h (0 Bft) W 274 ° 0 min 0,000 mm 0,0 UV-I 30 W/m² 13,4 °C 20,7 °C 3,2 km/h (1 Bft)
06.07.2019 20:28 20,7 °C 62 % 1007,7 hPa 0,0 mm 0,4 km/h (0 Bft) W 275 ° 0 min 0,000 mm 0,0 UV-I 30 W/m² 13,2 °C 20,7 °C 3,2 km/h (1 Bft)
06.07.2019 20:29 20,7 °C 64 % 1007,7 hPa 0,0 mm 3,8 km/h (1 Bft) SW 230 ° 0 min 0,000 mm 0,0 UV-I 30 W/m² 13,6 °C 20,7 °C 11,3 km/h (2 Bft)
06.07.2019 20:30 20,7 °C 62 % 1007,7 hPa 0,0 mm 0,5 km/h (0 Bft) SW 231 ° 0 min 0,000 mm 0,0 UV-I 32 W/m² 13,2 °C 20,7 °C 1,6 km/h (1 Bft)
06.07.2019 20:31 20,7 °C 62 % 1007,7 hPa 0,0 mm 0,0 km/h (0 Bft) SW 232 ° 0 min 0,000 mm 0,0 UV-I 33 W/m² 13,2 °C 20,7 °C 0,0 km/h (0 Bft)
06.07.2019 20:32 20,8 °C 61 % 1007,7 hPa 0,0 mm 0,3 km/h (0 Bft) SW 233 ° 0 min 0,000 mm 0,0 UV-I 37 W/m² 13,0 °C 20,8 °C 1,6 km/h (1 Bft)
06.07.2019 20:33 20,8 °C 62 % 1007,7 hPa 0,0 mm 2,2 km/h (1 Bft) W-SW 256 ° 0 min 0,000 mm 0,0 UV-I 39 W/m² 13,2 °C 20,8 °C 4,8 km/h (1 Bft)
06.07.2019 20:34 20,8 °C 62 % 1007,7 hPa 0,0 mm 0,6 km/h (0 Bft) W-SW 256 ° 0 min 0,000 mm 0,0 UV-I 37 W/m² 13,2 °C 20,8 °C 3,2 km/h (1 Bft)
06.07.2019 20:35 20,8 °C 62 % 1007,7 hPa 0,0 mm 0,3 km/h (0 Bft) W-SW 256 ° 0 min 0,000 mm 0,0 UV-I 37 W/m² 13,2 °C 20,8 °C 3,2 km/h (1 Bft)
06.07.2019 20:36 20,8 °C 62 % 1007,7 hPa 0,0 mm 0,0 km/h (0 Bft) W-SW 256 ° 0 min 0,000 mm 0,0 UV-I 37 W/m² 13,2 °C 20,8 °C 0,0 km/h (0 Bft)
06.07.2019 20:37 20,8 °C 61 % 1007,8 hPa 0,0 mm 0,0 km/h (0 Bft) W-SW 253 ° 0 min 0,000 mm 0,0 UV-I 37 W/m² 13,0 °C 20,8 °C 0,0 km/h (0 Bft)
06.07.2019 20:38 20,9 °C 62 % 1007,8 hPa 0,0 mm 0,0 km/h (0 Bft) W-SW 254 ° 0 min 0,000 mm 0,0 UV-I 37 W/m² 13,3 °C 20,9 °C 0,0 km/h (0 Bft)
06.07.2019 20:39 20,8 °C 63 % 1007,8 hPa 0,0 mm 1,3 km/h (1 Bft) W 265 ° 0 min 0,000 mm 0,0 UV-I 35 W/m² 13,5 °C 20,8 °C 9,7 km/h (2 Bft)
06.07.2019 20:40 20,8 °C 61 % 1007,8 hPa 0,0 mm 1,0 km/h (0 Bft) W 266 ° 0 min 0,000 mm 0,0 UV-I 33 W/m² 13,0 °C 20,8 °C 3,2 km/h (1 Bft)
06.07.2019 20:41 20,8 °C 63 % 1007,9 hPa 0,0 mm 1,7 km/h (1 Bft) W 265 ° 0 min 0,000 mm 0,0 UV-I 32 W/m² 13,5 °C 20,8 °C 3,2 km/h (1 Bft)
06.07.2019 20:42 20,9 °C 60 % 1007,8 hPa 0,0 mm 1,8 km/h (1 Bft) S 185 ° 0 min 0,000 mm 0,0 UV-I 32 W/m² 12,8 °C 20,9 °C 3,2 km/h (1 Bft)
06.07.2019 20:43 20,9 °C 60 % 1007,9 hPa 0,0 mm 2,7 km/h (1 Bft) W-NW 287 ° 0 min 0,000 mm 0,0 UV-I 32 W/m² 12,8 °C 20,9 °C 4,8 km/h (1 Bft)
06.07.2019 20:44 21,0 °C 61 % 1007,9 hPa 0,0 mm 1,1 km/h (1 Bft) W-NW 287 ° 0 min 0,000 mm 0,0 UV-I 30 W/m² 13,2 °C 21,0 °C 3,2 km/h (1 Bft)
06.07.2019 20:45 21,0 °C 62 % 1007,9 hPa 0,0 mm 0,1 km/h (0 Bft) W-NW 287 ° 0 min 0,000 mm 0,0 UV-I 28 W/m² 13,4 °C 21,0 °C 1,6 km/h (1 Bft)
06.07.2019 20:46 21,1 °C 60 % 1007,9 hPa 0,0 mm 0,0 km/h (0 Bft) W-NW 287 ° 0 min 0,000 mm 0,0 UV-I 28 W/m² 13,0 °C 21,1 °C 0,0 km/h (0 Bft)
06.07.2019 20:47 21,1 °C 61 % 1007,9 hPa 0,0 mm 0,0 km/h (0 Bft) W-NW 287 ° 0 min 0,000 mm 0,0 UV-I 26 W/m² 13,3 °C 21,1 °C 0,0 km/h (0 Bft)
06.07.2019 20:48 21,1 °C 61 % 1007,9 hPa 0,0 mm 0,1 km/h (0 Bft) W-NW 287 ° 0 min 0,000 mm 0,0 UV-I 25 W/m² 13,3 °C 21,1 °C 1,6 km/h (1 Bft)
06.07.2019 20:49 21,0 °C 62 % 1007,8 hPa 0,0 mm 0,2 km/h (0 Bft) W-NW 287 ° 0 min 0,000 mm 0,0 UV-I 23 W/m² 13,4 °C 21,0 °C 1,6 km/h (1 Bft)
06.07.2019 20:50 21,0 °C 62 % 1007,8 hPa 0,0 mm 0,0 km/h (0 Bft) W-NW 287 ° 0 min 0,000 mm 0,0 UV-I 21 W/m² 13,4 °C 21,0 °C 0,0 km/h (0 Bft)
06.07.2019 20:51 20,9 °C 63 % 1007,8 hPa 0,0 mm 2,0 km/h (1 Bft) W-NW 300 ° 0 min 0,000 mm 0,0 UV-I 19 W/m² 13,6 °C 20,9 °C 4,8 km/h (1 Bft)
06.07.2019 20:52 20,8 °C 64 % 1007,8 hPa 0,0 mm 0,0 km/h (0 Bft) W-NW 300 ° 0 min 0,000 mm 0,0 UV-I 18 W/m² 13,7 °C 20,8 °C 0,0 km/h (0 Bft)
06.07.2019 20:53 20,7 °C 63 % 1007,8 hPa 0,0 mm 0,0 km/h (0 Bft) W-NW 300 ° 0 min 0,000 mm 0,0 UV-I 18 W/m² 13,4 °C 20,7 °C 0,0 km/h (0 Bft)
06.07.2019 20:54 20,6 °C 64 % 1007,8 hPa 0,0 mm 0,5 km/h (0 Bft) W-NW 296 ° 0 min 0,000 mm 0,0 UV-I 18 W/m² 13,5 °C 20,6 °C 1,6 km/h (1 Bft)
06.07.2019 20:55 20,5 °C 64 % 1007,8 hPa 0,0 mm 0,3 km/h (0 Bft) W-NW 296 ° 0 min 0,000 mm 0,0 UV-I 16 W/m² 13,5 °C 20,5 °C 1,6 km/h (1 Bft)
06.07.2019 20:56 20,4 °C 64 % 1007,8 hPa 0,0 mm 0,0 km/h (0 Bft) W-NW 296 ° 0 min 0,000 mm 0,0 UV-I 16 W/m² 13,4 °C 20,4 °C 0,0 km/h (0 Bft)
06.07.2019 20:57 20,4 °C 64 % 1007,9 hPa 0,0 mm 0,0 km/h (0 Bft) W-NW 296 ° 0 min 0,000 mm 0,0 UV-I 14 W/m² 13,4 °C 20,4 °C 0,0 km/h (0 Bft)
06.07.2019 20:58 20,3 °C 64 % 1007,9 hPa 0,0 mm 0,0 km/h (0 Bft) W-NW 296 ° 0 min 0,000 mm 0,0 UV-I 12 W/m² 13,3 °C 20,3 °C 0,0 km/h (0 Bft)
06.07.2019 20:59 20,2 °C 64 % 1007,9 hPa 0,0 mm 0,0 km/h (0 Bft) W-NW 296 ° 0 min 0,000 mm 0,0 UV-I 12 W/m² 13,2 °C 20,2 °C 0,0 km/h (0 Bft)
06.07.2019 21:00 20,2 °C 64 % 1007,9 hPa 0,0 mm 0,0 km/h (0 Bft) W-NW 296 ° 0 min 0,000 mm 0,0 UV-I 12 W/m² 13,2 °C 20,2 °C 0,0 km/h (0 Bft)
06.07.2019 21:01 20,1 °C 64 % 1007,8 hPa 0,0 mm 0,0 km/h (0 Bft) W-NW 296 ° 0 min 0,051 mm 0,0 UV-I 11 W/m² 13,1 °C 20,1 °C 0,0 km/h (0 Bft)
06.07.2019 21:02 20,1 °C 65 % 1007,8 hPa 0,0 mm 0,0 km/h (0 Bft) W-NW 296 ° 0 min 0,000 mm 0,0 UV-I 11 W/m² 13,3 °C 20,1 °C 0,0 km/h (0 Bft)
06.07.2019 21:03 20,0 °C 65 % 1007,9 hPa 0,0 mm 0,0 km/h (0 Bft) W-NW 296 ° 0 min 0,000 mm 0,0 UV-I 11 W/m² 13,2 °C 20,0 °C 0,0 km/h (0 Bft)
06.07.2019 21:04 19,9 °C 65 % 1007,9 hPa 0,0 mm 0,0 km/h (0 Bft) W-NW 296 ° 0 min 0,000 mm 0,0 UV-I 9 W/m² 13,1 °C 19,9 °C 0,0 km/h (0 Bft)
06.07.2019 21:05 19,8 °C 64 % 1007,9 hPa 0,0 mm 0,0 km/h (0 Bft) W-NW 296 ° 0 min 0,000 mm 0,0 UV-I 9 W/m² 12,8 °C 19,8 °C 0,0 km/h (0 Bft)
06.07.2019 21:06 19,8 °C 65 % 1007,9 hPa 0,0 mm 0,0 km/h (0 Bft) W-NW 296 ° 0 min 0,000 mm 0,0 UV-I 7 W/m² 13,0 °C 19,8 °C 0,0 km/h (0 Bft)
06.07.2019 21:07 19,8 °C 65 % 1007,9 hPa 0,0 mm 0,0 km/h (0 Bft) W-NW 296 ° 0 min 0,000 mm 0,0 UV-I 7 W/m² 13,0 °C 19,8 °C 0,0 km/h (0 Bft)
06.07.2019 21:08 19,7 °C 65 % 1007,9 hPa 0,0 mm 0,0 km/h (0 Bft) W-NW 296 ° 0 min 0,000 mm 0,0 UV-I 5 W/m² 12,9 °C 19,7 °C 0,0 km/h (0 Bft)
06.07.2019 21:09 19,7 °C 66 % 1007,9 hPa 0,0 mm 0,0 km/h (0 Bft) W-NW 296 ° 0 min 0,000 mm 0,0 UV-I 5 W/m² 13,2 °C 19,7 °C 0,0 km/h (0 Bft)
06.07.2019 21:10 19,7 °C 66 % 1007,8 hPa 0,0 mm 0,0 km/h (0 Bft) W-NW 296 ° 0 min 0,000 mm 0,0 UV-I 5 W/m² 13,2 °C 19,7 °C 0,0 km/h (0 Bft)
06.07.2019 21:11 19,6 °C 66 % 1007,8 hPa 0,0 mm 0,0 km/h (0 Bft) W-NW 296 ° 0 min 0,000 mm 0,0 UV-I 0 W/m² 13,1 °C 19,6 °C 0,0 km/h (0 Bft)
06.07.2019 21:12 19,5 °C 66 % 1007,8 hPa 0,0 mm 0,0 km/h (0 Bft) W-NW 296 ° 0 min 0,000 mm 0,0 UV-I 0 W/m² 13,0 °C 19,5 °C 0,0 km/h (0 Bft)
06.07.2019 21:13 19,4 °C 66 % 1007,9 hPa 0,0 mm 0,0 km/h (0 Bft) W-NW 296 ° 0 min 0,000 mm 0,0 UV-I 0 W/m² 12,9 °C 19,4 °C 0,0 km/h (0 Bft)
06.07.2019 21:14 19,4 °C 66 % 1007,9 hPa 0,0 mm 0,0 km/h (0 Bft) W-NW 296 ° 0 min 0,000 mm 0,0 UV-I 0 W/m² 12,9 °C 19,4 °C 0,0 km/h (0 Bft)
06.07.2019 21:15 19,4 °C 66 % 1007,9 hPa 0,0 mm 0,0 km/h (0 Bft) W-NW 296 ° 0 min 0,000 mm 0,0 UV-I 0 W/m² 12,9 °C 19,4 °C 0,0 km/h (0 Bft)
06.07.2019 21:16 19,3 °C 67 % 1007,9 hPa 0,0 mm 0,0 km/h (0 Bft) W-NW 296 ° 0 min 0,000 mm 0,0 UV-I 0 W/m² 13,0 °C 19,3 °C 0,0 km/h (0 Bft)
06.07.2019 21:17 19,2 °C 67 % 1007,9 hPa 0,0 mm 0,0 km/h (0 Bft) W-NW 296 ° 0 min 0,000 mm 0,0 UV-I 0 W/m² 12,9 °C 19,2 °C 0,0 km/h (0 Bft)
06.07.2019 21:18 19,1 °C 68 % 1007,9 hPa 0,0 mm 0,0 km/h (0 Bft) W-NW 296 ° 0 min 0,000 mm 0,0 UV-I 0 W/m² 13,1 °C 19,1 °C 0,0 km/h (0 Bft)
06.07.2019 21:19 18,9 °C 68 % 1007,9 hPa 0,0 mm 0,0 km/h (0 Bft) W-NW 296 ° 0 min 0,000 mm 0,0 UV-I 0 W/m² 12,9 °C 18,9 °C 0,0 km/h (0 Bft)
06.07.2019 21:20 18,9 °C 68 % 1007,9 hPa 0,0 mm 0,0 km/h (0 Bft) W-NW 296 ° 0 min 0,000 mm 0,0 UV-I 0 W/m² 12,9 °C 18,9 °C 0,0 km/h (0 Bft)
06.07.2019 21:21 18,8 °C 68 % 1007,9 hPa 0,0 mm 0,0 km/h (0 Bft) W-NW 296 ° 0 min 0,000 mm 0,0 UV-I 0 W/m² 12,8 °C 18,8 °C 0,0 km/h (0 Bft)
06.07.2019 21:22 18,8 °C 68 % 1007,9 hPa 0,0 mm 0,0 km/h (0 Bft) W-NW 296 ° 0 min 0,000 mm 0,0 UV-I 0 W/m² 12,8 °C 18,8 °C 0,0 km/h (0 Bft)
06.07.2019 21:23 18,8 °C 68 % 1008,0 hPa 0,0 mm 0,0 km/h (0 Bft) W-NW 296 ° 0 min 0,000 mm 0,0 UV-I 0 W/m² 12,8 °C 18,8 °C 0,0 km/h (0 Bft)
06.07.2019 21:24 18,8 °C 68 % 1008,0 hPa 0,0 mm 0,0 km/h (0 Bft) W-NW 296 ° 0 min 0,000 mm 0,0 UV-I 0 W/m² 12,8 °C 18,8 °C 0,0 km/h (0 Bft)
06.07.2019 21:25 18,8 °C 69 % 1008,0 hPa 0,0 mm 0,0 km/h (0 Bft) W-NW 296 ° 0 min 0,000 mm 0,0 UV-I 0 W/m² 13,0 °C 18,8 °C 0,0 km/h (0 Bft)
06.07.2019 21:26 18,8 °C 68 % 1008,0 hPa 0,0 mm 0,0 km/h (0 Bft) W-NW 296 ° 0 min 0,000 mm 0,0 UV-I 0 W/m² 12,8 °C 18,8 °C 0,0 km/h (0 Bft)
06.07.2019 21:27 18,9 °C 68 % 1008,0 hPa 0,0 mm 0,0 km/h (0 Bft) W-NW 296 ° 0 min 0,000 mm 0,0 UV-I 0 W/m² 12,9 °C 18,9 °C 0,0 km/h (0 Bft)
06.07.2019 21:28 18,9 °C 67 % 1008,1 hPa 0,0 mm 0,0 km/h (0 Bft) W-NW 296 ° 0 min 0,000 mm 0,0 UV-I 0 W/m² 12,6 °C 18,9 °C 0,0 km/h (0 Bft)
06.07.2019 21:29 19,0 °C 67 % 1008,0 hPa 0,0 mm 0,0 km/h (0 Bft) W-NW 296 ° 0 min 0,000 mm 0,0 UV-I 0 W/m² 12,7 °C 19,0 °C 0,0 km/h (0 Bft)
06.07.2019 21:30 19,1 °C 67 % 1008,0 hPa 0,0 mm 0,0 km/h (0 Bft) W-NW 296 ° 0 min 0,000 mm 0,0 UV-I 0 W/m² 12,8 °C 19,1 °C 0,0 km/h (0 Bft)
06.07.2019 21:31 19,2 °C 66 % 1008,1 hPa 0,0 mm 0,0 km/h (0 Bft) W-NW 296 ° 0 min 0,000 mm 0,0 UV-I 0 W/m² 12,7 °C 19,2 °C 0,0 km/h (0 Bft)
06.07.2019 21:32 19,2 °C 66 % 1008,1 hPa 0,0 mm 0,0 km/h (0 Bft) W-NW 296 ° 0 min 0,000 mm 0,0 UV-I 0 W/m² 12,7 °C 19,2 °C 0,0 km/h (0 Bft)
06.07.2019 21:33 19,3 °C 66 % 1008,1 hPa 0,0 mm 0,0 km/h (0 Bft) W-NW 296 ° 0 min 0,000 mm 0,0 UV-I 0 W/m² 12,8 °C 19,3 °C 0,0 km/h (0 Bft)
06.07.2019 21:34 19,3 °C 66 % 1008,2 hPa 0,0 mm 0,0 km/h (0 Bft) W-NW 296 ° 0 min 0,000 mm 0,0 UV-I 0 W/m² 12,8 °C 19,3 °C 0,0 km/h (0 Bft)
06.07.2019 21:35 19,3 °C 66 % 1008,1 hPa 0,0 mm 0,0 km/h (0 Bft) W-NW 296 ° 0 min 0,000 mm 0,0 UV-I 0 W/m² 12,8 °C 19,3 °C 0,0 km/h (0 Bft)
06.07.2019 21:36 19,3 °C 66 % 1008,1 hPa 0,0 mm 0,0 km/h (0 Bft) W-NW 296 ° 0 min 0,000 mm 0,0 UV-I 0 W/m² 12,8 °C 19,3 °C 0,0 km/h (0 Bft)
06.07.2019 21:37 19,3 °C 66 % 1008,2 hPa 0,0 mm 0,0 km/h (0 Bft) W-NW 296 ° 0 min 0,000 mm 0,0 UV-I 0 W/m² 12,8 °C 19,3 °C 0,0 km/h (0 Bft)
06.07.2019 21:38 19,4 °C 65 % 1008,1 hPa 0,0 mm 0,0 km/h (0 Bft) W-NW 296 ° 0 min 0,000 mm 0,0 UV-I 0 W/m² 12,6 °C 19,4 °C 0,0 km/h (0 Bft)
06.07.2019 21:39 19,4 °C 65 % 1008,1 hPa 0,0 mm 0,0 km/h (0 Bft) W-NW 294 ° 0 min 0,000 mm 0,0 UV-I 0 W/m² 12,6 °C 19,4 °C 0,0 km/h (0 Bft)
06.07.2019 21:40 19,4 °C 66 % 1008,1 hPa 0,0 mm 0,0 km/h (0 Bft) W 265 ° 0 min 0,000 mm 0,0 UV-I 0 W/m² 12,9 °C 19,4 °C 0,0 km/h (0 Bft)
06.07.2019 21:41 19,4 °C 65 % 1008,2 hPa 0,0 mm 0,0 km/h (0 Bft) W 265 ° 0 min 0,000 mm 0,0 UV-I 0 W/m² 12,6 °C 19,4 °C 0,0 km/h (0 Bft)
06.07.2019 21:42 19,4 °C 65 % 1008,1 hPa 0,0 mm 1,1 km/h (1 Bft) W-SW 249 ° 0 min 0,000 mm 0,0 UV-I 0 W/m² 12,6 °C 19,4 °C 4,8 km/h (1 Bft)
06.07.2019 21:43 19,5 °C 65 % 1008,1 hPa 0,0 mm 1,0 km/h (0 Bft) W-SW 249 ° 0 min 0,000 mm 0,0 UV-I 0 W/m² 12,7 °C 19,5 °C 3,2 km/h (1 Bft)
06.07.2019 21:44 19,6 °C 65 % 1008,2 hPa 0,0 mm 0,9 km/h (0 Bft) W-SW 247 ° 0 min 0,000 mm 0,0 UV-I 0 W/m² 12,8 °C 19,6 °C 4,8 km/h (1 Bft)
06.07.2019 21:45 19,6 °C 65 % 1008,2 hPa 0,0 mm 1,1 km/h (1 Bft) W-SW 247 ° 0 min 0,000 mm 0,0 UV-I 0 W/m² 12,8 °C 19,6 °C 3,2 km/h (1 Bft)
06.07.2019 21:46 19,6 °C 65 % 1008,3 hPa 0,0 mm 0,0 km/h (0 Bft) W-SW 247 ° 0 min 0,000 mm 0,0 UV-I 0 W/m² 12,8 °C 19,6 °C 0,0 km/h (0 Bft)
06.07.2019 21:47 19,6 °C 65 % 1008,3 hPa 0,0 mm 0,0 km/h (0 Bft) W-SW 247 ° 0 min 0,000 mm 0,0 UV-I 0 W/m² 12,8 °C 19,6 °C 0,0 km/h (0 Bft)
06.07.2019 21:48 19,6 °C 65 % 1008,3 hPa 0,0 mm 1,7 km/h (1 Bft) W-SW 241 ° 0 min 0,000 mm 0,0 UV-I 0 W/m² 12,8 °C 19,6 °C 4,8 km/h (1 Bft)
06.07.2019 21:49 19,6 °C 65 % 1008,3 hPa 0,0 mm 1,0 km/h (0 Bft) SW 227 ° 0 min 0,000 mm 0,0 UV-I 0 W/m² 12,8 °C 19,6 °C 3,2 km/h (1 Bft)
06.07.2019 21:50 19,6 °C 65 % 1008,3 hPa 0,0 mm 1,5 km/h (1 Bft) SW 218 ° 0 min 0,000 mm 0,0 UV-I 0 W/m² 12,8 °C 19,6 °C 3,2 km/h (1 Bft)
06.07.2019 21:51 19,6 °C 65 % 1008,3 hPa 0,0 mm 0,0 km/h (0 Bft) SW 220 ° 0 min 0,000 mm 0,0 UV-I 0 W/m² 12,8 °C 19,6 °C 0,0 km/h (0 Bft)
06.07.2019 21:52 19,6 °C 65 % 1008,3 hPa 0,0 mm 0,0 km/h (0 Bft) SW 217 ° 0 min 0,000 mm 0,0 UV-I 0 W/m² 12,8 °C 19,6 °C 0,0 km/h (0 Bft)
06.07.2019 21:53 19,6 °C 66 % 1008,3 hPa 0,0 mm 0,0 km/h (0 Bft) SW 215 ° 0 min 0,000 mm 0,0 UV-I 0 W/m² 13,1 °C 19,6 °C 0,0 km/h (0 Bft)
06.07.2019 21:54 19,6 °C 65 % 1008,3 hPa 0,0 mm 0,3 km/h (0 Bft) SW 215 ° 0 min 0,000 mm 0,0 UV-I 0 W/m² 12,8 °C 19,6 °C 3,2 km/h (1 Bft)
06.07.2019 21:55 19,7 °C 65 % 1008,3 hPa 0,0 mm 0,2 km/h (0 Bft) SW 215 ° 0 min 0,000 mm 0,0 UV-I 0 W/m² 12,9 °C 19,7 °C 1,6 km/h (1 Bft)
06.07.2019 21:56 19,7 °C 66 % 1008,3 hPa 0,0 mm 0,0 km/h (0 Bft) SW 215 ° 0 min 0,000 mm 0,0 UV-I 0 W/m² 13,2 °C 19,7 °C 0,0 km/h (0 Bft)
06.07.2019 21:57 19,6 °C 66 % 1008,4 hPa 0,0 mm 0,0 km/h (0 Bft) SW 215 ° 0 min 0,000 mm 0,0 UV-I 0 W/m² 13,1 °C 19,6 °C 0,0 km/h (0 Bft)
06.07.2019 21:58 19,5 °C 66 % 1008,3 hPa 0,0 mm 0,0 km/h (0 Bft) S-SW 213 ° 0 min 0,000 mm 0,0 UV-I 0 W/m² 13,0 °C 19,5 °C 0,0 km/h (0 Bft)
06.07.2019 21:59 19,4 °C 67 % 1008,3 hPa 0,0 mm 0,0 km/h (0 Bft) S-SW 213 ° 0 min 0,000 mm 0,0 UV-I 0 W/m² 13,1 °C 19,4 °C 0,0 km/h (0 Bft)
06.07.2019 22:00 19,4 °C 67 % 1008,3 hPa 0,0 mm 0,0 km/h (0 Bft) S-SW 213 ° 0 min 0,000 mm 0,0 UV-I 0 W/m² 13,1 °C 19,4 °C 0,0 km/h (0 Bft)
06.07.2019 22:01 19,4 °C 67 % 1008,4 hPa 0,0 mm 0,0 km/h (0 Bft) S-SW 213 ° 0 min 0,000 mm 0,0 UV-I 0 W/m² 13,1 °C 19,4 °C 0,0 km/h (0 Bft)
06.07.2019 22:02 19,4 °C 67 % 1008,4 hPa 0,0 mm 0,0 km/h (0 Bft) S-SW 213 ° 0 min 0,000 mm 0,0 UV-I 0 W/m² 13,1 °C 19,4 °C 0,0 km/h (0 Bft)
06.07.2019 22:03 19,3 °C 67 % 1008,4 hPa 0,0 mm 0,0 km/h (0 Bft) S-SW 213 ° 0 min 0,000 mm 0,0 UV-I 0 W/m² 13,0 °C 19,3 °C 0,0 km/h (0 Bft)
06.07.2019 22:04 19,3 °C 67 % 1008,5 hPa 0,0 mm 0,0 km/h (0 Bft) S-SW 213 ° 0 min 0,000 mm 0,0 UV-I 0 W/m² 13,0 °C 19,3 °C 0,0 km/h (0 Bft)
06.07.2019 22:05 19,3 °C 67 % 1008,5 hPa 0,0 mm 0,0 km/h (0 Bft) S-SW 213 ° 0 min 0,000 mm 0,0 UV-I 0 W/m² 13,0 °C 19,3 °C 0,0 km/h (0 Bft)
06.07.2019 22:06 19,2 °C 67 % 1008,5 hPa 0,0 mm 0,0 km/h (0 Bft) S-SW 213 ° 0 min 0,000 mm 0,0 UV-I 0 W/m² 12,9 °C 19,2 °C 0,0 km/h (0 Bft)
06.07.2019 22:07 19,2 °C 68 % 1008,5 hPa 0,0 mm 0,0 km/h (0 Bft) S-SW 213 ° 0 min 0,000 mm 0,0 UV-I 0 W/m² 13,1 °C 19,2 °C 0,0 km/h (0 Bft)
06.07.2019 22:08 19,1 °C 68 % 1008,5 hPa 0,0 mm 0,0 km/h (0 Bft) S-SW 213 ° 0 min 0,000 mm 0,0 UV-I 0 W/m² 13,1 °C 19,1 °C 0,0 km/h (0 Bft)
06.07.2019 22:09 19,1 °C 68 % 1008,5 hPa 0,0 mm 0,0 km/h (0 Bft) S-SW 213 ° 0 min 0,000 mm 0,0 UV-I 0 W/m² 13,1 °C 19,1 °C 0,0 km/h (0 Bft)
06.07.2019 22:10 18,9 °C 69 % 1008,5 hPa 0,0 mm 0,0 km/h (0 Bft) S-SW 213 ° 0 min 0,000 mm 0,0 UV-I 0 W/m² 13,1 °C 18,9 °C 0,0 km/h (0 Bft)
06.07.2019 22:11 18,8 °C 69 % 1008,5 hPa 0,0 mm 0,0 km/h (0 Bft) S-SW 213 ° 0 min 0,000 mm 0,0 UV-I 0 W/m² 13,0 °C 18,8 °C 0,0 km/h (0 Bft)
06.07.2019 22:12 18,8 °C 68 % 1008,5 hPa 0,0 mm 0,0 km/h (0 Bft) S-SW 213 ° 0 min 0,000 mm 0,0 UV-I 0 W/m² 12,8 °C 18,8 °C 0,0 km/h (0 Bft)
06.07.2019 22:13 18,8 °C 68 % 1008,5 hPa 0,0 mm 0,0 km/h (0 Bft) S-SW 213 ° 0 min 0,000 mm 0,0 UV-I 0 W/m² 12,8 °C 18,8 °C 0,0 km/h (0 Bft)
06.07.2019 22:14 18,7 °C 69 % 1008,6 hPa 0,0 mm 0,0 km/h (0 Bft) S-SW 213 ° 0 min 0,000 mm 0,0 UV-I 0 W/m² 12,9 °C 18,7 °C 0,0 km/h (0 Bft)
06.07.2019 22:15 18,7 °C 69 % 1008,6 hPa 0,0 mm 0,0 km/h (0 Bft) S-SW 213 ° 0 min 0,000 mm 0,0 UV-I 0 W/m² 12,9 °C 18,7 °C 0,0 km/h (0 Bft)
06.07.2019 22:16 18,7 °C 69 % 1008,6 hPa 0,0 mm 1,3 km/h (1 Bft) S-SW 213 ° 0 min 0,000 mm 0,0 UV-I 0 W/m² 12,9 °C 18,7 °C 4,8 km/h (1 Bft)
06.07.2019 22:17 18,6 °C 69 % 1008,6 hPa 0,0 mm 2,3 km/h (1 Bft) S-SW 212 ° 0 min 0,000 mm 0,0 UV-I 0 W/m² 12,8 °C 18,6 °C 4,8 km/h (1 Bft)
06.07.2019 22:18 18,4 °C 70 % 1008,6 hPa 0,0 mm 0,0 km/h (0 Bft) S-SW 212 ° 0 min 0,000 mm 0,0 UV-I 0 W/m² 12,8 °C 18,4 °C 0,0 km/h (0 Bft)
06.07.2019 22:19 18,3 °C 70 % 1008,6 hPa 0,0 mm 0,0 km/h (0 Bft) S-SW 212 ° 0 min 0,000 mm 0,0 UV-I 0 W/m² 12,7 °C 18,3 °C 0,0 km/h (0 Bft)
06.07.2019 22:20 18,2 °C 71 % 1008,7 hPa 0,0 mm 1,1 km/h (1 Bft) S-SW 212 ° 0 min 0,000 mm 0,0 UV-I 0 W/m² 12,9 °C 18,2 °C 3,2 km/h (1 Bft)
06.07.2019 22:21 18,1 °C 71 % 1008,7 hPa 0,0 mm 0,0 km/h (0 Bft) S-SW 211 ° 0 min 0,000 mm 0,0 UV-I 0 W/m² 12,8 °C 18,1 °C 0,0 km/h (0 Bft)
06.07.2019 22:22 17,9 °C 72 % 1008,7 hPa 0,0 mm 0,5 km/h (0 Bft) S-SW 211 ° 0 min 0,000 mm 0,0 UV-I 0 W/m² 12,8 °C 17,9 °C 3,2 km/h (1 Bft)
06.07.2019 22:23 17,9 °C 72 % 1008,7 hPa 0,0 mm 0,4 km/h (0 Bft) S-SW 211 ° 0 min 0,000 mm 0,0 UV-I 0 W/m² 12,8 °C 17,9 °C 1,6 km/h (1 Bft)
06.07.2019 22:24 17,8 °C 72 % 1008,8 hPa 0,0 mm 0,0 km/h (0 Bft) S-SW 211 ° 0 min 0,000 mm 0,0 UV-I 0 W/m² 12,7 °C 17,8 °C 0,0 km/h (0 Bft)
06.07.2019 22:25 17,6 °C 73 % 1008,7 hPa 0,0 mm 0,1 km/h (0 Bft) S-SW 211 ° 0 min 0,000 mm 0,0 UV-I 0 W/m² 12,7 °C 17,6 °C 1,6 km/h (1 Bft)
06.07.2019 22:26 17,5 °C 73 % 1008,7 hPa 0,0 mm 0,0 km/h (0 Bft) S-SW 211 ° 0 min 0,000 mm 0,0 UV-I 0 W/m² 12,6 °C 17,5 °C 0,0 km/h (0 Bft)
06.07.2019 22:27 17,4 °C 73 % 1008,8 hPa 0,0 mm 0,9 km/h (0 Bft) S-SW 200 ° 0 min 0,000 mm 0,0 UV-I 0 W/m² 12,5 °C 17,4 °C 6,4 km/h (2 Bft)
06.07.2019 22:28 17,4 °C 73 % 1008,8 hPa 0,0 mm 1,7 km/h (1 Bft) S-SW 201 ° 0 min 0,000 mm 0,0 UV-I 0 W/m² 12,5 °C 17,4 °C 3,2 km/h (1 Bft)
06.07.2019 22:29 17,5 °C 73 % 1008,8 hPa 0,0 mm 0,4 km/h (0 Bft) S-SW 200 ° 0 min 0,000 mm 0,0 UV-I 0 W/m² 12,6 °C 17,5 °C 3,2 km/h (1 Bft)
06.07.2019 22:30 17,6 °C 73 % 1008,7 hPa 0,0 mm 4,1 km/h (1 Bft) S-SW 192 ° 0 min 0,000 mm 0,0 UV-I 0 W/m² 12,7 °C 17,6 °C 6,4 km/h (2 Bft)
06.07.2019 22:31 17,6 °C 73 % 1008,7 hPa 0,0 mm 1,8 km/h (1 Bft) S-SW 193 ° 0 min 0,000 mm 0,0 UV-I 0 W/m² 12,7 °C 17,6 °C 3,2 km/h (1 Bft)
06.07.2019 22:32 17,6 °C 73 % 1008,7 hPa 0,0 mm 2,4 km/h (1 Bft) S 191 ° 0 min 0,000 mm 0,0 UV-I 0 W/m² 12,7 °C 17,6 °C 8,0 km/h (2 Bft)
06.07.2019 22:33 17,6 °C 73 % 1008,7 hPa 0,0 mm 1,8 km/h (1 Bft) S-SW 193 ° 0 min 0,000 mm 0,0 UV-I 0 W/m² 12,7 °C 17,6 °C 4,8 km/h (1 Bft)
06.07.2019 22:34 17,6 °C 72 % 1008,7 hPa 0,0 mm 0,0 km/h (0 Bft) S-SW 193 ° 0 min 0,000 mm 0,0 UV-I 0 W/m² 12,5 °C 17,6 °C 0,0 km/h (0 Bft)
06.07.2019 22:35 17,6 °C 73 % 1008,7 hPa 0,0 mm 0,0 km/h (0 Bft) S-SW 193 ° 0 min 0,000 mm 0,0 UV-I 0 W/m² 12,7 °C 17,6 °C 0,0 km/h (0 Bft)
06.07.2019 22:36 17,5 °C 73 % 1008,7 hPa 0,0 mm 0,0 km/h (0 Bft) S-SW 193 ° 0 min 0,000 mm 0,0 UV-I 0 W/m² 12,6 °C 17,5 °C 0,0 km/h (0 Bft)
06.07.2019 22:37 17,4 °C 74 % 1008,7 hPa 0,0 mm 0,0 km/h (0 Bft) S-SW 193 ° 0 min 0,000 mm 0,0 UV-I 0 W/m² 12,7 °C 17,4 °C 0,0 km/h (0 Bft)
06.07.2019 22:38 17,2 °C 74 % 1008,8 hPa 0,0 mm 0,0 km/h (0 Bft) S-SW 193 ° 0 min 0,000 mm 0,0 UV-I 0 W/m² 12,5 °C 17,2 °C 0,0 km/h (0 Bft)
06.07.2019 22:39 17,1 °C 75 % 1008,7 hPa 0,0 mm 0,0 km/h (0 Bft) S-SW 193 ° 0 min 0,000 mm 0,0 UV-I 0 W/m² 12,6 °C 17,1 °C 0,0 km/h (0 Bft)
06.07.2019 22:40 17,0 °C 75 % 1008,7 hPa 0,0 mm 0,0 km/h (0 Bft) S-SW 193 ° 0 min 0,000 mm 0,0 UV-I 0 W/m² 12,5 °C 17,0 °C 0,0 km/h (0 Bft)
06.07.2019 22:41 16,9 °C 75 % 1008,7 hPa 0,0 mm 0,0 km/h (0 Bft) S-SW 193 ° 0 min 0,000 mm 0,0 UV-I 0 W/m² 12,4 °C 16,9 °C 0,0 km/h (0 Bft)
06.07.2019 22:42 16,9 °C 75 % 1008,6 hPa 0,0 mm 0,0 km/h (0 Bft) S-SW 193 ° 0 min 0,000 mm 0,0 UV-I 0 W/m² 12,4 °C 16,9 °C 0,0 km/h (0 Bft)
06.07.2019 22:43 16,9 °C 75 % 1008,7 hPa 0,0 mm 0,0 km/h (0 Bft) S-SW 193 ° 0 min 0,000 mm 0,0 UV-I 0 W/m² 12,4 °C 16,9 °C 0,0 km/h (0 Bft)
06.07.2019 22:44 16,9 °C 75 % 1008,7 hPa 0,0 mm 0,0 km/h (0 Bft) S-SW 193 ° 0 min 0,000 mm 0,0 UV-I 0 W/m² 12,4 °C 16,9 °C 0,0 km/h (0 Bft)
06.07.2019 22:45 17,0 °C 75 % 1008,6 hPa 0,0 mm 0,0 km/h (0 Bft) S-SW 193 ° 0 min 0,000 mm 0,0 UV-I 0 W/m² 12,5 °C 17,0 °C 0,0 km/h (0 Bft)
06.07.2019 22:46 17,0 °C 75 % 1008,7 hPa 0,0 mm 0,0 km/h (0 Bft) S-SW 193 ° 0 min 0,000 mm 0,0 UV-I 0 W/m² 12,5 °C 17,0 °C 0,0 km/h (0 Bft)
06.07.2019 22:47 17,0 °C 75 % 1008,7 hPa 0,0 mm 0,0 km/h (0 Bft) S-SW 193 ° 0 min 0,000 mm 0,0 UV-I 0 W/m² 12,5 °C 17,0 °C 0,0 km/h (0 Bft)
06.07.2019 22:48 17,1 °C 75 % 1008,7 hPa 0,0 mm 0,0 km/h (0 Bft) S-SW 193 ° 0 min 0,000 mm 0,0 UV-I 0 W/m² 12,6 °C 17,1 °C 0,0 km/h (0 Bft)
06.07.2019 22:49 17,1 °C 75 % 1008,7 hPa 0,0 mm 0,4 km/h (0 Bft) S-SW 193 ° 0 min 0,000 mm 0,0 UV-I 0 W/m² 12,6 °C 17,1 °C 4,8 km/h (1 Bft)
06.07.2019 22:50 17,2 °C 74 % 1008,7 hPa 0,0 mm 1,5 km/h (1 Bft) S-SW 193 ° 0 min 0,000 mm 0,0 UV-I 0 W/m² 12,5 °C 17,2 °C 6,4 km/h (2 Bft)
06.07.2019 22:51 17,2 °C 74 % 1008,7 hPa 0,0 mm 0,0 km/h (0 Bft) S-SW 193 ° 0 min 0,000 mm 0,0 UV-I 0 W/m² 12,5 °C 17,2 °C 0,0 km/h (0 Bft)
06.07.2019 22:52 17,3 °C 73 % 1008,7 hPa 0,0 mm 1,3 km/h (1 Bft) S-SW 192 ° 0 min 0,000 mm 0,0 UV-I 0 W/m² 12,4 °C 17,3 °C 6,4 km/h (2 Bft)
06.07.2019 22:53 17,6 °C 72 % 1008,7 hPa 0,0 mm 2,3 km/h (1 Bft) S-SW 196 ° 0 min 0,000 mm 0,0 UV-I 0 W/m² 12,5 °C 17,6 °C 8,0 km/h (2 Bft)
06.07.2019 22:54 17,7 °C 72 % 1008,6 hPa 0,0 mm 1,9 km/h (1 Bft) S-SW 196 ° 0 min 0,000 mm 0,0 UV-I 0 W/m² 12,6 °C 17,7 °C 6,4 km/h (2 Bft)
06.07.2019 22:55 17,8 °C 72 % 1008,6 hPa 0,0 mm 1,3 km/h (1 Bft) S 191 ° 0 min 0,000 mm 0,0 UV-I 0 W/m² 12,7 °C 17,8 °C 3,2 km/h (1 Bft)
06.07.2019 22:56 17,8 °C 72 % 1008,5 hPa 0,0 mm 0,5 km/h (0 Bft) SW 227 ° 0 min 0,000 mm 0,0 UV-I 0 W/m² 12,7 °C 17,8 °C 1,6 km/h (1 Bft)
06.07.2019 22:57 17,8 °C 72 % 1008,5 hPa 0,0 mm 3,1 km/h (1 Bft) SW 231 ° 0 min 0,000 mm 0,0 UV-I 0 W/m² 12,7 °C 17,8 °C 4,8 km/h (1 Bft)
06.07.2019 22:58 17,8 °C 71 % 1008,5 hPa 0,0 mm 2,5 km/h (1 Bft) W-SW 241 ° 0 min 0,000 mm 0,0 UV-I 0 W/m² 12,5 °C 17,8 °C 4,8 km/h (1 Bft)
06.07.2019 22:59 17,8 °C 71 % 1008,5 hPa 0,0 mm 1,5 km/h (1 Bft) S-SW 201 ° 0 min 0,000 mm 0,0 UV-I 0 W/m² 12,5 °C 17,8 °C 3,2 km/h (1 Bft)
06.07.2019 23:00 17,9 °C 70 % 1008,5 hPa 0,0 mm 2,1 km/h (1 Bft) SW 233 ° 0 min 0,000 mm 0,0 UV-I 0 W/m² 12,3 °C 17,9 °C 6,4 km/h (2 Bft)
06.07.2019 23:01 18,1 °C 70 % 1008,5 hPa 0,0 mm 3,2 km/h (1 Bft) SW 229 ° 0 min 0,025 mm 0,0 UV-I 0 W/m² 12,5 °C 18,1 °C 4,8 km/h (1 Bft)
06.07.2019 23:02 18,3 °C 69 % 1008,5 hPa 0,0 mm 2,3 km/h (1 Bft) SW 229 ° 0 min 0,000 mm 0,0 UV-I 0 W/m² 12,5 °C 18,3 °C 4,8 km/h (1 Bft)
06.07.2019 23:03 18,3 °C 69 % 1008,5 hPa 0,0 mm 1,3 km/h (1 Bft) SW 229 ° 0 min 0,000 mm 0,0 UV-I 0 W/m² 12,5 °C 18,3 °C 4,8 km/h (1 Bft)
06.07.2019 23:04 18,4 °C 69 % 1008,5 hPa 0,0 mm 0,1 km/h (0 Bft) SW 229 ° 0 min 0,000 mm 0,0 UV-I 0 W/m² 12,6 °C 18,4 °C 1,6 km/h (1 Bft)
06.07.2019 23:05 18,4 °C 69 % 1008,4 hPa 0,0 mm 1,0 km/h (0 Bft) S-SW 200 ° 0 min 0,000 mm 0,0 UV-I 0 W/m² 12,6 °C 18,4 °C 4,8 km/h (1 Bft)
06.07.2019 23:06 18,4 °C 69 % 1008,4 hPa 0,0 mm 3,4 km/h (1 Bft) W-SW 252 ° 0 min 0,000 mm 0,0 UV-I 0 W/m² 12,6 °C 18,4 °C 9,7 km/h (2 Bft)
06.07.2019 23:07 18,5 °C 68 % 1008,4 hPa 0,0 mm 3,1 km/h (1 Bft) W-SW 249 ° 0 min 0,000 mm 0,0 UV-I 0 W/m² 12,5 °C 18,5 °C 4,8 km/h (1 Bft)
06.07.2019 23:08 18,6 °C 68 % 1008,4 hPa 0,0 mm 3,8 km/h (1 Bft) SW 229 ° 0 min 0,000 mm 0,0 UV-I 0 W/m² 12,6 °C 18,6 °C 6,4 km/h (2 Bft)
06.07.2019 23:09 18,6 °C 68 % 1008,3 hPa 0,0 mm 2,5 km/h (1 Bft) S-SW 207 ° 0 min 0,000 mm 0,0 UV-I 0 W/m² 12,6 °C 18,6 °C 4,8 km/h (1 Bft)
06.07.2019 23:10 18,7 °C 67 % 1008,5 hPa 0,0 mm 3,5 km/h (1 Bft) S-SW 198 ° 0 min 0,000 mm 0,0 UV-I 0 W/m² 12,4 °C 18,7 °C 6,4 km/h (2 Bft)
06.07.2019 23:11 18,7 °C 66 % 1008,4 hPa 0,0 mm 2,6 km/h (1 Bft) W-SW 238 ° 0 min 0,000 mm 0,0 UV-I 0 W/m² 12,2 °C 18,7 °C 4,8 km/h (1 Bft)
06.07.2019 23:12 18,8 °C 67 % 1008,4 hPa 0,0 mm 1,5 km/h (1 Bft) S-SW 209 ° 0 min 0,000 mm 0,0 UV-I 0 W/m² 12,5 °C 18,8 °C 3,2 km/h (1 Bft)
06.07.2019 23:13 18,8 °C 67 % 1008,4 hPa 0,0 mm 2,5 km/h (1 Bft) W 269 ° 0 min 0,000 mm 0,0 UV-I 0 W/m² 12,5 °C 18,8 °C 4,8 km/h (1 Bft)
06.07.2019 23:14 18,8 °C 67 % 1008,3 hPa 0,0 mm 4,9 km/h (1 Bft) W-SW 250 ° 0 min 0,000 mm 0,0 UV-I 0 W/m² 12,5 °C 18,8 °C 6,4 km/h (2 Bft)
06.07.2019 23:15 18,8 °C 67 % 1008,3 hPa 0,0 mm 1,0 km/h (0 Bft) W-SW 251 ° 0 min 0,000 mm 0,0 UV-I 0 W/m² 12,5 °C 18,8 °C 3,2 km/h (1 Bft)
06.07.2019 23:16 18,8 °C 67 % 1008,3 hPa 0,0 mm 2,3 km/h (1 Bft) W 262 ° 0 min 0,000 mm 0,0 UV-I 0 W/m² 12,5 °C 18,8 °C 4,8 km/h (1 Bft)
06.07.2019 23:17 18,8 °C 66 % 1008,3 hPa 0,0 mm 0,9 km/h (0 Bft) W-SW 254 ° 0 min 0,000 mm 0,0 UV-I 0 W/m² 12,3 °C 18,8 °C 3,2 km/h (1 Bft)
06.07.2019 23:18 18,8 °C 66 % 1008,3 hPa 0,0 mm 2,8 km/h (1 Bft) SW 227 ° 0 min 0,000 mm 0,0 UV-I 0 W/m² 12,3 °C 18,8 °C 4,8 km/h (1 Bft)
06.07.2019 23:19 18,8 °C 66 % 1008,3 hPa 0,0 mm 1,1 km/h (1 Bft) W-SW 253 ° 0 min 0,000 mm 0,0 UV-I 0 W/m² 12,3 °C 18,8 °C 6,4 km/h (2 Bft)
06.07.2019 23:20 18,8 °C 66 % 1008,3 hPa 0,0 mm 0,9 km/h (0 Bft) W-SW 253 ° 0 min 0,000 mm 0,0 UV-I 0 W/m² 12,3 °C 18,8 °C 4,8 km/h (1 Bft)
06.07.2019 23:21 18,7 °C 66 % 1008,2 hPa 0,0 mm 1,2 km/h (1 Bft) S-SW 211 ° 0 min 0,000 mm 0,0 UV-I 0 W/m² 12,2 °C 18,7 °C 3,2 km/h (1 Bft)
06.07.2019 23:22 18,7 °C 66 % 1008,2 hPa 0,0 mm 4,0 km/h (1 Bft) S-SW 201 ° 0 min 0,000 mm 0,0 UV-I 0 W/m² 12,2 °C 18,7 °C 6,4 km/h (2 Bft)
06.07.2019 23:23 18,8 °C 66 % 1008,2 hPa 0,0 mm 0,8 km/h (0 Bft) S-SW 208 ° 0 min 0,000 mm 0,0 UV-I 0 W/m² 12,3 °C 18,8 °C 3,2 km/h (1 Bft)
06.07.2019 23:24 18,8 °C 66 % 1008,2 hPa 0,0 mm 0,8 km/h (0 Bft) S-SW 201 ° 0 min 0,000 mm 0,0 UV-I 0 W/m² 12,3 °C 18,8 °C 4,8 km/h (1 Bft)
06.07.2019 23:25 18,8 °C 66 % 1008,3 hPa 0,0 mm 5,0 km/h (1 Bft) S 180 ° 0 min 0,000 mm 0,0 UV-I 0 W/m² 12,3 °C 18,8 °C 9,7 km/h (2 Bft)
06.07.2019 23:26 18,7 °C 66 % 1008,3 hPa 0,0 mm 2,2 km/h (1 Bft) S 174 ° 0 min 0,000 mm 0,0 UV-I 0 W/m² 12,2 °C 18,7 °C 11,3 km/h (2 Bft)
06.07.2019 23:27 18,7 °C 66 % 1008,2 hPa 0,0 mm 2,5 km/h (1 Bft) S 174 ° 0 min 0,000 mm 0,0 UV-I 0 W/m² 12,2 °C 18,7 °C 8,0 km/h (2 Bft)
06.07.2019 23:28 18,7 °C 66 % 1008,3 hPa 0,0 mm 2,9 km/h (1 Bft) S 174 ° 0 min 0,000 mm 0,0 UV-I 0 W/m² 12,2 °C 18,7 °C 4,8 km/h (1 Bft)
06.07.2019 23:29 18,6 °C 66 % 1008,3 hPa 0,0 mm 2,7 km/h (1 Bft) S 177 ° 0 min 0,000 mm 0,0 UV-I 0 W/m² 12,1 °C 18,6 °C 6,4 km/h (2 Bft)
06.07.2019 23:30 18,6 °C 66 % 1008,2 hPa 0,0 mm 2,4 km/h (1 Bft) S-SW 208 ° 0 min 0,000 mm 0,0 UV-I 0 W/m² 12,1 °C 18,6 °C 8,0 km/h (2 Bft)
06.07.2019 23:31 18,6 °C 66 % 1008,3 hPa 0,0 mm 3,5 km/h (1 Bft) S-SW 205 ° 0 min 0,000 mm 0,0 UV-I 0 W/m² 12,1 °C 18,6 °C 4,8 km/h (1 Bft)
06.07.2019 23:32 18,6 °C 66 % 1008,2 hPa 0,0 mm 0,0 km/h (0 Bft) S-SW 192 ° 0 min 0,000 mm 0,0 UV-I 0 W/m² 12,1 °C 18,6 °C 0,0 km/h (0 Bft)
06.07.2019 23:33 18,6 °C 66 % 1008,2 hPa 0,0 mm 0,0 km/h (0 Bft) S-SW 194 ° 0 min 0,000 mm 0,0 UV-I 0 W/m² 12,1 °C 18,6 °C 0,0 km/h (0 Bft)
06.07.2019 23:34 18,6 °C 66 % 1008,3 hPa 0,0 mm 5,2 km/h (1 Bft) SW 217 ° 0 min 0,000 mm 0,0 UV-I 0 W/m² 12,1 °C 18,6 °C 8,0 km/h (2 Bft)
06.07.2019 23:35 18,6 °C 66 % 1008,3 hPa 0,0 mm 5,2 km/h (1 Bft) S 183 ° 0 min 0,000 mm 0,0 UV-I 0 W/m² 12,1 °C 18,6 °C 8,0 km/h (2 Bft)
06.07.2019 23:36 18,7 °C 65 % 1008,3 hPa 0,0 mm 5,8 km/h (2 Bft) S-SW 192 ° 0 min 0,000 mm 0,0 UV-I 0 W/m² 12,0 °C 18,7 °C 11,3 km/h (2 Bft)
06.07.2019 23:37 18,7 °C 65 % 1008,3 hPa 0,0 mm 2,8 km/h (1 Bft) S 184 ° 0 min 0,000 mm 0,0 UV-I 0 W/m² 12,0 °C 18,7 °C 8,0 km/h (2 Bft)
06.07.2019 23:38 18,7 °C 65 % 1008,4 hPa 0,0 mm 3,5 km/h (1 Bft) S 190 ° 0 min 0,000 mm 0,0 UV-I 0 W/m² 12,0 °C 18,7 °C 8,0 km/h (2 Bft)
06.07.2019 23:39 18,8 °C 65 % 1008,4 hPa 0,0 mm 4,3 km/h (1 Bft) S-SW 204 ° 0 min 0,000 mm 0,0 UV-I 0 W/m² 12,1 °C 18,8 °C 8,0 km/h (2 Bft)
06.07.2019 23:40 18,8 °C 65 % 1008,3 hPa 0,0 mm 4,8 km/h (1 Bft) S-SW 192 ° 0 min 0,000 mm 0,0 UV-I 0 W/m² 12,1 °C 18,8 °C 9,7 km/h (2 Bft)
06.07.2019 23:41 18,9 °C 64 % 1008,4 hPa 0,0 mm 5,2 km/h (1 Bft) S-SW 202 ° 0 min 0,000 mm 0,0 UV-I 0 W/m² 11,9 °C 18,9 °C 8,0 km/h (2 Bft)
06.07.2019 23:42 18,9 °C 65 % 1008,4 hPa 0,0 mm 4,9 km/h (1 Bft) S-SW 193 ° 0 min 0,000 mm 0,0 UV-I 0 W/m² 12,2 °C 18,9 °C 6,4 km/h (2 Bft)
06.07.2019 23:43 19,0 °C 64 % 1008,4 hPa 0,0 mm 1,1 km/h (1 Bft) S-SW 194 ° 0 min 0,000 mm 0,0 UV-I 0 W/m² 12,0 °C 19,0 °C 4,8 km/h (1 Bft)
06.07.2019 23:44 18,9 °C 64 % 1008,4 hPa 0,0 mm 3,4 km/h (1 Bft) S-SW 194 ° 0 min 0,000 mm 0,0 UV-I 0 W/m² 11,9 °C 18,9 °C 6,4 km/h (2 Bft)
06.07.2019 23:45 19,0 °C 64 % 1008,4 hPa 0,0 mm 4,3 km/h (1 Bft) S-SW 194 ° 0 min 0,000 mm 0,0 UV-I 0 W/m² 12,0 °C 19,0 °C 8,0 km/h (2 Bft)
06.07.2019 23:46 19,0 °C 64 % 1008,4 hPa 0,0 mm 3,9 km/h (1 Bft) S-SW 194 ° 0 min 0,000 mm 0,0 UV-I 0 W/m² 12,0 °C 19,0 °C 6,4 km/h (2 Bft)
06.07.2019 23:47 18,9 °C 64 % 1008,4 hPa 0,0 mm 2,6 km/h (1 Bft) S-SW 195 ° 0 min 0,000 mm 0,0 UV-I 0 W/m² 11,9 °C 18,9 °C 4,8 km/h (1 Bft)
06.07.2019 23:48 18,9 °C 64 % 1008,4 hPa 0,0 mm 2,6 km/h (1 Bft) S-SW 194 ° 0 min 0,000 mm 0,0 UV-I 0 W/m² 11,9 °C 18,9 °C 6,4 km/h (2 Bft)
06.07.2019 23:49 18,8 °C 64 % 1008,5 hPa 0,0 mm 1,7 km/h (1 Bft) S-SW 210 ° 0 min 0,000 mm 0,0 UV-I 0 W/m² 11,8 °C 18,8 °C 8,0 km/h (2 Bft)
06.07.2019 23:50 18,8 °C 64 % 1008,5 hPa 0,0 mm 2,4 km/h (1 Bft) S-SW 208 ° 0 min 0,000 mm 0,0 UV-I 0 W/m² 11,8 °C 18,8 °C 4,8 km/h (1 Bft)
06.07.2019 23:51 18,8 °C 64 % 1008,5 hPa 0,0 mm 2,7 km/h (1 Bft) S-SW 196 ° 0 min 0,000 mm 0,0 UV-I 0 W/m² 11,8 °C 18,8 °C 6,4 km/h (2 Bft)
06.07.2019 23:52 18,9 °C 64 % 1008,5 hPa 0,0 mm 2,0 km/h (1 Bft) S-SW 211 ° 0 min 0,000 mm 0,0 UV-I 0 W/m² 11,9 °C 18,9 °C 6,4 km/h (2 Bft)
06.07.2019 23:53 18,8 °C 64 % 1008,6 hPa 0,0 mm 5,4 km/h (1 Bft) W-SW 242 ° 0 min 0,000 mm 0,0 UV-I 0 W/m² 11,8 °C 18,8 °C 8,0 km/h (2 Bft)
06.07.2019 23:54 18,8 °C 65 % 1008,6 hPa 0,0 mm 0,8 km/h (0 Bft) W-SW 240 ° 0 min 0,000 mm 0,0 UV-I 0 W/m² 12,1 °C 18,8 °C 3,2 km/h (1 Bft)
06.07.2019 23:55 18,7 °C 64 % 1008,6 hPa 0,0 mm 0,0 km/h (0 Bft) W-SW 240 ° 0 min 0,000 mm 0,0 UV-I 0 W/m² 11,7 °C 18,7 °C 0,0 km/h (0 Bft)
06.07.2019 23:56 18,7 °C 65 % 1008,7 hPa 0,0 mm 0,5 km/h (0 Bft) W-SW 240 ° 0 min 0,000 mm 0,0 UV-I 0 W/m² 12,0 °C 18,7 °C 3,2 km/h (1 Bft)
06.07.2019 23:57 18,8 °C 64 % 1008,7 hPa 0,0 mm 3,3 km/h (1 Bft) S-SW 199 ° 0 min 0,000 mm 0,0 UV-I 0 W/m² 11,8 °C 18,8 °C 6,4 km/h (2 Bft)
06.07.2019 23:58 18,8 °C 64 % 1008,8 hPa 0,0 mm 0,0 km/h (0 Bft) S-SW 199 ° 0 min 0,000 mm 0,0 UV-I 0 W/m² 11,8 °C 18,8 °C 0,0 km/h (0 Bft)
06.07.2019 23:59 18,9 °C 64 % 1008,8 hPa 0,0 mm 0,0 km/h (0 Bft) S-SW 199 ° 0 min 0,000 mm 0,0 UV-I 0 W/m² 11,9 °C 18,9 °C 0,0 km/h (0 Bft)
_ Min-Zeit 06:02 12:47 20:18 - 23:59 - - - - - - 04:54 06:03 23:59
Minimum _ 11,2 °C 35 % 1007,6 hPa - 0,0 km/h (0 Bft) - - - - - - 8,2 °C 11,3 °C 0,0 km/h (0 Bft)
_ Max-Zeit 13:14 06:39 00:18 23:59 17:44 - - 16:09 13:00 12:58 14:38 09:05 13:14 17:54
Maximum _ 27,9 °C 84 % 1013,2 hPa 0,0 mm 31,8 km/h
W-SW (5 Bft)
- - 1 min 0,635 mm 7,7 UV-I 1039 W/m² 16,2 °C 27,9 °C 45,1 km/h
W (6 Bft)
Durchschnitt _ 19,9 °C 63 % 1009,9 hPa #0,0 mm 4,2 km/h (1 Bft) W - #4:01 h #4,699 mm 3,2 UV-I 247 W/m² 12,0 °C 19,9 °C 7,1 km/h (2 Bft)